[[{"header":{"parameterUnit":"m.s-1","parameterCategory":1,"la1":31.0,"la2":29.5877,"lo1":-88.7671,"lo2":-86.6584,"dy":0.0162,"dx":0.0185,"nx":115,"ny":88,"refTime":"2026-03-03T00:00:00:Z","depth":0,"parameterNumber":2,"parameterNumberName":"U-component_of_WINDS"},"data":[0.0,0.0,0.0,0.0,0.0,0.0,0.0,0.0,0.0,0.0,0.0,0.0,0.0,0.0,0.0,0.0,0.0,0.0,0.0,0.0,0.0,0.0,0.0,0.0,0.0,0.0,0.0,0.0,0.0,0.0,0.0,0.0,0.0,0.0,0.0,0.0,0.0,0.0,0.0,0.0,0.0,0.0,0.0,0.0,0.0,0.0,0.0,0.0,0.0,0.0,0.0,0.0,0.0,0.0,0.0,0.0,0.0,0.0,0.0,0.0,0.0,0.0,0.0,0.0,0.0,0.0,0.0,0.0,0.0,0.0,0.0,0.0,0.0,0.0,0.0,0.0,0.0,0.0,0.0,0.0,0.0,0.0,0.0,0.0,0.0,0.0,0.0,0.0,0.0,0.0,0.0,0.0,0.0,0.0,0.0,0.0,0.0,0.0,0.0,0.0,0.0,0.0,0.0,0.0,0.0,0.0,0.0,0.0,0.0,0.0,0.0,0.0,0.0,0.0,0.0,0.0,0.0,0.0,0.0,0.0,0.0,0.0,0.0,0.0,0.0,0.0,0.0,0.0,0.0,0.0,0.0,0.0,0.0,0.0,0.0,0.0,0.0,0.0,0.0,0.0,0.0,0.0,0.0,0.0,0.0,0.0,0.0,0.0,0.0,0.0,0.0,0.0,0.0,0.0,0.0,0.0,0.0,0.0,0.0,0.0,0.0,0.0,0.0,0.0,0.0,0.0,0.0,0.0,0.0,0.0,0.0,0.0,0.0,0.0,0.0,0.0,0.0,0.0,0.0,0.0,0.0,0.0,0.0,0.0,0.0,0.0,0.0,0.0,0.0,0.0,0.0,0.0,0.0,0.0,0.0,0.0,0.0,0.0,0.0,0.0,0.0,0.0,0.0,0.0,0.0,0.0,0.0,0.0,0.0,0.0,0.0,0.0,0.0,0.0,0.0,0.0,0.0,0.0,0.0,0.0,0.0,0.0,0.0,0.0,0.0,0.0,0.0,0.0,0.0,0.0,0.0,0.0,0.0,0.0,0.0,0.0,0.0,0.0,0.0,0.0,0.0,0.0,0.0,0.0,0.0,0.0,0.0,0.0,0.0,0.0,0.0,0.0,0.0,0.0,0.0,0.0,0.0,0.0,0.0,0.0,0.0,0.0,0.0,0.0,0.0,0.0,0.0,0.0,0.0,0.0,0.0,0.0,0.0,0.0,0.0,0.0,0.0,0.0,0.0,0.0,0.0,0.0,0.0,0.0,0.0,0.0,0.0,0.0,0.0,0.0,0.0,0.0,0.0,0.0,0.0,0.0,0.0,0.0,0.0,0.0,0.0,0.0,0.0,0.0,0.0,0.0,0.0,0.0,0.0,0.0,0.0,0.0,0.0,0.0,0.0,0.0,0.0,0.0,0.0,0.0,0.0,0.0,0.0,0.0,0.0,0.0,0.0,0.0,0.0,0.0,0.0,0.0,0.0,0.0,0.0,0.0,0.0,0.0,0.0,0.0,0.0,0.0,0.0,0.0,0.0,0.0,0.0,0.0,0.0,0.0,0.0,0.0,0.0,0.0,0.0,0.0,0.0,0.0,0.0,0.0,0.0,0.0,0.0,0.0,0.0,0.0,0.0,0.0,0.0,0.0,0.0,0.0,0.0,0.0,0.0,0.0,0.0,0.0,0.0,0.0,0.0,0.0,0.0,0.0,0.0,0.0,0.0,0.0,0.0,0.0,0.0,0.0,0.0,0.0,0.0,0.0,0.0,0.0,0.0,0.0,0.0,0.0,0.0,0.0,0.0,0.0,0.0,0.0,0.0,0.0,0.0,0.0,0.0,0.0,0.0,0.0,0.0,0.0,0.0,0.0,0.0,0.0,0.0,0.0,0.0,0.0,0.0,0.0,0.0,0.0,0.0,0.0,0.0,0.0,0.0,0.0,0.0,0.0,0.0,0.0,0.0,0.0,0.0,0.0,0.0,0.0,0.0,0.0,0.0,0.0,0.0,0.0,0.0,0.0,0.0,0.0,0.0,0.0,0.0,0.0,0.0,0.0,0.0,0.0,0.0,0.0,0.0,0.0,0.0,0.0,0.0,0.0,0.0,0.0,0.0,0.0,0.0,0.0,0.0,0.0,0.0,0.0,0.0,0.0,0.0,0.0,0.0,0.0,0.0,0.0,0.0,0.0,0.0,0.0,0.0,0.0,0.0,0.0,0.0,0.0,0.0,0.0,0.0,0.0,0.0,0.0,0.0,0.0,0.0,0.0,0.0,0.0,0.0,0.0,0.0,0.0,0.0,0.0,0.0,0.0,0.0,0.0,0.0,0.0,0.0,0.0,0.0,0.0,0.0,0.0,0.0,0.0,0.0,0.0,0.0,0.0,0.0,0.0,0.0,0.0,0.0,0.0,0.0,0.0,0.0,0.0,0.0,0.0,0.0,0.0,0.0,0.0,0.0,0.0,0.0,0.0,0.0,0.0,0.0,0.0,0.0,0.0,0.0,0.0,0.0,0.0,0.0,0.0,0.0,0.0,0.0,0.0,0.0,0.0,0.0,0.0,0.0,0.0,0.0,0.0,0.0,0.0,0.0,0.0,0.0,0.0,0.0,0.0,0.0,0.0,0.0,0.0,0.0,0.0,0.0,0.0,0.0,0.0,0.0,0.0,0.0,0.0,0.0,0.0,0.0,0.0,0.0,0.0,0.0,0.0,0.0,0.0,0.0,0.0,0.0,0.0,0.0,0.0,0.0,0.0,0.0,0.0,0.0,0.0,0.0,0.0,0.0,0.0,0.0,0.0,0.0,0.0,0.0,0.0,0.0,0.0,0.0,0.0,0.0,0.0,0.0,0.0,0.0,0.0,0.0,0.0,0.0,0.0,0.0,0.0,0.0,0.0,0.0,0.0,0.0,0.0,0.0,0.0,0.0,0.0,0.0,0.0,0.0,0.0,0.0,0.0,0.0,0.0,0.0,0.0,0.0,0.0,0.0,0.0,0.0,0.0,0.0,0.0,0.0,0.0,0.0,0.0,0.0,0.0,0.0,0.0,0.0,0.0,0.0,0.0,0.0,0.0,0.0,0.0,0.0,0.0,0.0,0.0,0.0,0.0,0.0,0.0,0.0,0.0,0.0,0.0,0.0,0.0,0.0,0.0,0.0,0.0,0.0,0.0,0.0,0.0,0.0,0.0,0.0,0.0,0.0,0.0,0.0,0.0,0.0,0.0,0.0,0.0,0.0,0.0,0.0,0.0,0.0,0.0,0.0,0.0,0.0,0.0,0.0,0.0,0.0,0.0,0.0,0.0,0.0,0.0,0.0,0.0,0.0,0.0,0.0,0.0,0.0,0.0,0.0,0.0,0.0,0.0,0.0,0.0,0.0,0.0,0.0,0.0,0.0,0.0,0.0,0.0,0.0,0.0,0.0,0.0,0.0,0.0,0.0,0.0,0.0,0.0,0.0,0.0,0.0,0.0,0.0,0.0,0.0,0.0,0.0,0.0,0.0,0.0,0.0,0.0,0.0,0.0,0.0,0.0,0.0,0.0,0.0,0.0,0.0,0.0,0.0,0.0,0.0,0.0,0.0,0.0,0.0,0.0,0.0,0.0,0.0,0.0,0.0,0.0,0.0,0.0,0.0,0.0,0.0,0.0,0.0,0.0,0.0,0.0,0.0,0.0,0.0,0.0,0.0,0.0,0.0,0.0,0.0,0.0,0.0,0.0,0.0,0.0,0.0,0.0,0.0,0.0,0.0,0.0,0.0,0.0,0.0,0.0,0.0,0.0,0.0,0.0,0.0,0.0,0.0,0.0,0.0,0.0,0.0,0.0,0.0,0.0,0.0,0.0,0.0,0.0,0.0,0.0,0.0,0.0,0.0,0.0,0.0,0.0,0.0,0.0,0.0,0.0,0.0,0.0,0.0,0.0,0.0,0.0,0.0,0.0,0.0,0.0,0.0,0.0,0.0,0.0,0.0,0.0,0.0,0.0,0.0,0.0,0.0,0.0,0.0,0.0,0.0,0.0,0.0,0.0,0.0,0.0,0.0,0.0,0.0,0.0,0.0,0.0,0.0,0.0,0.0,0.0,0.0,0.0,0.0,0.0,0.0,0.0,0.0,0.0,0.0,0.0,0.0,0.0,0.0,0.0,0.0,0.0,0.0,0.0,0.0,0.0,0.0,0.0,0.0,0.0,0.0,0.0,0.0,0.0,0.0,0.0,0.0,0.0,0.0,0.0,0.0,0.0,0.0,0.0,0.0,0.0,0.0,0.0,0.0,0.0,0.0,0.0,-0.3843,0.0,0.0,0.0,0.0,0.0,0.0,0.0,0.0,0.0,0.0,0.0,0.0,0.0,0.0,0.0,0.0,0.0,0.0,0.0,0.0,0.0,0.0,0.0,0.0,0.0,0.0,0.0,0.0,0.0,0.0,0.0,0.0,0.0,0.0,0.0,0.0,0.0,0.0,0.0,0.0,0.0,0.0,0.0,0.0,0.0,0.0,0.0,0.0,0.0,0.0,0.0,0.0,0.0,0.0,0.0,0.0,0.0,0.0,0.0,0.0,0.0,0.0,0.0,0.0,0.0,0.0,0.0,0.0,0.0,0.0,0.0,0.0,0.0,0.0,0.0,0.0,0.0,0.0,0.0,0.0,0.0,0.0,0.0,0.0,0.0,0.0,0.0,0.0,0.0,0.0,0.0,0.0,0.0,0.0,0.0,0.0,0.0,0.0,0.0,0.0,0.0,0.0,0.0,0.0,0.0,0.0,0.0,0.0,0.0,0.0,-0.4232,-0.4068,-0.3715,-0.3626,-0.3885,0.0,0.0,0.0,0.0,0.0,0.0,0.0,0.0,0.0,0.0,0.0,0.0,0.0,0.0,0.0,0.0,0.0,0.0,0.0,0.0,0.0,0.0,0.0,0.0,0.0,0.0,0.0,0.0,0.0,0.0,0.0,0.0,0.0,0.0,0.0,0.0,0.0,0.0,0.0,0.0,0.0,0.0,0.0,0.0,0.0,0.0,0.0,0.0,0.0,0.0,0.0,0.0,0.0,0.0,0.0,0.0,0.0,0.0,0.0,0.0,0.0,0.0,0.0,0.0,0.0,0.0,0.0,0.0,0.0,0.0,0.0,0.0,0.0,0.0,0.0,0.0,0.0,0.0,0.0,0.0,0.0,0.0,0.0,0.0,0.0,0.0,0.0,0.0,0.0,0.0,0.0,0.0,0.0,0.0,0.0,0.0,0.0,0.0,0.0,0.0,0.0,0.0,0.0,0.0,0.0,0.0,0.0,0.0,0.0,0.0,0.0,0.0,-0.3647,-0.3657,-0.3988,0.0,0.0,0.0,0.0,0.0,0.0,0.0,0.0,0.0,0.0,0.0,0.0,0.0,0.0,0.0,0.0,0.0,0.0,0.0,0.0,0.0,0.0,0.0,0.0,0.0,0.0,0.0,0.0,0.0,0.0,0.0,0.0,0.0,0.0,0.0,0.0,0.0,0.0,0.0,0.0,0.0,0.0,0.0,0.0,0.0,0.0,0.0,0.0,0.0,0.0,0.0,0.0,0.0,0.0,0.0,0.0,0.0,0.0,0.0,0.0,0.0,0.0,0.0,0.0,0.0,0.0,0.0,0.0,0.0,0.0,0.0,0.0,0.0,0.0,0.0,0.0,0.0,0.0,0.0,0.0,0.0,0.0,0.0,0.0,0.0,0.0,0.0,0.0,0.0,0.0,0.0,0.0,0.0,0.0,0.0,0.0,0.0,0.0,0.0,0.0,0.0,0.0,0.0,0.0,0.0,0.0,0.0,0.0,0.0,0.0,-0.3914,-0.3898,-0.3636,0.0,-0.4249,0.0,0.0,0.0,0.0,0.0,0.0,0.0,0.0,0.0,0.0,0.0,0.0,0.0,0.0,0.0,0.0,0.0,0.0,0.0,0.0,0.0,0.0,0.0,0.0,0.0,0.0,0.0,0.0,0.0,0.0,0.0,0.0,0.0,0.0,0.0,0.0,0.0,0.0,0.0,0.0,0.0,0.0,0.0,0.0,0.0,0.0,0.0,0.0,0.0,0.0,0.0,0.0,0.0,0.0,0.0,0.0,0.0,0.0,0.0,0.0,0.0,0.0,0.0,0.0,0.0,0.0,0.0,0.0,0.0,0.0,0.0,0.0,0.0,0.0,0.0,0.0,0.0,0.0,0.0,0.0,0.0,0.0,0.0,0.0,0.0,0.0,0.0,0.0,0.0,0.0,0.0,0.0,0.0,0.0,0.0,0.0,0.0,0.0,0.0,0.0,0.0,0.0,0.0,0.0,0.0,0.0,0.0,0.0,0.0,0.0,-0.3911,-0.3911,-0.3945,-0.4084,0.0,0.0,0.0,0.0,0.0,0.0,0.0,0.0,0.0,0.0,0.0,0.0,0.0,0.0,0.0,0.0,0.0,0.0,0.0,0.0,0.0,0.0,0.0,0.0,0.0,0.0,0.0,0.0,0.0,0.0,0.0,0.0,0.0,0.0,0.0,0.0,0.0,0.0,0.0,0.0,0.0,0.0,0.0,0.0,0.0,0.0,0.0,0.0,0.0,0.0,0.0,0.0,0.0,0.0,0.0,0.0,0.0,0.0,0.0,0.0,0.0,0.0,0.0,0.0,0.0,0.0,0.0,0.0,0.0,0.0,0.0,0.0,0.0,0.0,0.0,0.0,0.0,0.0,0.0,0.0,0.0,0.0,0.0,0.0,0.0,0.0,0.0,0.0,0.0,0.0,0.0,0.0,0.0,0.0,0.0,0.0,0.0,0.0,0.0,0.0,0.0,0.0,0.0,0.0,0.0,0.0,0.0,0.0,0.0,0.0,-0.389,-0.3786,-0.3791,-0.4048,-0.4227,-0.4298,0.0,0.0,0.0,0.0,0.0,0.0,0.0,0.0,0.0,0.0,0.0,0.0,0.0,0.0,0.0,0.0,0.0,0.0,0.0,0.0,0.0,0.0,0.0,0.0,0.0,0.0,0.0,0.0,0.0,0.0,0.0,0.0,0.0,0.0,0.0,0.0,0.0,0.0,0.0,0.0,0.0,0.0,0.0,0.0,0.0,0.0,0.0,0.0,0.0,0.0,0.0,0.0,0.0,0.0,0.0,0.0,0.0,0.0,0.0,0.0,0.0,0.0,0.0,0.0,0.0,0.0,0.0,0.0,0.0,0.0,0.0,0.0,0.0,0.0,0.0,0.0,0.0,0.0,0.0,0.0,0.0,0.0,0.0,0.0,0.0,0.0,0.0,0.0,0.0,0.0,0.0,0.0,0.0,0.0,0.0,0.0,0.0,0.0,0.0,0.0,0.0,0.0,0.0,0.0,0.0,0.0,0.0,0.0,0.0,-0.3527,-0.3522,-0.352,-0.3776,-0.4032,0.0,0.0,0.0,0.0,0.0,0.0,0.0,0.0,0.0,0.0,0.0,0.0,0.0,0.0,0.0,0.0,0.0,0.0,0.0,0.0,0.0,0.0,0.0,0.0,0.0,0.0,0.0,0.0,0.0,0.0,0.0,0.0,0.0,0.0,0.0,0.0,0.0,0.0,0.0,0.0,0.0,0.0,0.0,0.0,0.0,0.0,0.0,0.0,0.0,0.0,0.0,0.0,0.0,0.0,0.0,0.0,0.0,0.0,0.0,0.0,0.0,0.0,0.0,0.0,0.0,0.0,0.0,0.0,0.0,0.0,0.0,0.0,0.0,0.0,0.0,0.0,0.0,0.0,0.0,0.0,0.0,0.0,0.0,0.0,0.0,0.0,0.0,0.0,0.0,0.0,0.0,0.0,0.0,0.0,0.0,0.0,0.0,0.0,0.0,0.0,0.0,0.0,0.0,0.0,0.0,0.0,0.0,0.0,0.0,-0.3495,-0.333,-0.325,-0.3245,-0.3507,-0.3687,0.0,0.0,0.0,0.0,0.0,0.0,0.0,0.0,0.0,0.0,0.0,0.0,0.0,0.0,0.0,0.0,0.0,0.0,0.0,0.0,0.0,0.0,0.0,0.0,0.0,0.0,0.0,0.0,0.0,0.0,0.0,0.0,0.0,0.0,0.0,0.0,0.0,0.0,0.0,0.0,0.0,0.0,0.0,0.0,0.0,0.0,0.0,0.0,0.0,0.0,0.0,0.0,0.0,0.0,0.0,0.0,0.0,0.0,0.0,0.0,0.0,0.0,0.0,0.0,0.0,0.0,0.0,0.0,0.0,0.0,0.0,0.0,0.0,0.0,0.0,0.0,0.0,0.0,0.0,0.0,0.0,0.0,0.0,0.0,0.0,0.0,0.0,0.0,0.0,0.0,0.0,0.0,0.0,0.0,0.0,0.0,0.0,0.0,0.0,0.0,0.0,0.0,0.0,0.0,0.0,0.0,0.0,0.0,0.0,-0.349,0.0,-0.3111,0.0,-0.3274,-0.3401,0.0,0.0,0.0,0.0,0.0,0.0,0.0,0.0,0.0,0.0,0.0,0.0,0.0,0.0,0.0,0.0,0.0,0.0,0.0,0.0,0.0,0.0,0.0,0.0,0.0,0.0,0.0,0.0,0.0,0.0,0.0,0.0,0.0,0.0,0.0,0.0,0.0,0.0,0.0,0.0,0.0,0.0,0.0,0.0,0.0,0.0,0.0,0.0,0.0,0.0,0.0,0.0,0.0,0.0,0.0,0.0,0.0,0.0,0.0,0.0,0.0,0.0,0.0,0.0,0.0,0.0,0.0,0.0,0.0,0.0,0.0,0.0,0.0,0.0,0.0,0.0,0.0,0.0,0.0,0.0,0.0,0.0,0.0,0.0,0.0,0.0,0.0,0.0,0.0,0.0,0.0,0.0,0.0,0.0,0.0,0.0,0.0,0.0,0.0,0.0,0.0,0.0,0.0,0.0,0.0,0.0,0.0,0.0,-0.3511,-0.349,-0.3245,-0.309,-0.3106,-0.309,-0.3217,0.0,0.0,0.0,0.0,0.0,0.0,0.0,0.0,0.0,0.0,0.0,0.0,0.0,0.0,0.0,0.0,0.0,0.0,0.0,0.0,0.0,0.0,0.0,0.0,0.0,0.0,0.0,0.0,0.0,0.0,0.0,0.0,0.0,0.0,0.0,0.0,0.0,0.0,0.0,0.0,0.0,0.0,0.0,0.0,0.0,0.0,0.0,0.0,0.0,0.0,0.0,0.0,0.0,0.0,0.0,0.0,0.0,0.0,0.0,0.0,0.0,0.0,0.0,0.0,0.0,0.0,0.0,0.0,0.0,0.0,0.0,0.0,0.0,0.0,0.0,0.0,0.0,0.0,0.0,0.0,0.0,0.0,0.0,0.0,0.0,0.0,0.0,0.0,0.0,0.0,0.0,0.0,0.0,0.0,0.0,0.0,0.0,0.0,0.0,0.0,0.0,0.0,0.0,0.0,0.0,0.0,0.0,0.0,0.0,-0.3778,-0.3158,-0.2879,-0.2952,-0.2863,-0.2918,0.0,0.0,0.0,0.0,0.0,0.0,0.0,0.0,0.0,0.0,0.0,0.0,0.0,0.0,0.0,0.0,0.0,0.0,0.0,0.0,0.0,0.0,0.0,0.0,0.0,0.0,0.0,0.0,0.0,0.0,0.0,0.0,0.0,0.0,0.0,0.0,0.0,0.0,0.0,0.0,0.0,0.0,0.0,0.0,0.0,0.0,0.0,0.0,0.0,0.0,0.0,0.0,0.0,0.0,0.0,0.0,0.0,0.0,0.0,0.0,0.0,0.0,0.0,0.0,0.0,0.0,0.0,0.0,0.0,0.0,0.0,0.0,0.0,0.0,0.0,0.0,0.0,0.0,0.0,0.0,0.0,0.0,0.0,0.0,0.0,0.0,0.0,0.0,0.0,0.0,0.0,0.0,0.0,0.0,0.0,0.0,0.0,0.0,0.0,0.0,0.0,0.0,0.0,0.0,0.0,0.0,0.0,0.0,0.0,-0.4217,-0.3523,-0.31,-0.2988,-0.2996,-0.2942,-0.2855,0.0,0.0,0.0,0.0,0.0,0.0,0.0,0.0,0.0,0.0,0.0,0.0,0.0,0.0,0.0,0.0,0.0,0.0,0.0,0.0,0.0,0.0,0.0,0.0,0.0,0.0,0.0,0.0,0.0,0.0,0.0,0.0,0.0,0.0,0.0,0.0,0.0,0.0,0.0,0.0,0.0,0.0,0.0,0.0,0.0,0.0,0.0,0.0,0.0,0.0,0.0,0.0,0.0,0.0,0.0,0.0,0.0,0.0,0.0,0.0,0.0,0.0,0.0,0.0,0.0,0.0,0.0,0.0,0.0,0.0,0.0,0.0,0.0,0.0,0.0,0.0,0.0,0.0,0.0,0.0,0.0,0.0,0.0,0.0,0.0,0.0,0.0,0.0,0.0,0.0,0.0,0.0,0.0,0.0,0.0,0.0,0.0,0.0,0.0,0.0,0.0,0.0,0.0,0.0,0.0,0.0,0.0,0.0,-0.4836,-0.4271,-0.3712,-0.32,-0.3374,-0.3272,0.0,0.0,0.0,0.0,0.0,0.0,0.0,0.0,0.0,0.0,0.0,0.0,0.0,0.0,0.0,0.0,0.0,0.0,0.0,0.0,0.0,0.0,0.0,0.0,0.0,0.0,0.0,0.0,0.0,0.0,0.0,0.0,0.0,0.0,0.0,0.0,0.0,0.0,0.0,0.0,0.0,0.0,0.0,0.0,0.0,0.0,0.0,0.0,0.0,0.0,0.0,0.0,0.0,0.0,0.0,0.0,0.0,0.0,0.0,0.0,0.0,0.0,0.0,0.0,0.0,0.0,0.0,0.0,0.0,0.0,0.0,0.0,0.0,0.0,0.0,0.0,0.0,0.0,0.0,0.0,0.0,0.0,0.0,0.0,0.0,0.0,0.0,0.0,0.0,0.0,0.0,0.0,0.0,0.0,0.0,0.0,0.0,0.0,0.0,0.0,0.0,0.0,0.0,0.0,0.0,0.0,0.0,0.0,0.0,-0.5081,-0.4929,-0.4562,-0.393,-0.3645,-0.3487,0.0,0.0,0.0,0.0,0.0,0.0,0.0,0.0,0.0,0.0,0.0,0.0,0.0,0.0,0.0,0.0,0.0,0.0,0.0,0.0,0.0,0.0,0.0,0.0,0.0,0.0,0.0,0.0,0.0,0.0,0.0,0.0,0.0,0.0,0.0,0.0,0.0,0.0,0.0,0.0,0.0,0.0,0.0,0.0,0.0,0.0,0.0,0.0,0.0,0.0,0.0,0.0,0.0,0.0,0.0,0.0,0.0,0.0,0.0,0.0,0.0,0.0,0.0,0.0,0.0,0.0,0.0,0.0,0.0,0.0,0.0,0.0,0.0,0.0,0.0,0.0,0.0,0.0,0.0,0.0,0.0,0.0,0.0,0.0,0.0,0.0,0.0,0.0,0.0,0.0,0.0,0.0,0.0,0.0,0.0,0.0,0.0,0.0,0.0,0.0,0.0,0.0,0.0,0.0,0.0,0.0,0.0,0.0,-0.5101,-0.5192,-0.5391,-0.5131,-0.4388,-0.4157,-0.383,0.0,0.0,0.0,0.0,0.0,0.0,0.0,0.0,0.0,0.0,0.0,0.0,0.0,0.0,0.0,0.0,0.0,0.0,0.0,0.0,0.0,0.0,0.0,0.0,0.0,0.0,0.0,0.0,0.0,0.0,0.0,0.0,0.0,0.0,0.0,0.0,0.0,0.0,0.0,0.0,0.0,0.0,0.0,0.0,0.0,0.0,0.0,0.0,0.0,0.0,0.0,0.0,0.0,0.0,0.0,0.0,0.0,0.0,0.0,0.0,0.0,0.0,0.0,0.0,0.0,0.0,0.0,0.0,0.0,0.0,0.0,0.0,0.0,0.0,0.0,0.0,0.0,0.0,0.0,0.0,0.0,0.0,0.0,0.0,0.0,0.0,0.0,0.0,0.0,0.0,0.0,0.0,0.0,0.0,0.0,0.0,0.0,0.0,0.0,0.0,0.0,0.0,0.0,0.0,0.0,0.0,0.0,0.0,-0.5207,-0.5175,-0.5519,-0.5321,-0.4544,-0.4649,-0.417,0.0,0.0,0.0,0.0,0.0,0.0,0.0,0.0,0.0,0.0,0.0,0.0,0.0,0.0,0.0,0.0,0.0,0.0,0.0,0.0,0.0,0.0,0.0,0.0,0.0,0.0,0.0,0.0,0.0,0.0,0.0,0.0,0.0,0.0,0.0,0.0,0.0,0.0,0.0,0.0,0.0,0.0,0.0,0.0,0.0,0.0,0.0,0.0,0.0,0.0,0.0,0.0,0.0,0.0,0.0,0.0,0.0,0.0,0.0,0.0,0.0,0.0,0.0,0.0,0.0,0.0,0.0,0.0,0.0,0.0,0.0,0.0,0.0,0.0,0.0,0.0,0.0,0.0,0.0,0.0,0.0,0.0,0.0,0.0,0.0,0.0,0.0,0.0,0.0,0.0,0.0,0.0,0.0,0.0,0.0,0.0,0.0,0.0,0.0,0.0,0.0,0.0,0.0,0.0,0.0,0.0,0.0,0.0,-0.433,-0.4854,-0.4667,-0.4322,-0.3825,-0.4144,-0.3984,0.0,0.0,0.0,0.0,0.0,0.0,0.0,0.0,0.0,0.0,0.0,0.0,0.0,0.0,0.0,0.0,0.0,0.0,0.0,0.0,0.0,0.0,0.0,0.0,0.0,0.0,0.0,0.0,0.0,0.0,0.0,0.0,0.0,0.0,0.0,0.0,0.0,0.0,0.0,0.0,0.0,0.0,0.0,0.0,0.0,0.0,0.0,0.0,0.0,0.0,0.0,0.0,0.0,0.0,0.0,0.0,0.0,0.0,0.0,0.0,0.0,0.0,0.0,0.0,0.0,0.0,0.0,0.0,0.0,0.0,0.0,0.0,0.0,0.0,0.0,0.0,0.0,0.0,0.0,0.0,0.0,0.0,0.0,0.0,0.0,0.0,0.0,0.0,0.0,0.0,0.0,0.0,0.0,0.0,0.0,0.0,0.0,0.0,0.0,0.0,0.0,0.0,0.0,0.0,0.0,0.0,0.0,0.0,-0.4228,-0.4802,-0.4414,-0.4008,-0.3633,-0.3819,-0.3631,0.0,0.0,0.0,0.0,0.0,0.0,0.0,0.0,0.0,0.0,0.0,0.0,0.0,0.0,0.0,0.0,0.0,0.0,0.0,0.0,0.0,0.0,0.0,0.0,0.0,0.0,0.0,0.0,0.0,0.0,0.0,0.0,0.0,0.0,0.0,0.0,0.0,0.0,0.0,0.0,0.0,0.0,0.0,0.0,0.0,0.0,0.0,0.0,0.0,0.0,0.0,0.0,0.0,0.0,0.0,0.0,0.0,0.0,0.0,0.0,0.0,0.0,0.0,0.0,0.0,0.0,0.0,0.0,0.0,0.0,0.0,0.0,0.0,0.0,0.0,0.0,0.0,0.0,0.0,0.0,0.0,0.0,0.0,0.0,0.0,0.0,0.0,0.0,0.0,0.0,0.0,0.0,0.0,0.0,0.0,0.0,0.0,0.0,0.0,0.0,0.0,0.0,0.0,0.0,0.0,0.0,0.0,-0.4192,-0.4307,-0.4777,-0.4348,-0.3904,-0.354,-0.3594,-0.3344,-0.2732,0.0,0.0,0.0,0.0,0.0,0.0,0.0,0.0,0.0,0.0,0.0,0.0,0.0,0.0,0.0,0.0,0.0,0.0,0.0,0.0,0.0,0.0,0.0,0.0,0.0,0.0,0.0,0.0,0.0,0.0,0.0,0.0,0.0,0.0,0.0,0.0,0.0,0.0,0.0,0.0,0.0,0.0,0.0,0.0,0.0,0.0,0.0,0.0,0.0582,0.0,0.0,0.0,0.0,0.0,0.0,0.0,0.0,0.0,0.0,0.0,0.0,0.0,0.0,0.0,0.0,0.0,0.0,0.0,0.0,0.0,0.0,0.0,0.0,0.0,0.0,0.0,0.0,0.0,0.0,0.0,0.0,0.0,0.0,0.0,0.0,0.0,0.0,0.0,0.0,0.0,0.0,0.0,0.0,0.0,0.0,0.0,0.0,0.0,0.0,0.0,0.0,0.0,0.0,0.0,0.0,-0.4728,-0.3887,-0.3784,-0.4449,-0.3861,-0.3424,-0.3204,-0.3553,-0.3414,-0.2736,0.0,0.0,0.0,0.0,0.0,0.0,0.0,0.0,0.0,0.0,0.0,0.0,0.0,0.0,0.0,0.0,0.0,0.0,0.0,0.0,0.0,0.0,0.0,0.0,0.0,0.0,0.0,0.0,0.0,0.0,0.0,0.0,0.0,0.0,0.0,0.0,0.0,0.0,0.0,0.0,0.0,0.0,0.0,0.0,0.0,0.0,0.0,0.0,0.0,0.0948,0.0,0.0,0.0,0.0,0.0,0.0,0.0,0.0,0.0,0.0,0.0,0.0,0.0,0.0,0.0,0.0,0.0,0.0,0.0,0.0,0.0,0.0,0.0,0.0,0.0,0.0,0.0,0.0,0.0,0.0,0.0,0.0,0.0,0.0,0.0,0.0,0.0,0.0,0.0,0.0,0.0,0.0,0.0,0.0,0.0,0.0,0.0,0.0,0.0,0.0,0.0,0.0,0.0,0.0,0.0,-0.4561,-0.4049,-0.3974,-0.4361,-0.3744,-0.3344,-0.3219,-0.341,-0.332,0.0,0.0,0.0,0.0,0.0,0.0,0.0,0.0,0.0,0.0,0.0,0.0,0.0,0.0,0.0,0.0,0.0,0.0,0.0,0.0,0.0,0.0,0.0,0.0,0.0,0.0,0.0,0.0,0.0,0.0,0.0,0.0,0.0,0.0,0.0,0.0,0.0,0.0,0.0,0.0,0.0,0.0,0.0,0.0,0.0,0.0,0.0,0.0,0.0,0.0943,0.1133,0.0,0.0,0.0,0.0,0.0,0.0,0.0,0.0,0.0,0.0,0.0,0.0,0.0,0.0,0.0,0.0,0.0,0.0,0.0,0.0,0.0,0.0,0.0,0.0,0.0,0.0,0.0,0.0,0.0,0.0,0.0,0.0,0.0,0.0,0.0,0.0,0.0,0.0,0.0,0.0,0.0,0.0,0.0,0.0,0.0,0.0,0.0,0.0,0.0,0.0,0.0,0.0,0.0,0.0,0.0,-0.4409,-0.4368,-0.435,-0.4376,-0.3876,-0.3531,-0.3416,-0.3478,-0.3373,0.0,0.0,0.0,0.0,0.0,0.0,0.0,0.0,0.0,0.0,0.0,0.0,0.0,0.0,0.0,0.0,0.0,0.0,0.0,0.0,0.0,0.0,0.0,0.0,0.0,0.0,0.0,0.0,0.0,0.0,0.0,0.0,0.0,0.0,0.0,0.0,0.0,0.0,0.0,0.0,0.0,0.0,0.0,0.0,0.0,0.0,0.0,0.0,0.1064,0.1063,0.0,0.0,0.0,0.0,0.0,0.0,0.0,0.0,0.0,0.0,0.0,0.0,0.0,0.0,0.0,0.0,0.0,0.0,0.0,0.0,0.0,0.0,0.0,0.0,0.0,0.0,0.0,0.0,0.0,0.0,0.0,0.0,0.0,0.0,0.0,0.0,0.0,0.0,0.0,0.0,0.0,0.0,0.0,0.0,0.0,0.0,0.0,0.0,0.0,0.0,0.0,0.0,0.0,0.0,0.0,0.0,-0.4422,-0.4672,-0.4673,-0.4414,-0.4317,-0.4117,-0.3765,-0.4095,-0.4056,0.0,0.0,0.0,0.0,0.0,0.0,0.0,0.0,0.0,0.0,0.0,0.0,0.0,0.0,0.0,0.0,0.0,0.0,0.0,0.0,0.0,0.0,0.0,0.0,0.0,0.0,0.0,0.0,0.0,0.0,0.0,0.0,0.0,0.0,0.0,0.0,0.0,0.0,0.0,0.0,0.0,0.0,0.0,0.0,0.0,0.0,0.0,0.0175,0.0701,0.1043,0.0,0.0,0.0,0.0,0.0,0.0,0.0,0.0,0.0,0.0,0.0,0.0,0.0,0.0,0.0,0.0,0.0,0.0,0.0,0.0,0.0,0.0,0.0,0.0,0.0,0.0,0.0,0.0,0.0,0.0,0.0,0.0,0.0,0.0,0.0,0.0,0.0,0.0,0.0,0.0,0.0,0.0,0.0,0.0,0.0,0.0,0.0,0.0,0.0,0.0,0.0,0.0,0.0,0.0,0.0,-0.4903,-0.4656,-0.4954,-0.4975,-0.4685,-0.4495,-0.4121,-0.3521,-0.3947,-0.3957,0.0,0.0,0.0,0.0,0.0,0.0,0.0,0.0,0.0,0.0,0.0,0.0,0.0,0.0,0.0,0.0,0.0,0.0,0.0,0.0,0.0,0.0,0.0,0.0,0.0,0.0,0.0,0.0,0.0,0.0,0.0,0.0,0.0,0.0,0.0,0.0,0.0,0.0,0.0,0.0,0.0,0.0,0.0,0.0,0.0,0.0,0.0,0.0152,0.0631,0.0,0.0,0.0,0.0,0.0,0.0,0.0,0.0,0.0,0.0,0.0,0.0,0.0,0.0,0.0,0.0,0.0,0.0,0.0,0.0,0.0,0.0,0.0,0.0,0.0,0.0,0.0,0.0,0.0,0.0,0.0,0.0,0.0,0.0,0.0,0.0,0.0,0.0,0.0,0.0,0.0,0.0,0.0,0.0,0.0,0.0,0.0,0.0,0.0,0.0,0.0,0.0,0.0,0.0,0.0,0.0,0.0,-0.4799,-0.5275,-0.5398,-0.5106,-0.4784,-0.4329,-0.373,-0.396,0.0,0.0,0.0,0.0,0.0,0.0,0.0,0.0,0.0,0.0,0.0,0.0,0.0,0.0,0.0,0.0,0.0,0.0,0.0,0.0,0.0,0.0,0.0,0.0,0.0,0.0,0.0,0.0,0.0,0.0,0.0,0.0,0.0,0.0,0.0,0.0,0.0,0.0,0.0,0.0,0.0,0.0,0.0,0.0,0.0,0.0,0.0,0.0,0.0127,0.0474,0.0953,0.1299,0.0,0.0,0.0,0.0,0.0,0.0,0.0,0.0,0.0,0.0,0.0,0.0,0.0,0.0,0.0,0.0,0.0,0.0,0.0,0.0,0.0,0.0,0.0,0.0,0.0,0.0,0.0,0.0,0.0,0.0,0.0,0.0,0.0,0.0,0.0,0.0,0.0,0.0,0.0,0.0,0.0,0.0,0.0,0.0,0.0,0.0,0.0,0.0,0.0,0.0,0.0,0.0,0.0,0.0,0.0,-0.4827,-0.5688,-0.5977,-0.5661,-0.5387,-0.5091,-0.4801,-0.4529,-0.4247,0.0,0.0,0.0,0.0,0.0,0.0,0.0,0.0,0.0,0.0,0.0,0.0,0.0,0.0,0.0,0.0,0.0,0.0,0.0,0.0,0.0,0.0,0.0,0.0,0.0,0.0,0.0,0.0,0.0,0.0,0.0,0.0,0.0,0.0,0.0,0.0,0.0,0.0,0.0,0.0,0.0,0.0,0.0,0.0,0.0,0.0,0.0,0.0011,0.0,0.1004,0.1577,0.1029,0.0,0.0,0.0,0.0,0.0,0.0,0.0,0.0,0.0,0.0,0.0,0.0,0.0,0.0,0.0,0.0,0.0,0.0,0.0,0.0,0.0,0.0,0.0,0.0,0.0,0.0,0.0,0.0,0.0,0.0,0.0,0.0,0.0,0.0,0.0,0.0,0.0,0.0,0.0,0.0,0.0,0.0,0.0,0.0,0.0,0.0,0.0,0.0,0.0,0.0,0.0,0.0,0.0,-0.4906,-0.5118,-0.5833,-0.614,-0.6014,-0.5903,-0.5418,-0.449,-0.4796,-0.4434,0.0,0.0,0.0,0.0,0.0,0.0,0.0,0.0,0.0,0.0,0.0,0.0,0.0,0.0,0.0,0.0,0.0,0.0,0.0,0.0,0.0,0.0,0.0,0.0,0.0,0.0,0.0,0.0,0.0129,0.0363,0.0788,0.0,0.0,0.0,0.0,0.0,0.0,0.0,0.0,0.0,0.0,0.0332,0.0,0.0,0.0,0.0,0.0,0.0,0.0,0.062,0.1107,0.1031,0.1746,0.0,0.0,0.0,0.0,0.0,0.0,0.0,0.0,0.0,0.0,0.0,0.0,0.0,0.0,0.0,0.0,0.0,0.0,0.0,0.0,0.0,0.0,0.0,0.0,0.0,0.0,0.0,0.0,0.0,0.0,0.0,0.0,0.0,0.0,0.0,0.0,0.0,0.0,0.0,0.0,0.0,0.0,0.0,0.0,0.0,0.0,0.0,0.0,0.0,0.0,0.0,0.0,-0.4989,-0.5404,-0.601,-0.636,-0.6433,-0.6285,-0.5763,-0.4852,-0.5204,-0.4745,0.0,0.0,0.0,0.0,0.0,0.0,0.0,0.0,0.0,0.0,0.0,0.0,0.0,0.0,0.0,0.0,0.0,0.0,0.0,0.0,0.0,0.0,0.0,0.0,0.0,0.0,0.0,0.0,0.0091,0.0382,0.0981,0.0,0.0,0.0,0.0,0.0,0.0,0.0,0.0,0.0,0.0,0.057,0.0,0.0,0.0,0.0,0.0,0.0,0.0,0.0432,0.0851,0.1123,0.0,0.0,0.0,0.0,0.0,0.0,0.0,0.0,0.0,0.0,0.0,0.0,0.0,0.0,0.0,0.0,0.0,0.0,0.0,0.0,0.0,0.0,0.0,0.0,0.0,0.0,0.0,0.0,0.0,0.0,-0.5122,0.0,0.0,0.0,0.0,0.0,0.0,0.0,0.0,0.0,0.0,0.0,0.0,0.0,0.0,0.0,0.0,0.0,0.0,0.0,0.0,0.0,0.0,-0.5095,-0.569,-0.6266,-0.67,-0.6961,-0.6488,-0.62,-0.6118,-0.5853,-0.521,-0.4173,0.0,0.0,0.0,0.0,0.0,0.0,0.0,0.0,0.0,0.0,0.0,0.0,0.0,0.0,0.0,0.0,0.0,0.0,0.0,0.0,0.0,0.0,0.0,0.0,0.0,0.0,0.0,0.0,0.0255,0.0,0.0,0.0,0.0,0.0,0.0,0.0,0.0,0.0,0.0,0.0983,0.0669,0.0,0.0,0.0,0.0,0.0,0.0,0.0,0.0498,0.099,0.0,0.0,0.0,0.0,0.0,0.0,0.0,0.0,0.0,0.0,0.0,0.0,0.0,0.0,0.0,0.0,0.0,0.0,0.0,0.0,0.0,0.0,0.0,0.0,0.0,0.0,0.0,-0.6739,-0.6432,0.0,0.0,0.0,0.0,0.0,0.0,0.0,0.0,0.0,0.0,0.0,-0.8952,-0.8779,0.0,0.0,0.0,0.0,0.0,0.0,0.0,0.0,0.0,0.0,0.0,0.0,-0.5093,-0.5696,-0.6302,-0.6734,-0.6976,-0.6831,-0.6562,-0.6211,-0.6253,-0.5641,-0.4235,0.0,0.0,0.0,0.0,0.0,0.0,0.0,0.0,0.0,0.0,0.0,0.0,0.0,0.0,0.0,0.0,0.0,0.0,0.0,0.0,0.0,0.0,0.0,0.0,0.0,0.0,0.0,0.0,0.0,0.0,0.0,0.0,0.0,0.0,0.0,0.0,0.0,0.2105,0.1337,0.131,0.1032,0.0122,0.0,0.0,0.0,0.0,0.0,0.0,0.0,0.0,0.0,0.0,0.0,0.0,0.0,0.0,0.0,0.0,0.7598,0.6581,0.6059,0.5765,0.5758,0.0,0.0,0.0,0.0,0.0,0.0,0.0,0.0,0.0,0.0,0.0,0.0,0.0,0.0,-0.7687,0.0,-0.7926,0.0,0.0,0.0,0.0,0.0,0.0,0.0,0.0,-0.9648,-1.0058,-1.0293,-1.0108,-0.9924,0.0,-0.8564,-0.729,0.0,0.0,0.0,0.0,0.0,0.0,0.0,0.0,-0.5415,-0.5994,-0.6298,-0.6639,-0.6972,-0.682,-0.6641,-0.6482,-0.6206,-0.557,-0.4463,-0.3274,-0.2495,0.0,0.0,0.0,0.0,0.0,0.0,0.0,0.0,0.0,0.0,0.0,0.0,0.0,0.0,0.0,0.0,0.0,0.0,0.0,0.0,0.0,0.0,0.0,0.0,0.0,0.0,0.0,0.0,0.0,0.0,0.0,0.0,0.0,0.2382,0.268,0.2546,0.1544,0.16,0.1316,0.0153,0.0,0.0,0.0,0.0,0.0,0.0,0.0,0.1554,0.216,0.261,0.3493,0.5185,0.6771,0.7844,0.7903,0.0,0.0,0.7348,0.6823,0.6481,0.6382,0.6571,0.6662,0.6412,0.6617,0.6777,0.0,0.0,0.0,0.0,0.0,0.0,0.0,0.0,-0.8637,-0.8716,0.0,-0.9016,0.0,0.0,0.0,0.0,0.0,-0.926,0.0,0.0,-1.1175,-1.1595,-1.1562,-1.1063,-1.0595,-1.0128,-0.9349,-0.8464,-0.7484,-0.6349,0.0,0.0,0.0,0.0,0.0,0.0,-0.6012,-0.655,-0.636,-0.6477,-0.6968,-0.6498,-0.6466,-0.694,-0.5787,-0.5062,-0.4855,-0.3614,-0.2781,-0.2525,-0.2323,0.0,0.0,0.0,0.0,0.0,0.0,0.0,0.0,0.0,0.0,0.0,0.0,0.0,0.0,0.0,0.0,0.0,0.0,0.0,0.0,0.0,0.0,0.0,0.0,0.0,0.0,0.0,0.0,0.0,0.0,0.0,0.2781,0.3068,0.2894,0.1763,0.0,0.0,0.0,0.0,0.1089,0.1117,0.1734,0.2172,0.2169,0.2195,0.2418,0.2993,0.0,0.0,0.552,0.6839,0.7736,0.7833,0.8112,0.8358,0.8255,0.8087,0.7903,0.7634,0.7551,0.7594,0.7609,0.7645,0.7821,-0.9305,0.0,0.0,0.0,0.0,-0.8819,-0.9337,-1.0864,-1.0718,-1.0593,-1.0474,-1.1046,0.0,0.0,0.0,0.0,0.0,0.0,-1.0771,-1.1233,-1.1478,-1.1751,-1.1999,-1.1576,-1.1452,-1.1567,-1.0696,-1.0021,-0.9481,-0.8289,-0.6837,-0.52,0.0,0.0,0.0,0.0,-0.6231,-0.659,-0.6709,-0.6859,-0.6989,-0.6838,-0.6838,-0.6989,-0.5858,-0.5178,-0.5042,-0.3848,-0.3067,-0.2791,-0.2635,0.0,0.0,0.0,0.0,0.0,0.0,0.0,0.0,0.0,0.0,0.0,0.0,0.0,0.0,0.0,0.0,0.0,0.0,0.0,0.0,0.0,0.0,0.0,0.0,0.0,0.0,0.0,0.0,0.0,0.0,0.0,0.3467,0.3581,0.3219,0.0,0.0,0.1703,0.0904,0.097,0.1301,0.1803,0.0,0.0,0.0,0.2557,0.2932,0.32,0.4144,0.5025,0.5504,0.6759,0.7543,0.7087,0.7486,0.7676,0.7011,0.7462,0.7875,0.7827,0.7802,0.7806,0.7827,0.7876,0.79,-1.0565,-1.0416,-0.9704,-0.972,-1.018,-0.9638,-1.0193,-1.1537,-1.1957,-1.2079,-1.1987,-1.2661,-1.2439,-1.1564,-1.1408,0.0,0.0,0.0,-1.2168,-1.259,-1.2578,-1.2637,-1.2691,-1.2473,-1.2295,-1.2159,-1.1413,-1.0783,-1.0301,-0.9342,-0.8001,-0.6381,0.0,0.0,-0.5836,-0.618,-0.6486,-0.6733,-0.6705,-0.6795,-0.6983,-0.6983,-0.6983,-0.6979,-0.613,-0.5514,-0.5168,-0.4249,-0.3526,-0.3084,-0.2937,-0.2591,0.0,0.0,0.0,0.0,0.0,0.0,0.0,0.0,0.0,0.0,0.0,0.0,0.0,0.0,0.0,0.0,0.0,0.0,0.0,0.0226,0.0,0.0,0.0,0.0,0.0,0.0,0.0,0.3077,0.3412,0.3703,0.3848,0.3994,0.3668,0.2579,0.248,0.2269,0.1625,0.0,0.2167,0.2608,0.2929,0.3113,0.3105,0.3407,0.3693,0.3765,0.4477,0.5191,0.5487,0.6276,0.674,0.6691,0.6966,0.7066,0.6468,0.6945,0.7295,0.7128,0.7164,0.723,0.723,0.753,0.7822,-1.2023,-1.2388,-1.0761,-1.0085,-1.0087,-1.074,-1.1121,-1.1373,-1.2711,-1.3282,-1.3314,-1.3932,-1.3945,-1.3525,-1.3154,0.0,-1.3529,-1.3555,-1.3727,-1.4091,-1.41,-1.3886,-1.3542,-1.3542,-1.312,-1.2348,-1.1825,-1.1158,-1.0412,-0.978,-0.8973,-0.8014,-0.7125,-0.6697,-0.6677,-0.668,-0.682,-0.7033,-0.6567,-0.6544,-0.6979,-0.6983,-0.6983,-0.6983,-0.6488,-0.5916,-0.5324,-0.4713,-0.4068,-0.3371,-0.3192,-0.2856,-0.2304,0.0,0.0,0.0,0.0,0.0,0.0,0.0,0.0,0.0,0.0,0.0,0.0,0.0,0.0,0.0,0.0,0.0,0.0055,0.0578,0.0,0.0,0.0,0.245,0.2278,0.2946,0.3361,0.3202,0.0,0.0,0.404,0.0,0.4177,0.3332,0.3271,0.3051,0.2386,0.2893,0.3431,0.3481,0.4061,0.4487,0.441,0.4455,0.4472,0.4479,0.4525,0.479,0.5323,0.5578,0.584,0.6284,0.6498,0.6498,0.6466,0.6416,0.6326,0.5847,0.6053,0.628,0.6368,0.6996,0.7551,-1.3887,-1.3819,-1.3389,-1.3067,-1.2787,-1.2266,-1.2931,-1.4404,-1.478,-1.4901,-1.4864,-1.5022,-1.4669,-1.3948,-1.3864,-1.386,-1.3958,-1.3958,-1.4007,-1.4104,-1.41,-1.4055,-1.3958,-1.3958,-1.3851,-1.3633,-1.3211,-1.2644,-1.1922,-1.073,-0.9786,-0.9019,-0.8084,-0.7484,-0.7296,-0.7495,-0.7517,-0.7383,-0.7262,-0.7128,-0.6996,-0.6983,-0.6983,-0.6989,-0.6477,-0.5922,-0.5314,-0.4707,-0.4124,-0.3564,-0.3347,-0.3149,-0.2884,-0.2283,0.0,0.0,0.0,0.0,0.0,0.0,0.0,0.0,0.0,0.0,0.0,0.0,0.0,0.0,0.0,0.0191,0.0631,0.0904,0.0,0.0,0.2314,0.2796,0.275,0.3316,0.3773,0.3921,0.4056,0.422,0.4355,0.4443,0.4408,0.4191,0.3651,0.3245,0.3074,0.3214,0.3652,0.4243,0.4518,0.4691,0.4775,0.4798,0.4802,0.4809,0.4806,0.4869,0.5025,0.5525,0.5775,0.5455,0.578,0.5893,0.5432,0.5296,0.5284,0.519,0.5855,0.6503,0.6508,0.6688,0.6858,-1.5348,-1.554,-1.4942,-1.5076,-1.5566,-1.4306,-1.4426,-1.5498,-1.587,-1.6015,-1.5991,-1.5981,-1.5703,-1.525,-1.5264,-1.5157,-1.5,-1.499,-1.4869,-1.4679,-1.4679,-1.4586,-1.441,-1.441,-1.4289,-1.4094,-1.3883,-1.3417,-1.2733,-1.1494,-1.0544,-0.9869,-0.8829,-0.8237,-0.8094,-0.7971,-0.7831,-0.7687,-0.7569,-0.7421,-0.7232,-0.7066,-0.7077,-0.7221,-0.6939,-0.6496,-0.5897,-0.5305,-0.4668,-0.3997,-0.3623,-0.336,-0.3175,-0.2752,-0.2297,0.0,0.0,0.0,0.0,0.0,0.0,0.0,0.0,0.0,0.0,0.0,0.0,0.0,0.0,0.0246,0.0845,0.1252,0.1718,0.2227,0.3002,0.3453,0.3405,0.3731,0.4023,0.4096,0.4167,0.424,0.4372,0.4494,0.4593,0.4593,0.4262,0.4001,0.3951,0.3995,0.4243,0.472,0.4792,0.4804,0.4881,0.4918,0.4918,0.4918,0.4918,0.4918,0.4918,0.5233,0.5366,0.5024,0.523,0.5396,0.4975,0.4918,0.4918,0.4985,0.5398,0.5792,0.5851,0.6089,0.6341,-1.6727,-1.7361,-1.6207,-1.6668,-1.8054,-1.6609,-1.5907,-1.5873,-1.6571,-1.6833,-1.6775,-1.6726,-1.6697,-1.6697,-1.6697,-1.6498,-1.6193,-1.6173,-1.5953,-1.5571,-1.5503,-1.5303,-1.4965,-1.4921,-1.4668,-1.428,-1.4221,-1.3895,-1.3296,-1.2244,-1.1365,-1.0651,-0.9548,-0.8964,-0.8824,-0.8304,-0.7999,-0.7959,-0.7682,-0.7544,-0.7556,-0.7268,-0.7268,-0.7531,-0.7522,-0.7204,-0.6617,-0.6003,-0.5297,-0.4481,-0.3917,-0.3565,-0.337,-0.3216,-0.2803,0.0,-0.1848,0.0,0.0,0.0,0.0,0.0,0.0,0.0,0.0,0.0,0.0,0.0,0.0,0.0246,0.0838,0.1579,0.2271,0.2852,0.3697,0.4177,0.4035,0.4159,0.4147,0.3948,0.4013,0.4061,0.3936,0.4193,0.4364,0.4271,0.4327,0.4291,0.4415,0.4597,0.4813,0.4801,0.4885,0.4953,0.4798,0.4865,0.4992,0.4986,0.4999,0.4975,0.4996,0.4989,0.4982,0.497,0.5015,0.5004,0.4975,0.4967,0.497,0.4996,0.5059,0.5062,0.5041,0.5427,0.5831,-1.8751,-1.886,-1.8629,-1.8745,-1.9033,-1.8715,-1.8189,-1.7535,-1.7696,-1.7578,-1.7236,-1.6863,-1.6697,-1.6697,-1.6697,-1.6658,-1.6586,-1.658,-1.6531,-1.6434,-1.6128,-1.5928,-1.5831,-1.5459,-1.5239,-1.5142,-1.4814,-1.4603,-1.4445,-1.3355,-1.2416,-1.1613,-1.0653,-0.982,-0.9138,0.0,0.0,0.0,-0.7996,-0.7819,-0.7831,-0.7754,-0.7747,-0.7824,-0.7607,0.0,-0.6628,-0.5928,-0.5266,-0.4664,-0.4189,0.0,0.0,0.0,0.0,0.0,0.0,0.0,0.0,0.0,0.0,0.0,-0.001,0.0,0.0,0.0,0.0,0.0,0.0,0.0248,0.0852,0.167,0.236,0.2876,0.3832,0.4365,0.419,0.4308,0.4198,0.352,0.345,0.3235,0.2736,0.2649,0.2692,0.2789,0.2845,0.2937,0.2939,0.4013,0.4608,0.4194,0.4627,0.4935,0.4265,0.4785,0.5201,0.531,0.5294,0.5303,0.5277,0.5283,0.5303,0.5296,0.5294,0.5303,0.5287,0.5294,0.5273,0.5306,0.5303,0.5222,0.4972,0.5009,0.5097,-1.959,0.0,-1.9393,-1.9277,0.0,-1.9277,-1.9061,-1.8623,-1.8391,-1.8086,-1.7692,-1.7444,-1.7347,-1.7347,-1.7347,-1.723,-1.7061,-1.7035,-1.6918,-1.6697,-1.6488,-1.6396,-1.6392,-1.5953,-1.5757,-1.5713,-1.5293,-1.5098,-1.504,-1.3979,-1.3245,-1.2826,-1.1404,-1.0477,-1.003,-0.9357,-0.8865,-0.8591,-0.8309,-0.8289,-0.8608,-0.8164,-0.8065,-0.8363,0.0,0.0,0.0,0.0,0.0,0.0,0.0,0.0,0.0,0.0,0.0,-0.2493,-0.2223,-0.1675,-0.0763,-0.0917,-0.0939,-0.0571,-0.0548,-0.0394,-0.0032,0.0,0.0,0.0,0.0,0.0247,0.0843,0.1351,0.1882,0.2413,0.3001,0.3312,0.3241,0.3295,0.319,0.2849,0.2761,0.2593,0.2249,0.2297,0.2353,0.2359,0.2497,0.2409,0.2113,0.2994,0.3629,0.3317,0.3657,0.4065,0.4048,0.435,0.4921,0.5243,0.5395,0.5395,0.5395,0.5395,0.5395,0.5395,0.5395,0.5395,0.5395,0.5395,0.5395,0.5395,0.5395,0.5358,0.5181,0.5154,0.5151,-2.001,-2.0,-1.9658,-1.953,-1.953,-1.953,-1.9491,-1.9365,0.0,0.0,0.0,-1.8232,-1.8176,-1.8108,-1.8108,-1.7891,-1.751,-1.7516,-1.7305,-1.6931,-1.6859,-1.683,-1.681,-1.6412,-1.6197,-1.6183,-1.5732,-1.5527,-1.5478,-1.4557,-1.4008,-1.3733,-1.2198,-1.1329,-1.1047,-0.9897,-0.9322,-0.9359,-0.8901,-0.8928,-0.9435,-0.8776,-0.8623,-0.9042,-0.849,-0.8012,-0.7676,-0.7187,-0.6523,-0.5679,-0.5226,-0.4639,-0.3931,-0.3873,-0.354,-0.2839,-0.2878,-0.2403,-0.1238,-0.1791,-0.1944,-0.1322,-0.1165,-0.0783,0.0,0.0,0.0,0.0,0.0,0.0194,0.0707,0.0966,0.1296,0.179,0.2054,0.221,0.2206,0.2202,0.2223,0.2049,0.2004,0.1936,0.1784,0.1878,0.2057,0.2063,0.1996,0.1993,0.1391,0.1886,0.2498,0.2453,0.2724,0.2995,0.3328,0.368,0.4115,0.4904,0.509,0.5193,0.5359,0.5395,0.5395,0.5395,0.5395,0.5395,0.5395,0.5395,0.5395,0.5395,0.5395,0.5395,0.5395,0.5392,0.5382,-2.0488,-2.0507,-2.0429,-2.0429,-2.0419,-2.0419,-2.0185,-1.9795,-1.9385,-1.9178,-1.9111,-1.9129,-1.8896,-1.851,-1.852,-1.8286,-1.7913,-1.7903,-1.7891,0.0,-1.7461,-1.7295,-1.7266,-1.6846,-1.6609,-1.657,-1.6182,-1.6007,-1.5943,-1.5449,-1.4833,-1.4175,-1.3634,-1.2896,-1.1874,-1.0415,-1.03,-1.1569,-1.0285,-0.9644,-0.9746,-1.0157,-1.0158,-0.9677,-0.9353,-0.8906,-0.8287,-0.7028,-0.6258,-0.6094,-0.5148,-0.4438,-0.4166,-0.414,-0.3805,-0.3119,-0.3062,-0.2748,-0.2066,-0.2155,-0.2156,-0.2027,-0.1463,-0.0792,0.0,0.0,0.0,0.0,0.0,0.0028,0.0164,0.0705,0.1095,0.1234,0.1798,0.2188,0.2121,0.2105,0.1883,0.1343,0.126,0.1008,0.0546,0.0,0.0,0.0,0.0,0.0,0.0,0.0923,0.1441,0.1608,0.2209,0.236,0.2108,0.241,0.3161,0.4065,0.4201,0.447,0.5173,0.5359,0.5395,0.5395,0.5395,0.5395,0.5395,0.5395,0.5395,0.5395,0.5359,0.5312,0.5292,0.5276,0.5309,-2.0723,-2.0889,-2.0684,-2.0596,-2.0596,-2.0596,-2.0468,-2.0273,-2.0077,-1.9726,-1.9297,-1.9277,-1.917,-1.8994,-1.8984,-1.8869,-1.8691,-1.8449,-1.8325,-1.8303,-1.7893,-1.7725,-1.7676,-1.7295,-1.7064,-1.7051,-1.6625,-1.641,-1.6391,-1.6205,-1.5799,-1.5204,-1.4407,-1.3532,-1.2587,-1.1715,-1.1635,-1.2316,-1.1063,-1.068,-1.1239,-1.1209,-1.1018,-1.0664,-0.9875,-0.9173,-0.8673,-0.7841,-0.7203,-0.6803,-0.6051,-0.5389,-0.4827,-0.4413,-0.401,-0.362,-0.3668,-0.3399,-0.2723,-0.2857,-0.2968,-0.2944,-0.2717,-0.2242,-0.1526,-0.0565,0.0,0.0,0.0,0.0,0.0,0.0308,0.0509,0.0509,0.0816,0.0992,0.1007,0.1009,0.0873,0.0565,0.0507,0.038,0.005,0.0,0.0,0.0,0.0,0.0,0.0,0.0,0.0,0.0622,0.0974,0.1259,0.1274,0.1625,0.2292,0.3145,0.3297,0.3682,0.4486,0.4974,0.5345,0.5395,0.5379,0.5395,0.5379,0.5395,0.5395,0.5342,0.4921,0.4702,0.4602,0.4301,0.4301,-2.1055,-2.1318,-2.1035,-2.085,-2.0732,-2.0732,-2.0674,-2.0596,-2.0586,-2.0233,-1.9647,-1.9599,-1.954,-1.9424,-1.9434,-1.9393,-1.9248,-1.8918,-1.8744,-1.8705,-1.8332,-1.8137,-1.8088,-1.7725,-1.7529,-1.748,-1.709,-1.6869,-1.6843,-1.6746,-1.6547,-1.6115,-1.4981,-1.4129,-1.3696,-1.3031,-1.2861,-1.3127,-1.2161,-1.1972,-1.2581,-1.2272,-1.1999,-1.1709,-1.0619,-0.9788,-0.9362,-0.8773,-0.8189,-0.7612,-0.7079,-0.6494,-0.5828,-0.5066,-0.4609,-0.4505,-0.4398,-0.4113,-0.3597,-0.3743,-0.3895,-0.3898,-0.3828,-0.3568,-0.2901,-0.1314,-0.0298,-0.0281,0.0,0.0,0.0,0.0,0.0,0.0,0.0,0.0,0.0,0.0,0.0,0.0,0.0,0.0,0.0,0.0,0.0,0.0,0.0,0.0,0.0,0.0,0.0,0.0,0.0,0.0,0.089,0.099,0.1391,0.221,0.2377,0.2778,0.3537,0.4442,0.4802,0.4715,0.456,0.4627,0.4923,0.5057,0.5024,0.4941,0.4495,0.4004,0.3713,0.3281,0.3133,-2.1798,-2.1847,-2.1778,-2.1533,-2.1171,-2.1152,-2.0947,-2.0664,-2.0596,-2.0576,-2.0488,-2.0478,-2.0234,-1.9883,-1.9835,-1.9658,-1.9354,-1.9266,-1.9219,-1.918,-1.8744,-1.8549,-1.851,-1.8144,-1.7949,-1.79,-1.7519,-1.7341,-1.7295,-1.6902,-1.6671,-1.6511,-1.543,-1.517,-1.5524,-1.3935,-1.3697,-1.508,-1.4315,-1.362,-1.3114,-1.3582,-1.3548,-1.2937,-1.2121,-1.1366,-1.0676,-0.9341,-0.8555,-0.843,-0.7799,-0.7376,-0.7213,-0.6478,-0.5996,-0.5927,-0.5247,-0.4782,-0.473,-0.4756,-0.4743,-0.4741,-0.4179,-0.3832,-0.3644,-0.2174,-0.1185,-0.1081,-0.0482,0.0,0.0,0.0,0.0,0.0,0.0,0.0,0.0,0.0,0.0,0.0,0.0,0.0,0.0,0.0,0.0,0.0,0.0,0.0,0.0,0.0,0.0,0.0,0.0,0.0,0.0,0.0,0.0,0.1264,0.1444,0.1854,0.2614,0.3273,0.365,0.3494,0.2735,0.2925,0.3758,0.4132,0.4133,0.4108,0.39,0.3654,0.3047,0.2595,0.2697,-2.2031,-2.2227,-2.1992,-2.1808,-2.1631,-2.1601,-2.1544,-2.1378,-2.1368,-2.1368,-2.1368,-2.1368,-2.0977,-2.0322,-2.0322,-2.0224,-2.0048,-1.9785,-1.9658,-1.9619,-1.9201,-1.9023,-1.8957,-1.8566,-1.8344,-1.8322,-1.7959,-1.7771,-1.7686,-1.7308,-1.7119,-1.7054,-1.6338,-1.6143,-1.6383,-1.562,-1.5413,-1.5771,-1.5492,-1.5023,-1.4535,-1.4486,-1.4262,-1.368,-1.2982,-1.2263,-1.1489,-1.0493,-0.9754,-0.9245,-0.8557,-0.8148,-0.8148,-0.6923,-0.619,-0.6149,-0.5381,-0.4918,-0.4918,-0.4977,-0.5012,-0.5012,-0.4858,-0.4752,-0.4706,-0.359,-0.2696,-0.2049,-0.0843,0.0,0.0,0.0,0.0,0.0,0.0,0.0,0.0,0.0,0.0,0.0,0.0,0.0,0.0,0.0,0.0,0.0,0.0,0.0,0.0,0.0,0.0,0.0,0.0,0.0,0.0,0.0,0.0,0.0,0.0546,0.0863,0.167,0.221,0.252,0.2597,0.2089,0.2062,0.3055,0.3213,0.3215,0.3166,0.2626,0.2154,0.1288,0.1118,0.1103,-2.2402,-2.2596,-2.2344,-2.2158,-2.206,-2.2081,-2.1992,-2.1915,-2.1915,-2.1915,-2.1915,-2.1915,-2.1563,-2.1006,-2.082,-2.0713,-2.0576,-2.0253,-2.0098,-2.0039,-1.9648,-1.9463,-1.9432,-1.9005,-1.8801,-1.8752,-1.8498,-1.8293,-1.8137,-1.7764,-1.7565,-1.749,-1.7113,-1.6898,-1.6863,-1.6775,-1.6566,-1.6304,-1.6256,-1.605,-1.5591,-1.5307,-1.4932,-1.4449,-1.3761,-1.3025,-1.2228,-1.1525,-1.0777,-0.9994,-0.9415,-0.9146,-0.9086,-0.7811,-0.6942,-0.6651,-0.5879,-0.5406,-0.5375,-0.5258,-0.518,-0.5187,-0.5317,-0.5395,-0.5249,-0.4584,-0.3672,-0.2712,-0.1316,0.0,0.0,0.0,0.0,0.0,0.0,0.0,0.0,0.0,0.0,0.0,0.0,0.0,0.0,0.0,0.0,0.0,0.0,0.0,0.0,0.0,0.0,0.0,0.0,0.0,0.0,0.0,0.0,0.0,0.0,0.029,0.082,0.1153,0.1342,0.1383,0.1355,0.1607,0.2137,0.2293,0.2317,0.2142,0.1634,0.0904,0.0374,0.0,0.0,-2.3074,-2.3062,-2.3042,-2.2779,-2.249,-2.249,-2.2266,-2.2003,-2.1954,-2.1935,-2.1974,-2.1964,-2.1896,-2.1768,-2.1386,-2.0977,-2.0654,-2.0595,-2.0556,-2.0478,-2.0078,-1.9874,-1.9853,-1.9463,-1.9258,-1.9258,-1.916,-1.8955,-1.8568,-1.8176,-1.7971,-1.7932,-1.7559,-1.737,-1.7321,-1.6986,-1.6707,-1.6677,-1.6683,-1.6484,-1.6109,-1.6046,-1.5796,-1.5328,-1.4569,-1.377,-1.2948,-1.2173,-1.1395,-1.0593,-1.045,-1.0441,-1.0384,-0.9587,-0.8665,-0.789,-0.7087,-0.6587,-0.6461,-0.586,-0.5424,-0.5385,-0.5402,-0.5422,-0.5413,-0.4765,-0.3933,-0.282,-0.2131,-0.1257,0.0,0.0,0.0,0.0,0.0,0.0,0.0,0.0,0.0,0.0,0.0,0.0,0.0,0.0,0.0,0.0,0.0,0.0,0.0,0.0,0.0,0.0,0.0,0.0,0.0,0.0,0.0,0.0,0.0,0.0,0.0,0.0074,0.0,0.0,0.0,0.0,0.0,0.1372,0.137,0.1176,0.0753,0.0152,0.0,0.0,0.0,-2.3101,-2.3101,-2.3101,-2.3025,-2.2898,-2.2888,-2.2801,-2.2674,-2.2685,-2.2664,-2.2664,-2.2664,-2.2539,-2.2275,-2.2098,-2.164,-2.1005,-2.0986,-2.084,-2.0615,-2.042,-2.0351,-2.0283,-1.9893,-1.9687,-1.9658,-1.9432,-1.9209,-1.9033,-1.8605,-1.8373,-1.8322,-1.7981,-1.7783,-1.7744,-1.7637,-1.7405,-1.7178,-1.7148,-1.6934,-1.6543,-1.6479,-1.6391,-1.621,-1.5426,-1.4347,-1.3039,-1.2726,-1.1981,-1.0649,-1.0586,-1.0586,-1.0507,-0.9786,-0.8909,-0.8091,-0.7718,-0.7291,-0.6752,-0.6433,-0.6012,-0.5583,-0.5525,-0.5579,-0.5592,-0.5371,-0.4844,-0.4011,-0.3654,-0.2797,-0.13,-0.0425,0.0,0.0,0.0,0.0,0.0,0.0,0.0,0.0,0.0,0.0,0.0,0.0,0.0,0.0,0.0,0.0,0.0,0.0,0.0,0.0,0.0,0.0,0.0,0.0,0.0,0.0,0.0,0.0,0.0,0.0,0.0,0.0,0.0,0.0,0.0,0.0,0.0,0.0,0.0,0.0,0.0,0.0,0.0,-2.3101,-2.3101,-2.3101,-2.3101,-2.3101,-2.3101,-2.3101,-2.3101,-2.3101,-2.3101,-2.3101,-2.3101,-2.2957,-2.2723,-2.2693,-2.2323,-2.1659,-2.1493,-2.1279,-2.1036,-2.0889,-2.0801,-2.0732,-2.0332,-2.0117,-2.0059,-1.9697,-1.9492,-1.9452,-1.9035,-1.8812,-1.8801,-1.841,-1.8196,-1.8176,-1.8069,-1.7835,-1.7627,-1.7588,-1.7373,-1.6986,-1.6927,-1.6833,-1.6638,-1.6112,-1.5043,-1.3449,-1.3355,-1.2569,-1.1129,-1.0764,-1.0677,-1.055,-1.0113,-0.9602,-0.9032,-0.8706,-0.835,-0.781,-0.7251,-0.6691,-0.6194,-0.585,-0.5705,-0.5796,-0.5826,-0.5392,-0.4773,-0.4536,-0.3826,-0.2454,-0.1433,-0.0743,0.0,0.0,0.0,0.0,0.0,0.0,0.0,0.0,0.0,0.0,0.0,0.0,0.0,0.0,0.0,0.0,0.0,0.0,0.0,0.0,0.0,0.0,0.0,0.0,0.0,0.0,0.0,0.0,0.0,0.0,0.0,0.0,0.0,0.0,0.0,0.0,0.0,0.0,0.0,0.0,0.0,0.0,-2.3101,-2.3101,-2.3101,-2.3101,-2.3101,-2.3101,-2.3101,-2.3101,-2.3101,-2.3101,-2.3101,-2.3101,-2.3071,-2.3062,-2.3023,-2.284,-2.243,-2.2109,-2.1875,-2.1759,-2.1406,-2.12,-2.1191,-2.0801,-2.0556,-2.0527,-2.0117,-1.9922,-1.9893,-1.9502,-1.9287,-1.9209,-1.8822,-1.8607,-1.8607,-1.8264,-1.803,-1.7991,-1.7961,-1.7757,-1.7458,-1.7399,-1.7217,-1.6843,-1.6742,-1.5898,-1.4197,-1.4065,-1.3168,-1.1567,-1.1136,-1.0868,-1.074,-1.0774,-1.0929,-1.0692,-1.0155,-0.9857,-0.9731,-0.8381,-0.7539,-0.7216,-0.6455,-0.5978,-0.6067,-0.6018,-0.565,-0.4946,-0.4751,-0.4315,-0.3416,-0.3026,-0.2195,0.0,0.0,0.0,0.0,0.0,0.0,0.0,0.0,0.0,0.0,0.0,0.0,0.0,0.0,0.0,0.0,0.0,0.0,0.0,0.0,0.0,0.0,0.0,0.0,0.0,0.0,0.0,0.0,0.0,0.0,0.0,0.0,0.0,0.0,0.0,0.0,0.0,0.0,0.0,0.0,0.0,0.0,-2.3101,-2.3101,-2.3101,-2.3101,-2.3101,-2.3101,-2.3101,-2.3101,-2.3101,-2.3101,-2.3101,-2.3101,-2.3101,-2.3101,-2.3101,-2.3023,-2.2918,-2.2771,-2.2451,-2.1953,-2.1758,-2.168,-2.1592,-2.123,-2.0869,-2.0605,-2.0449,-2.0381,-2.0293,-1.9922,-1.9698,-1.962,-1.9297,-1.9102,-1.9062,-1.8654,-1.842,-1.8364,-1.8137,-1.7913,-1.7812,-1.7812,-1.7718,-1.762,-1.7601,-1.6741,-1.499,-1.4371,-1.3219,-1.1488,-1.1302,-1.1232,-1.1172,-1.1226,-1.1255,-1.1255,-1.1046,-1.0588,-1.0112,-0.9585,-0.8958,-0.847,-0.757,-0.7114,-0.7046,-0.6582,-0.6119,-0.5755,-0.5764,-0.5354,-0.4472,-0.4198,-0.3307,-0.1318,-0.1105,-0.0737,0.0,0.0,0.0,0.0,0.0,0.0,0.0,0.0,0.0,0.0,0.0,0.0,0.0,0.0,0.0,0.0,0.0,0.0,0.0,0.0,0.0,0.0,0.0,0.0,0.0,0.0,0.0,0.0,0.0,0.0,0.0,0.0,0.0,0.0,0.0,0.0,0.0,0.0,0.0,-2.3101,-2.3101,-2.3101,-2.3101,-2.3101,-2.3101,-2.3101,-2.3101,-2.3101,-2.3101,-2.3101,-2.3101,-2.3101,-2.3101,-2.3101,-2.3101,-2.3101,-2.3101,-2.284,-2.2373,-2.2168,-2.2119,-2.206,-2.168,-2.122,-2.0889,-2.081,-2.0742,-2.0595,-2.0312,-2.0175,-2.0107,-1.9736,-1.954,-1.9501,-1.9093,-1.8859,-1.8838,-1.8633,-1.8408,-1.8254,-1.8225,-1.8157,-1.802,-1.8008,-1.7044,-1.536,-1.4743,-1.3668,-1.2112,-1.1733,-1.1646,-1.1452,-1.1499,-1.159,-1.159,-1.1562,-1.1368,-1.0935,-1.0563,-1.0205,-0.9637,-0.8764,-0.8239,-0.8153,-0.7442,-0.6888,-0.6853,-0.647,-0.6025,-0.5431,-0.5295,-0.4494,-0.2952,-0.1995,-0.1195,0.0,0.0,0.0,0.0,0.0,0.0,0.0,0.0,0.0,0.0,0.0,0.0,0.0,0.0,0.0,0.0,0.0,0.0,0.0,0.0,0.0,0.0,0.0,0.0,0.0,0.0,0.0,0.0,0.0,0.0,0.0,0.0,0.0,0.0,0.0,0.0,0.0,0.0,0.0,-2.3101,-2.3101,-2.3101,-2.3101,-2.3101,-2.3101,-2.3101,-2.3101,-2.3101,-2.3101,-2.3101,-2.3101,-2.3101,-2.3101,-2.3101,-2.3101,-2.3101,-2.3091,-2.3093,-2.2927,-2.2715,-2.2519,-2.2393,-2.207,-2.1689,-2.1298,-2.1249,-2.1054,-2.084,-2.0674,-2.0635,-2.0576,-2.0185,-1.9932,-1.9873,-1.955,-1.9335,-1.9316,-1.9248,-1.9004,-1.8674,-1.8637,-1.8508,-1.8174,-1.8139,-1.7377,-1.5909,-1.5244,-1.4212,-1.2586,-1.2225,-1.1986,-1.1633,-1.1744,-1.1908,-1.1908,-1.1933,-1.2035,-1.1991,-1.1414,-1.0947,-1.0798,-0.9964,-0.9372,-0.9258,-0.8485,-0.7783,-0.7614,-0.6965,-0.6393,-0.6257,-0.6161,-0.5609,-0.4627,-0.2913,-0.1488,-0.0431,0.0,0.0,0.0,0.0,0.0,0.0,0.0,0.0,0.0,0.0,0.0,0.0,0.0,0.0,0.0,0.0,0.0,0.0,0.0,0.0,0.0,0.0,0.0,0.0,0.0,0.0,0.0,0.0,0.0,0.0,0.0,0.0,0.0,0.0,0.0,0.0,0.0,0.0,-2.3101,-2.3101,-2.3101,-2.3101,-2.3101,-2.3101,-2.3101,-2.3101,-2.3101,-2.3101,-2.3101,-2.3101,-2.3101,-2.3101,-2.3101,-2.3101,-2.3101,-2.3101,-2.3101,-2.3081,-2.3025,-2.2762,-2.2559,-2.2391,-2.2129,-2.1768,-2.1709,-2.1671,-2.1534,-2.1191,-2.1064,-2.1025,-2.0644,-2.0429,-2.0351,-1.9999,-1.9747,-1.9697,-1.9434,-1.9286,-1.915,-1.9121,-1.9072,-1.8984,-1.8926,-1.8322,-1.7102,-1.5683,-1.4115,-1.2498,-1.2305,-1.2245,-1.2053,-1.2124,-1.2183,-1.2164,-1.2178,-1.2204,-1.2223,-1.204,-1.1885,-1.183,-1.0968,-1.0415,-1.0372,-0.948,-0.8637,-0.8012,-0.7499,-0.7092,-0.6516,-0.6313,-0.5799,-0.4766,-0.361,-0.2628,-0.2271,-0.2287,-0.2286,-0.2287,-0.2213,-0.2139,-0.201,-0.1633,-0.1227,-0.121,-0.1281,-0.1333,-0.1413,-0.1874,-0.2045,-0.2481,0.0,0.0,0.0,0.0,0.0,0.0,0.0,0.0,0.0,0.0,0.0,0.0,0.0,0.0,0.0,0.0,0.0,0.0,0.0,0.0,0.0,0.0,0.0,-2.3101,-2.3101,-2.3101,-2.3101,-2.3101,-2.3101,-2.3101,-2.3101,-2.3101,-2.3101,-2.3101,-2.3101,-2.3101,-2.3101,-2.3101,-2.3101,-2.3101,-2.3101,-2.3101,-2.3101,-2.3081,-2.2976,-2.2801,-2.2752,-2.2559,-2.2187,-2.2158,-2.2041,-2.1865,-2.1601,-2.1503,-2.1454,-2.125,-2.1055,-2.083,-2.0625,-2.0352,-2.0185,-1.9941,-1.9765,-1.957,-1.9569,-1.9442,-1.9354,-1.9241,-1.8719,-1.7169,-1.5211,-1.3591,-1.2743,-1.2504,-1.2457,-1.2318,-1.2305,-1.2305,-1.2305,-1.2305,-1.2305,-1.2305,-1.2305,-1.2365,-1.2402,-1.1891,-1.1765,-1.1624,-1.0912,-0.9944,-0.9628,-0.8694,-0.7833,-0.7268,-0.6779,-0.6221,-0.5665,-0.4966,-0.4205,-0.3376,-0.3115,-0.3228,-0.3267,-0.3299,-0.3319,-0.3319,-0.2795,-0.2545,-0.2452,-0.2508,-0.2543,-0.2613,-0.3291,-0.375,-0.3909,-0.3879,-0.3631,-0.3527,-0.3527,-0.3484,-0.3507,-0.329,-0.2115,0.0,0.0,0.0,0.0,0.0,0.0,0.0,0.0,0.0,0.0,0.0,0.0,0.0,0.0,0.0,-2.3101,-2.3101,-2.3101,-2.3101,-2.3101,-2.3101,-2.3101,-2.3101,-2.3101,-2.3101,-2.3101,-2.3101,-2.3101,-2.3101,-2.3101,-2.3101,-2.3101,-2.3101,-2.3101,-2.3101,-2.3101,-2.3052,-2.3033,-2.3013,-2.2859,-2.2607,-2.2547,-2.2381,-2.2187,-2.2031,-2.1953,-2.1904,-2.1865,-2.165,-2.1308,-2.1191,-2.1006,-2.0693,-2.0498,-2.0283,-2.0039,-1.9971,-1.9853,-1.961,-1.9264,-1.8358,-1.6604,-1.4756,-1.3416,-1.2924,-1.2851,-1.2698,-1.2458,-1.2406,-1.2432,-1.2552,-1.2672,-1.2782,-1.2716,-1.2975,-1.2912,-1.3125,-1.3092,-1.2996,-1.287,-1.218,-1.1607,-1.1224,-0.9822,-0.8898,-0.809,-0.7347,-0.6723,-0.6438,-0.6503,-0.5629,-0.4279,-0.364,-0.3708,-0.3902,-0.3974,-0.3936,-0.3899,-0.3821,-0.3722,-0.3642,-0.371,-0.3765,-0.3947,-0.4486,-0.4672,-0.4638,-0.4494,-0.4255,-0.4212,-0.4214,-0.4138,-0.4116,-0.4112,-0.3285,-0.1724,0.0,0.0,0.0,0.0,0.0,0.0,0.0,0.0,0.0,0.0,0.0,0.0,0.0,0.0,-2.3101,-2.3101,-2.3101,-2.3101,-2.3101,-2.3101,-2.3101,-2.3101,-2.3101,-2.3101,-2.3101,-2.3101,-2.3101,-2.3101,-2.3101,-2.3101,-2.3101,-2.3101,-2.3101,-2.3101,-2.3101,-2.3101,-2.3101,-2.3101,-2.3042,-2.2925,-2.2976,-2.2918,-2.2771,-2.251,-2.2373,-2.2323,-2.2129,-2.1855,-2.1748,-2.1445,-2.1171,-2.1025,-2.0791,-2.0576,-2.0488,-2.041,-2.0351,-2.0177,-1.9485,-1.8414,-1.7194,-1.584,-1.4642,-1.3709,-1.3247,-1.3086,-1.296,-1.2959,-1.2991,-1.3204,-1.3782,-1.4191,-1.4378,-1.482,-1.5128,-1.4429,-1.426,-1.4018,-1.3239,-1.3068,-1.2478,-1.1908,-1.1209,-1.0156,-0.8732,-0.7422,-0.6975,-0.6906,-0.6774,-0.6585,-0.6171,-0.5963,-0.5806,-0.5886,-0.588,-0.601,-0.5919,-0.5122,-0.4929,-0.4839,-0.488,-0.4983,-0.5282,-0.5638,-0.5673,-0.558,-0.5668,-0.5557,-0.5484,-0.5454,-0.5326,-0.5218,-0.5116,-0.4966,-0.3396,-0.2135,-0.1914,-0.1257,0.0,0.0,0.0,0.0,0.0,0.0,0.0,0.0,0.0,0.0,0.0,-2.3101,-2.3101,-2.3101,-2.3101,-2.3101,-2.3101,-2.3101,-2.3101,-2.3101,-2.3101,-2.3101,-2.3101,-2.3101,-2.3101,-2.3101,-2.3101,-2.3101,-2.3101,-2.3101,-2.3101,-2.3101,-2.3101,-2.3101,-2.3101,-2.3101,-2.3101,-2.3091,-2.3101,-2.3045,-2.2908,-2.2781,-2.2781,-2.2547,-2.2393,-2.2207,-2.1903,-2.1737,-2.1464,-2.1113,-2.0879,-2.0869,-2.0684,-2.0596,-2.0411,-1.9559,-1.847,-1.7317,-1.6257,-1.5078,-1.4152,-1.3694,-1.3474,-1.3227,-1.3233,-1.3424,-1.4006,-1.4401,-1.5115,-1.5561,-1.5997,-1.6171,-1.5825,-1.5373,-1.4882,-1.4295,-1.3974,-1.343,-1.2837,-1.2214,-1.1246,-0.9629,-0.8425,-0.7835,-0.7605,-0.72,-0.6946,-0.6962,-0.6877,-0.682,-0.686,-0.6772,-0.6772,-0.6577,-0.6097,-0.6096,-0.5983,-0.6033,-0.6116,-0.6185,-0.6502,-0.6643,-0.6706,-0.6945,-0.6975,-0.6919,-0.6821,-0.6677,-0.6559,-0.647,-0.6402,-0.5736,-0.4557,-0.3538,-0.2725,-0.1914,-0.1432,0.0,0.0,-0.0498,0.0,0.0,0.0,0.0,0.0,0.0,-2.3101,-2.3101,-2.3101,-2.3101,-2.3101,-2.3101,-2.3101,-2.3101,-2.3101,-2.3101,-2.3101,-2.3101,-2.3101,-2.3101,-2.3101,-2.3101,-2.3101,-2.3101,-2.3101,-2.3101,-2.3101,-2.3101,-2.3101,-2.3101,-2.3101,-2.3101,-2.3101,-2.3101,-2.3101,-2.3091,-2.3013,-2.3071,-2.3071,-2.2849,-2.2625,-2.2479,-2.2275,-2.1953,-2.1532,-2.1308,-2.1299,-2.1035,-2.0889,-2.0546,-1.9587,-1.8479,-1.7334,-1.6273,-1.5178,-1.4208,-1.4109,-1.3814,-1.35,-1.34,-1.3805,-1.4837,-1.5192,-1.5931,-1.6803,-1.7126,-1.7316,-1.726,-1.6508,-1.5802,-1.5509,-1.485,-1.4288,-1.3659,-1.2952,-1.1875,-1.0907,-0.978,-0.9239,-0.8948,-0.8089,-0.7477,-0.7345,-0.7189,-0.7046,-0.7056,-0.7043,-0.7007,-0.7028,-0.6806,-0.699,-0.7124,-0.7127,-0.7137,-0.7148,-0.7164,-0.7195,-0.7256,-0.7366,-0.74,-0.733,-0.7317,-0.7283,-0.727,-0.7316,-0.7303,-0.7235,-0.64,-0.5173,-0.424,-0.3521,-0.2968,-0.2315,-0.1808,-0.1222,-0.051,0.0,0.0,0.0,0.0,0.0,-2.3101,-2.3101,-2.3101,-2.3101,-2.3101,-2.3101,-2.3101,-2.3101,-2.3101,-2.3101,-2.3101,-2.3101,-2.3101,-2.3101,-2.3101,-2.3101,-2.3101,-2.3101,-2.3101,-2.3101,-2.3101,-2.3101,-2.3101,-2.3101,-2.3101,-2.3101,-2.3101,-2.3101,-2.3101,-2.3101,-2.3101,-2.3101,-2.3101,-2.3003,-2.2877,-2.2703,-2.2518,-2.2373,-2.2002,-2.1787,-2.1728,-2.1611,-2.1396,-2.1023,-1.9928,-1.8676,-1.7428,-1.6309,-1.522,-1.4222,-1.4109,-1.4042,-1.3908,-1.3874,-1.4455,-1.5457,-1.6264,-1.7072,-1.8273,-1.9252,-1.9277,-1.8888,-1.817,-1.717,-1.6216,-1.5434,-1.4755,-1.4026,-1.316,-1.2242,-1.205,-1.102,-1.0453,-1.0058,-0.9454,-0.8714,-0.8603,-0.8185,-0.7659,-0.7767,-0.7513,-0.7154,-0.7198,-0.7219,-0.7225,-0.7239,-0.7235,-0.7269,-0.7329,-0.7353,-0.7383,-0.7458,-0.755,-0.756,-0.755,-0.7546,-0.7516,-0.7523,-0.7543,-0.7564,-0.7526,-0.751,-0.678,-0.5756,-0.4841,-0.4152,-0.3483,-0.2852,-0.2068,-0.1441,0.0,0.0,0.0,0.0,0.0,-2.3101,-2.3101,-2.3101,-2.3101,-2.3101,-2.3101,-2.3101,-2.3101,-2.3101,-2.3101,-2.3101,-2.3101,-2.3101,-2.3101,-2.3101,-2.3101,-2.3101,-2.3101,-2.3101,-2.3101,-2.3101,-2.3101,-2.3101,-2.3101,-2.3101,-2.3101,-2.3101,-2.3101,-2.3101,-2.3101,-2.3101,-2.3101,-2.3101,-2.3101,-2.3071,-2.2927,-2.281,-2.2713,-2.242,-2.2207,-2.2168,-2.2041,-2.1748,-2.1379,-2.0791,-1.9571,-1.7878,-1.7284,-1.5959,-1.453,-1.4109,-1.4109,-1.4123,-1.4271,-1.4859,-1.6242,-1.7017,-1.8101,-1.9461,-2.0362,-2.0245,-1.9795,-1.8937,-1.7759,-1.6539,-1.5587,-1.4748,-1.4166,-1.38,-1.3245,-1.3209,-1.23,-1.1843,-1.1592,-1.0846,-1.0357,-1.0171,-0.9748,-0.9291,-0.8793,-0.8063,-0.7627,-0.7384,-0.7388,-0.7367,-0.7354,-0.7324,-0.7394,-0.7502,-0.7529,-0.7529,-0.759,-0.7665,-0.7689,-0.7699,-0.7712,-0.7712,-0.7723,-0.7719,-0.7767,-0.7763,-0.7729,-0.7635,-0.7115,-0.6243,-0.5408,-0.4978,-0.4481,-0.3431,-0.2383,0.0,0.0,0.0,0.0,0.0,-2.3101,-2.3101,-2.3101,-2.3101,-2.3101,-2.3101,-2.3101,-2.3101,-2.3101,-2.3101,-2.3101,-2.3101,-2.3101,-2.3101,-2.3101,-2.3101,-2.3101,-2.3101,-2.3101,-2.3101,-2.3101,-2.3101,-2.3101,-2.3101,-2.3101,-2.3101,-2.3101,-2.3101,-2.3101,-2.3101,-2.3101,-2.3101,-2.3101,-2.3101,-2.3071,-2.3064,-2.3091,-2.2994,-2.283,-2.2635,-2.2518,-2.2246,-2.2002,-2.1973,-2.1924,-2.0714,-1.8816,-1.8489,-1.7128,-1.5589,-1.4766,-1.4617,-1.4354,-1.4283,-1.5317,-1.7046,-1.7343,-1.8539,-1.9923,-2.0566,-2.0566,-2.0352,-1.8738,-1.7833,-1.6932,-1.5732,-1.4374,-1.4202,-1.4233,-1.4148,-1.3984,-1.3585,-1.3309,-1.3055,-1.244,-1.1787,-1.1594,-1.1146,-1.0464,-0.9722,-0.8702,-0.828,-0.819,-0.7526,-0.7469,-0.7469,-0.7462,-0.7553,-0.7634,-0.7634,-0.7665,-0.7706,-0.7732,-0.7773,-0.78,-0.7834,-0.7837,-0.7841,-0.7871,-0.7902,-0.7939,-0.7938,-0.7824,-0.7696,-0.7575,-0.6804,-0.647,-0.5899,-0.4837,-0.3752,-0.2677,0.0,0.0,0.0,0.0,-2.3101,-2.3101,-2.3101,-2.3101,-2.3101,-2.3101,-2.3101,-2.3101,-2.3101,-2.3101,-2.3101,-2.3101,-2.3101,-2.3101,-2.3101,-2.3101,-2.3101,-2.3101,-2.3101,-2.3101,-2.3101,-2.3101,-2.3101,-2.3101,-2.3101,-2.3101,-2.3101,-2.3101,-2.3101,-2.3101,-2.3101,-2.3101,-2.3101,-2.3101,-2.3101,-2.3101,-2.3101,-2.3081,-2.3033,-2.3015,-2.2947,-2.2637,-2.2471,-2.2344,-2.2065,-2.1313,-2.0,-1.9669,-1.865,-1.68,-1.6417,-1.5928,-1.5139,-1.4885,-1.6133,-1.7344,-1.795,-1.825,-2.0214,-2.0742,-2.0605,-2.0399,-1.9285,-1.851,-1.7179,-1.5936,-1.4698,-1.4467,-1.4663,-1.4705,-1.4556,-1.4604,-1.464,-1.434,-1.3719,-1.3286,-1.306,-1.2721,-1.1989,-1.101,-1.0106,-0.9571,-0.9251,-0.8347,-0.759,-0.7597,-0.7617,-0.7689,-0.7746,-0.7777,-0.7804,-0.782,-0.7841,-0.7875,-0.7885,-0.7925,-0.7935,-0.7949,-0.7976,-0.7988,-0.7988,-0.7988,-0.7988,-0.7898,-0.7891,-0.7874,-0.7369,-0.6739,-0.6003,-0.5059,-0.3902,-0.2868,0.0,0.0,0.0,-2.3101,-2.3101,-2.3101,-2.3101,-2.3101,-2.3101,-2.3101,-2.3101,-2.3101,-2.3101,-2.3101,-2.3101,-2.3101,-2.3101,-2.3101,-2.3101,-2.3101,-2.3101,-2.3101,-2.3101,-2.3101,-2.3101,-2.3101,-2.3101,-2.3101,-2.3101,-2.3101,-2.3101,-2.3101,-2.3101,-2.3101,-2.3101,-2.3101,-2.3101,-2.3101,-2.3101,-2.3101,-2.3091,-2.3091,-2.3091,-2.3052,-2.2947,-2.283,-2.283,-2.2635,-2.1826,-2.0958,-2.0561,-1.972,-1.8026,-1.7302,-1.6609,-1.5947,-1.5599,-1.5991,-1.8029,-1.813,-1.9052,-2.0935,-2.1238,-2.0938,-2.0138,-1.9206,-1.7904,-1.6561,-1.5596,-1.4979,-1.4819,-1.4899,-1.4905,-1.4885,-1.5066,-1.5173,-1.5025,-1.4716,-1.4716,-1.445,-1.4163,-1.3577,-1.2542,-1.1536,-1.088,-1.012,-0.9144,-0.8251,-0.7783,-0.7797,-0.7841,-0.7885,-0.7912,-0.7939,-0.7966,-0.7951,-0.7958,-0.7951,-0.7961,-0.7979,-0.7961,-0.7961,-0.7988,-0.7988,-0.7988,-0.7988,-0.7988,-0.7955,-0.7958,-0.7939,-0.7577,-0.6863,-0.5992,-0.5072,-0.4146,-0.3218,0.0,0.0,-2.3101,-2.3101,-2.3101,-2.3101,-2.3101,-2.3101,-2.3101,-2.3101,-2.3101,-2.3101,-2.3101,-2.3101,-2.3101,-2.3101,-2.3101,-2.3101,-2.3101,-2.3101,-2.3101,-2.3101,-2.3101,-2.3101,-2.3101,-2.3101,-2.3101,-2.3101,-2.3101,-2.3101,-2.3101,-2.3101,-2.3101,-2.3101,-2.3101,-2.3101,-2.3101,-2.3101,-2.3101,-2.3101,-2.3101,-2.3101,-2.3091,-2.3091,-2.3071,-2.3081,-2.2986,-2.2587,-2.1652,-2.1488,-2.0732,-1.8957,-1.8115,-1.7391,-1.6435,-1.5775,-1.6192,-1.7837,-1.8323,-1.9536,-2.0992,-2.1577,-2.1157,-2.0093,-1.8666,-1.7235,-1.568,-1.5126,-1.5133,-1.5113,-1.522,-1.52,-1.5173,-1.536,-1.5464,-1.5535,-1.5534,-1.5711,-1.5652,-1.4881,-1.4208,-1.3339,-1.2396,-1.1818,-1.0988,-0.996,-0.9046,-0.8219,-0.7988,-0.8038,-0.7988,-0.7985,-0.7985,-0.7988,-0.7988,-0.7988,-0.7988,-0.7988,-0.7988,-0.7988,-0.7988,-0.7988,-0.7988,-0.7988,-0.7988,-0.7988,-0.7988,-0.7988,-0.7963,-0.7864,-0.7715,-0.6908,-0.6104,-0.545,-0.4522,-0.3342,-0.2465,-2.3101,-2.3101,-2.3101,-2.3101,-2.3101,-2.3101,-2.3101,-2.3101,-2.3101,-2.3101,-2.3101,-2.3101,-2.3101,-2.3101,-2.3101,-2.3101,-2.3101,-2.3101,-2.3101,-2.3101,-2.3101,-2.3101,-2.3101,-2.3101,-2.3101,-2.3101,-2.3101,-2.3101,-2.3101,-2.3101,-2.3101,-2.3101,-2.3101,-2.3101,-2.3101,-2.3101,-2.3101,-2.3101,-2.3101,-2.3101,-2.3101,-2.3101,-2.3101,-2.3101,-2.3101,-2.3028,-2.2933,-2.2625,-2.1737,-1.9611,-1.8919,-1.7972,-1.6624,-1.6125,-1.6777,-1.7934,-1.9097,-2.0252,-2.1397,-2.1866,-2.1223,-1.9937,-1.8381,-1.6852,-1.5548,-1.5618,-1.5611,-1.5418,-1.5504,-1.5538,-1.5524,-1.5591,-1.5675,-1.5715,-1.5741,-1.5768,-1.5557,-1.4919,-1.4274,-1.3824,-1.3247,-1.2619,-1.1799,-1.0774,-1.0141,-0.9336,-0.8552,-0.8552,-0.8088,-0.7988,-0.7988,-0.7988,-0.7988,-0.7988,-0.7988,-0.7988,-0.7988,-0.7988,-0.7988,-0.7988,-0.7988,-0.7988,-0.7988,-0.7988,-0.7988,-0.7988,-0.7988,-0.7939,-0.7814,-0.7637,-0.7107,-0.6329,-0.5575,-0.4547,-0.3894,-2.3101,-2.3101,-2.3101,-2.3101,-2.3101,-2.3101,-2.3101,-2.3101,-2.3101,-2.3101,-2.3101,-2.3101,-2.3101,-2.3101,-2.3101,-2.3101,-2.3101,-2.3101,-2.3101,-2.3101,-2.3101,-2.3101,-2.3101,-2.311,-2.3101,-2.3101,-2.3101,-2.3101,-2.3101,-2.3101,-2.3101,-2.3101,-2.3101,-2.3101,-2.3101,-2.3101,-2.3101,-2.3101,-2.3101,-2.3101,-2.3101,-2.3101,-2.3101,-2.3101,-2.3101,-2.3101,-2.2972,-2.2306,-2.1489,-2.0472,-1.9177,-1.7902,-1.6983,-1.6779,-1.7381,-1.8526,-1.9693,-2.089,-2.1921,-2.2274,-2.1754,-1.9834,-1.829,-1.6875,-1.5742,-1.5772,-1.5761,-1.5708,-1.5745,-1.5708,-1.5715,-1.5728,-1.5781,-1.5801,-1.5801,-1.5801,-1.5581,-1.5021,-1.4848,-1.4633,-1.4022,-1.3392,-1.2498,-1.158,-1.1043,-1.048,-0.9702,-0.8945,-0.8382,-0.7988,-0.7988,-0.7988,-0.7988,-0.7988,-0.7988,-0.7988,-0.7988,-0.7988,-0.7988,-0.7988,-0.7988,-0.7988,-0.7988,-0.7988,-0.7988,-0.7988,-0.7988,-0.7988,-0.7914,-0.7789,-0.7512,-0.7033,-0.6304,-0.5625,-0.5222,-2.3101,-2.3101,-2.3101,-2.3101,-2.3101,-2.3101,-2.3101,-2.3101,-2.3101,-2.3101,-2.3101,-2.3101,-2.3101,-2.3101,-2.3101,-2.3101,-2.3101,-2.311,-2.322,-2.323,-2.321,-2.3188,-2.323,-2.3191,-2.3101,-2.3101,-2.3101,-2.3101,-2.3101,-2.3101,-2.3101,-2.3101,-2.3101,-2.3101,-2.3101,-2.3101,-2.3101,-2.3101,-2.3101,-2.3101,-2.3101,-2.3101,-2.3101,-2.3101,-2.3101,-2.2753,-2.2425,-2.1734,-2.0868,-1.9792,-1.8665,-1.7638,-1.7248,-1.7288,-1.7809,-1.8902,-2.0133,-2.1324,-2.2173,-2.1996,-2.111,-1.9058,-1.771,-1.6664,-1.6086,-1.5801,-1.5781,-1.5788,-1.5795,-1.5801,-1.5801,-1.5801,-1.5801,-1.5801,-1.5801,-1.5801,-1.5801,-1.5486,-1.5557,-1.551,-1.4895,-1.4435,-1.4124,-1.3156,-1.1331,-1.048,-0.9089,-0.8503,-0.8258,-0.7988,-0.7988,-0.7988,-0.7988,-0.7988,-0.7988,-0.7988,-0.7988,-0.7988,-0.7988,-0.7988,-0.7988,-0.7988,-0.7988,-0.7988,-0.7988,-0.7988,-0.7988,-0.7988,-0.7988,-0.7988,-0.7686,-0.7434,-0.731,-0.6731,-0.6404,-2.3101,-2.3101,-2.3101,-2.3101,-2.3101,-2.3101,-2.3101,-2.3101,-2.3101,-2.3101,-2.3101,-2.3101,-2.313,-2.3149,-2.323,-2.3269,-2.3305,-2.3266,-2.3415,-2.3652,-2.3503,-2.3461,-2.3493,-2.3445,-2.3259,-2.312,-2.3101,-2.3101,-2.3101,-2.3101,-2.3101,-2.3101,-2.3101,-2.3101,-2.3101,-2.3101,-2.3101,-2.3101,-2.3101,-2.3101,-2.3101,-2.3101,-2.3101,-2.3101,-2.3101,-2.2721,-2.18,-2.1226,-2.0169,-1.8572,-1.7886,-1.699,-1.6268,-1.6339,-1.6967,-1.811,-1.9222,-2.0305,-2.1203,-2.0268,-1.9345,-1.8388,-1.7451,-1.6346,-1.5944,-1.5801,-1.5801,-1.5801,-1.5801,-1.5801,-1.5801,-1.5801,-1.5801,-1.5801,-1.5801,-1.5801,-1.5801,-1.5801,-1.5801,-1.5801,-1.5801,-1.5676,-1.5629,-1.483,-1.225,-1.0451,-0.8697,-0.8137,-0.8404,-0.8722,-0.897,-0.8871,-0.892,-0.8577,-0.8577,-0.8137,-0.7988,-0.7988,-0.7988,-0.7988,-0.7988,-0.7988,-0.7988,-0.7988,-0.7988,-0.7988,-0.7988,-0.7988,-0.7988,-0.7988,-0.7988,-0.7839,-0.7864,-0.7715,-0.7285,-2.3101,-2.3101,-2.3101,-2.3101,-2.3101,-2.3101,-2.3101,-2.3101,-2.3101,-2.3101,-2.3101,-2.3101,-2.3318,-2.3464,-2.3571,-2.3669,-2.3903,-2.3962,-2.4128,-2.415,-2.3939,-2.4059,-2.4053,-2.3818,-2.3552,-2.3464,-2.3337,-2.3159,-2.3101,-2.321,-2.313,-2.3101,-2.3179,-2.3101,-2.3101,-2.3101,-2.3101,-2.3101,-2.3101,-2.3101,-2.3101,-2.3101,-2.3101,-2.3101,-2.3101,-2.2514,-2.1337,-2.0778,-1.9382,-1.78,-1.7201,-1.6315,-1.6038,-1.6251,-1.7467,-1.8703,-1.9951,-2.08,-2.0926,-2.0296,-1.9451,-1.8542,-1.7707,-1.6598,-1.5991,-1.5825,-1.5801,-1.5801,-1.5801,-1.5801,-1.5801,-1.5801,-1.5801,-1.5801,-1.5801,-1.5801,-1.5801,-1.5801,-1.5801,-1.5801,-1.5801,-1.5289,-1.5069,-1.517,-1.3193,-1.2032,-1.0598,-1.0067,-1.019,-1.0554,-1.0847,-1.0509,-1.0293,-0.9702,-0.9188,-0.8432,-0.8013,-0.7988,-0.7988,-0.7988,-0.7988,-0.7988,-0.7988,-0.7988,-0.7988,-0.7988,-0.7988,-0.7988,-0.7988,-0.7988,-0.7988,-0.7988,-0.7939,-0.7914,-0.7811,-2.3101,-2.3101,-2.3101,-2.3101,-2.3101,-2.3101,-2.3101,-2.3101,-2.3101,-2.3101,-2.313,-2.3269,-2.3484,-2.3769,-2.3965,-2.4092,-2.4414,-2.4414,-2.459,-2.458,-2.443,-2.4492,-2.4443,-2.4238,-2.4033,-2.3916,-2.3757,-2.3569,-2.3649,-2.3581,-2.361,-2.361,-2.3415,-2.3396,-2.3337,-2.3259,-2.3101,-2.3101,-2.3101,-2.3101,-2.3101,-2.3101,-2.3101,-2.3101,-2.296,-2.2536,-2.1346,-2.0147,-1.8933,-1.7707,-1.6645,-1.5849,-1.6133,-1.6615,-1.7677,-1.8795,-1.9929,-2.0531,-2.0328,-1.9465,-1.8749,-1.8572,-1.8048,-1.7131,-1.6126,-1.5825,-1.5801,-1.5801,-1.5801,-1.5801,-1.5801,-1.5801,-1.5801,-1.5801,-1.5801,-1.5801,-1.5801,-1.5801,-1.5801,-1.5801,-1.573,-1.5116,-1.4698,-1.4531,-1.4022,-1.3343,-1.2692,-1.211,-1.1361,-1.1287,-1.1263,-1.0877,-1.0317,-0.941,-0.8825,-0.8407,-0.8088,-0.8013,-0.7988,-0.7988,-0.7988,-0.7988,-0.7988,-0.7988,-0.7988,-0.7988,-0.7988,-0.7988,-0.8002,-0.7998,-0.7988,-0.7988,-0.7988,-0.7988,-0.7988,-2.3101,-2.3101,-2.3101,-2.3101,-2.3101,-2.3101,-2.3101,-2.3101,-2.3101,-2.311,-2.3181,-2.3613,-2.3848,-2.3955,-2.4268,-2.4492,-2.4567,-2.4567,-2.4805,-2.4922,-2.4791,-2.4893,-2.4853,-2.4668,-2.4482,-2.441,-2.4284,-2.4108,-2.4332,-2.4176,-2.4196,-2.4215,-2.3935,-2.3838,-2.3701,-2.3486,-2.324,-2.313,-2.3101,-2.3101,-2.3101,-2.3101,-2.3101,-2.3101,-2.3003,-2.2271,-2.1145,-1.9997,-1.8795,-1.7584,-1.6433,-1.6015,-1.5825,-1.5825,-1.6622,-1.7661,-1.8956,-1.9314,-1.9565,-1.8634,-1.8072,-1.8048,-1.7847,-1.6974,-1.6251,-1.5801,-1.5801,-1.5801,-1.5801,-1.5801,-1.5801,-1.5801,-1.5801,-1.5801,-1.5801,-1.5801,-1.5801,-1.5801,-1.5801,-1.5801,-1.5801,-1.5534,-1.5486,-1.5242,-1.4682,-1.3734,-1.2813,-1.1453,-1.075,-1.0239,-1.0165,-1.0018,-0.941,-0.8676,-0.8287,-0.8361,-0.8088,-0.7988,-0.7988,-0.7988,-0.7988,-0.7995,-0.7988,-0.7988,-0.7988,-0.7988,-0.7988,-0.8005,-0.8054,-0.8054,-0.8098,-0.8022,-0.8035,-0.7995,-0.7988,-2.3101,-2.3101,-2.3101,-2.3101,-2.3101,-2.3101,-2.3101,-2.3101,-2.3101,-2.3259,-2.3603,-2.373,-2.4134,-2.4711,-2.4857,-2.5059,-2.521,-2.5323,-2.5406,-2.5386,-2.5269,-2.5396,-2.5342,-2.5098,-2.4932,-2.4785,-2.4648,-2.4531,-2.443,-2.443,-2.4473,-2.4355,-2.4326,-2.4248,-2.4092,-2.3818,-2.3484,-2.3208,-2.3169,-2.3101,-2.3101,-2.3101,-2.3101,-2.3101,-2.3101,-2.2183,-2.0742,-1.9906,-1.8611,-1.6796,-1.615,-1.5801,-1.5801,-1.5849,-1.6369,-1.7505,-1.8164,-1.8495,-1.9093,-1.8365,-1.7622,-1.7552,-1.7568,-1.6967,-1.6244,-1.5801,-1.5801,-1.5801,-1.5801,-1.5801,-1.5801,-1.5801,-1.5801,-1.5801,-1.5801,-1.5801,-1.5801,-1.5801,-1.5801,-1.5801,-1.5801,-1.5801,-1.5801,-1.579,-1.5145,-1.41,-1.2907,-1.1502,-1.0232,-0.9752,-0.9386,-0.9262,-0.9114,-0.8577,-0.863,-0.8701,-0.8283,-0.7988,-0.8033,-0.8054,-0.8067,-0.8064,-0.8005,-0.8015,-0.8088,-0.8035,-0.7988,-0.8064,-0.8169,-0.8245,-0.8279,-0.8169,-0.8076,-0.8094,-0.8081,-2.3101,-2.3101,-2.3101,-2.3101,-2.3101,-2.3101,-2.3101,-2.3101,-2.3101,-2.3357,-2.3802,-2.3975,-2.4437,-2.5004,-2.5248,-2.5459,-2.564,-2.562,-2.565,-2.565,-2.5708,-2.5669,-2.5562,-2.5478,-2.5371,-2.5205,-2.5107,-2.5025,-2.4879,-2.4898,-2.4937,-2.4947,-2.4781,-2.4687,-2.4551,-2.4268,-2.3932,-2.361,-2.3354,-2.3159,-2.311,-2.311,-2.3101,-2.3101,-2.3101,-2.2041,-2.0863,-2.0223,-1.8557,-1.7086,-1.6749,-1.5801,-1.5801,-1.5849,-1.5927,-1.6833,-1.6943,-1.721,-1.7553,-1.728,-1.699,-1.6967,-1.699,-1.652,-1.6173,-1.5801,-1.5801,-1.5801,-1.5801,-1.5801,-1.5801,-1.5801,-1.5801,-1.5801,-1.5801,-1.5801,-1.5801,-1.5801,-1.5801,-1.5801,-1.5801,-1.5801,-1.5835,-1.5915,-1.5604,-1.4515,-1.3514,-1.2434,-1.0813,-0.949,-0.9128,-0.8899,-0.8895,-0.8747,-0.8836,-0.8781,-0.8403,-0.8104,-0.8157,-0.817,-0.8142,-0.8159,-0.8172,-0.8179,-0.8189,-0.8175,-0.8175,-0.8272,-0.836,-0.8427,-0.8447,-0.837,-0.829,-0.8296,-0.8275,-2.3101,-2.3101,-2.3101,-2.3101,-2.3101,-2.3101,-2.3101,-2.3101,-2.3101,-2.3357,-2.3809,-2.4228,-2.4619,-2.5102,-2.5439,-2.561,-2.5708,-2.5708,-2.5708,-2.5708,-2.5708,-2.5708,-2.5708,-2.5689,-2.5581,-2.5659,-2.563,-2.5435,-2.5601,-2.5542,-2.5474,-2.5679,-2.5332,-2.5127,-2.5059,-2.4678,-2.4414,-2.4287,-2.3767,-2.3374,-2.3218,-2.3149,-2.3101,-2.3079,-2.296,-2.2611,-2.2085,-2.0953,-1.936,-1.8495,-1.739,-1.592,-1.5801,-1.5801,-1.5879,-1.5927,-1.6086,-1.6197,-1.6379,-1.6221,-1.6103,-1.5991,-1.5825,-1.592,-1.5872,-1.5801,-1.5801,-1.5801,-1.5801,-1.5801,-1.5801,-1.5801,-1.5801,-1.5801,-1.5801,-1.5801,-1.5801,-1.5881,-1.6039,-1.6035,-1.6108,-1.6102,-1.6115,-1.6215,-1.6177,-1.5041,-1.4115,-1.3227,-1.1755,-0.9965,-0.9115,-0.8783,-0.8679,-0.8679,-0.8524,-0.8454,-0.836,-0.8231,-0.8294,-0.8328,-0.833,-0.8321,-0.8331,-0.8372,-0.8412,-0.8418,-0.8454,-0.8498,-0.8499,-0.8523,-0.8537,-0.8537,-0.8513,-0.8503,-0.8431,-2.3101,-2.3101,-2.3101,-2.3101,-2.3101,-2.3101,-2.3101,-2.3101,-2.3101,-2.3347,-2.3809,-2.4228,-2.4648,-2.5112,-2.5513,-2.5708,-2.5708,-2.5708,-2.5708,-2.5708,-2.5708,-2.5708,-2.5708,-2.5708,-2.5708,-2.5708,-2.5708,-2.5708,-2.5708,-2.5708,-2.5708,-2.5698,-2.5513,-2.5484,-2.5464,-2.5088,-2.4902,-2.4863,-2.4385,-2.3884,-2.3688,-2.3318,-2.3101,-2.2838,-2.2586,-2.1971,-2.1141,-1.9588,-1.8526,-1.7754,-1.6615,-1.592,-1.5801,-1.5801,-1.5801,-1.5801,-1.5801,-1.5801,-1.5801,-1.5801,-1.5801,-1.5801,-1.5801,-1.5801,-1.5801,-1.5801,-1.5801,-1.5801,-1.5801,-1.5801,-1.5801,-1.5801,-1.5821,-1.5821,-1.5835,-1.5835,-1.5835,-1.6052,-1.6246,-1.6315,-1.6415,-1.6435,-1.6435,-1.6439,-1.6393,-1.5864,-1.503,-1.4041,-1.2669,-1.1037,-0.9598,-0.9116,-0.8633,-0.851,-0.8347,-0.833,-0.834,-0.8377,-0.8425,-0.8459,-0.8492,-0.8513,-0.8517,-0.8608,-0.8656,-0.8628,-0.8594,-0.8611,-0.8635,-0.8659,-0.8696,-0.8713,-0.8727,-0.8757,-0.8638,-2.3101,-2.3101,-2.3101,-2.3101,-2.3101,-2.3101,-2.3101,-2.3101,-2.3101,-2.3249,-2.3552,-2.4131,-2.4658,-2.5112,-2.5503,-2.5708,-2.5708,-2.5708,-2.5708,-2.5708,-2.5708,-2.5708,-2.5708,-2.5708,-2.5708,-2.5708,-2.5708,-2.5708,-2.5708,-2.5708,-2.5708,-2.5708,-2.5708,-2.5698,-2.5679,-2.5469,-2.5342,-2.5342,-2.4912,-2.459,-2.43,-2.3945,-2.3562,-2.3172,-2.24,-2.1689,-2.0503,-1.9116,-1.8048,-1.7388,-1.6457,-1.5944,-1.5801,-1.5801,-1.5801,-1.5801,-1.5801,-1.5801,-1.5801,-1.5815,-1.5821,-1.5828,-1.5821,-1.5828,-1.5801,-1.5801,-1.5801,-1.5801,-1.5801,-1.5801,-1.5801,-1.5801,-1.5965,-1.6025,-1.6086,-1.6126,-1.6233,-1.6406,-1.6506,-1.6547,-1.6575,-1.6575,-1.6653,-1.6807,-1.6798,-1.6846,-1.6005,-1.474,-1.3357,-1.1838,-1.0504,-0.9367,-0.8823,-0.8536,-0.8461,-0.8468,-0.8476,-0.852,-0.8581,-0.8642,-0.8689,-0.8699,-0.8733,-0.8757,-0.8781,-0.8747,-0.8727,-0.8723,-0.8754,-0.8784,-0.8831,-0.8875,-0.8909,-0.8909,-0.8798,-2.3101,-2.3101,-2.3101,-2.3101,-2.3101,-2.3101,-2.3101,-2.3101,-2.3101,-2.3149,-2.3367,-2.4079,-2.4629,-2.5019,-2.5484,-2.562,-2.5708,-2.5708,-2.5708,-2.5708,-2.5708,-2.5708,-2.5708,-2.5708,-2.5708,-2.5708,-2.5708,-2.5708,-2.5708,-2.5708,-2.5708,-2.5708,-2.5708,-2.5708,-2.5708,-2.5698,-2.564,-2.5552,-2.5318,-2.5209,-2.4975,-2.4668,-2.4219,-2.356,-2.2767,-2.1912,-2.0837,-1.9484,-1.8123,-1.7368,-1.6737,-1.6208,-1.5952,-1.5952,-1.5841,-1.5841,-1.5801,-1.5801,-1.5815,-1.5881,-1.5888,-1.5888,-1.5881,-1.5908,-1.5921,-1.5928,-1.5935,-1.5915,-1.5915,-1.5855,-1.5861,-1.5939,-1.6092,-1.629,-1.6339,-1.6446,-1.6607,-1.6747,-1.6774,-1.68,-1.684,-1.684,-1.6934,-1.712,-1.7193,-1.7274,-1.6593,-1.5329,-1.3944,-1.2284,-1.0779,-0.968,-0.8861,-0.8645,-0.86,-0.8611,-0.8638,-0.8686,-0.8723,-0.8798,-0.8841,-0.8811,-0.8811,-0.8855,-0.8865,-0.8828,-0.8841,-0.8848,-0.8885,-0.8892,-0.8899,-0.8909,-0.8909,-0.8909,-0.8909,-2.3101,-2.3101,-2.3101,-2.3101,-2.3101,-2.3101,-2.3101,-2.3101,-2.3101,-2.3298,-2.3691,-2.4111,-2.4492,-2.46,-2.5386,-2.5674,-2.5708,-2.5708,-2.5708,-2.5708,-2.5708,-2.5708,-2.5708,-2.5708,-2.5708,-2.5708,-2.5708,-2.5708,-2.5708,-2.5708,-2.5708,-2.5708,-2.5708,-2.5708,-2.5708,-2.5708,-2.5698,-2.564,-2.565,-2.5527,-2.5342,-2.4957,-2.4459,-2.3836,-2.3136,-2.2582,-2.1596,-1.9758,-1.8801,-1.8013,-1.7211,-1.6524,-1.6259,-1.6172,-1.6106,-1.5995,-1.5941,-1.5928,-1.5975,-1.6112,-1.6159,-1.6199,-1.6259,-1.6395,-1.6402,-1.6415,-1.6388,-1.6335,-1.6299,-1.6119,-1.6099,-1.6172,-1.6306,-1.6526,-1.6667,-1.6846,-1.7006,-1.7086,-1.714,-1.724,-1.7321,-1.7321,-1.7361,-1.7448,-1.7448,-1.7285,-1.6629,-1.5337,-1.3771,-1.2376,-1.1082,-0.9948,-0.89,-0.8852,-0.8825,-0.8801,-0.8801,-0.8841,-0.8858,-0.8872,-0.8885,-0.8899,-0.8909,-0.8909,-0.8909,-0.8885,-0.8909,-0.8909,-0.8909,-0.8902,-0.8906,-0.8909,-0.8909,-0.8909,-0.8909]},{"header":{"parameterUnit":"m.s-1","parameterCategory":1,"la1":31.0,"la2":29.5877,"lo1":-88.7671,"lo2":-86.6584,"dy":0.0162,"dx":0.0185,"nx":115,"ny":88,"refTime":"2026-03-03T00:00:00:Z","depth":0,"parameterNumber":3,"parameterNumberName":"V-component_of_WINDS"},"data":[0.0,0.0,0.0,0.0,0.0,0.0,0.0,0.0,0.0,0.0,0.0,0.0,0.0,0.0,0.0,0.0,0.0,0.0,0.0,0.0,0.0,0.0,0.0,0.0,0.0,0.0,0.0,0.0,0.0,0.0,0.0,0.0,0.0,0.0,0.0,0.0,0.0,0.0,0.0,0.0,0.0,0.0,0.0,0.0,0.0,0.0,0.0,0.0,0.0,0.0,0.0,0.0,0.0,0.0,0.0,0.0,0.0,0.0,0.0,0.0,0.0,0.0,0.0,0.0,0.0,0.0,0.0,0.0,0.0,0.0,0.0,0.0,0.0,0.0,0.0,0.0,0.0,0.0,0.0,0.0,0.0,0.0,0.0,0.0,0.0,0.0,0.0,0.0,0.0,0.0,0.0,0.0,0.0,0.0,0.0,0.0,0.0,0.0,0.0,0.0,0.0,0.0,0.0,0.0,0.0,0.0,0.0,0.0,0.0,0.0,0.0,0.0,0.0,0.0,0.0,0.0,0.0,0.0,0.0,0.0,0.0,0.0,0.0,0.0,0.0,0.0,0.0,0.0,0.0,0.0,0.0,0.0,0.0,0.0,0.0,0.0,0.0,0.0,0.0,0.0,0.0,0.0,0.0,0.0,0.0,0.0,0.0,0.0,0.0,0.0,0.0,0.0,0.0,0.0,0.0,0.0,0.0,0.0,0.0,0.0,0.0,0.0,0.0,0.0,0.0,0.0,0.0,0.0,0.0,0.0,0.0,0.0,0.0,0.0,0.0,0.0,0.0,0.0,0.0,0.0,0.0,0.0,0.0,0.0,0.0,0.0,0.0,0.0,0.0,0.0,0.0,0.0,0.0,0.0,0.0,0.0,0.0,0.0,0.0,0.0,0.0,0.0,0.0,0.0,0.0,0.0,0.0,0.0,0.0,0.0,0.0,0.0,0.0,0.0,0.0,0.0,0.0,0.0,0.0,0.0,0.0,0.0,0.0,0.0,0.0,0.0,0.0,0.0,0.0,0.0,0.0,0.0,0.0,0.0,0.0,0.0,0.0,0.0,0.0,0.0,0.0,0.0,0.0,0.0,0.0,0.0,0.0,0.0,0.0,0.0,0.0,0.0,0.0,0.0,0.0,0.0,0.0,0.0,0.0,0.0,0.0,0.0,0.0,0.0,0.0,0.0,0.0,0.0,0.0,0.0,0.0,0.0,0.0,0.0,0.0,0.0,0.0,0.0,0.0,0.0,0.0,0.0,0.0,0.0,0.0,0.0,0.0,0.0,0.0,0.0,0.0,0.0,0.0,0.0,0.0,0.0,0.0,0.0,0.0,0.0,0.0,0.0,0.0,0.0,0.0,0.0,0.0,0.0,0.0,0.0,0.0,0.0,0.0,0.0,0.0,0.0,0.0,0.0,0.0,0.0,0.0,0.0,0.0,0.0,0.0,0.0,0.0,0.0,0.0,0.0,0.0,0.0,0.0,0.0,0.0,0.0,0.0,0.0,0.0,0.0,0.0,0.0,0.0,0.0,0.0,0.0,0.0,0.0,0.0,0.0,0.0,0.0,0.0,0.0,0.0,0.0,0.0,0.0,0.0,0.0,0.0,0.0,0.0,0.0,0.0,0.0,0.0,0.0,0.0,0.0,0.0,0.0,0.0,0.0,0.0,0.0,0.0,0.0,0.0,0.0,0.0,0.0,0.0,0.0,0.0,0.0,0.0,0.0,0.0,0.0,0.0,0.0,0.0,0.0,0.0,0.0,0.0,0.0,0.0,0.0,0.0,0.0,0.0,0.0,0.0,0.0,0.0,0.0,0.0,0.0,0.0,0.0,0.0,0.0,0.0,0.0,0.0,0.0,0.0,0.0,0.0,0.0,0.0,0.0,0.0,0.0,0.0,0.0,0.0,0.0,0.0,0.0,0.0,0.0,0.0,0.0,0.0,0.0,0.0,0.0,0.0,0.0,0.0,0.0,0.0,0.0,0.0,0.0,0.0,0.0,0.0,0.0,0.0,0.0,0.0,0.0,0.0,0.0,0.0,0.0,0.0,0.0,0.0,0.0,0.0,0.0,0.0,0.0,0.0,0.0,0.0,0.0,0.0,0.0,0.0,0.0,0.0,0.0,0.0,0.0,0.0,0.0,0.0,0.0,0.0,0.0,0.0,0.0,0.0,0.0,0.0,0.0,0.0,0.0,0.0,0.0,0.0,0.0,0.0,0.0,0.0,0.0,0.0,0.0,0.0,0.0,0.0,0.0,0.0,0.0,0.0,0.0,0.0,0.0,0.0,0.0,0.0,0.0,0.0,0.0,0.0,0.0,0.0,0.0,0.0,0.0,0.0,0.0,0.0,0.0,0.0,0.0,0.0,0.0,0.0,0.0,0.0,0.0,0.0,0.0,0.0,0.0,0.0,0.0,0.0,0.0,0.0,0.0,0.0,0.0,0.0,0.0,0.0,0.0,0.0,0.0,0.0,0.0,0.0,0.0,0.0,0.0,0.0,0.0,0.0,0.0,0.0,0.0,0.0,0.0,0.0,0.0,0.0,0.0,0.0,0.0,0.0,0.0,0.0,0.0,0.0,0.0,0.0,0.0,0.0,0.0,0.0,0.0,0.0,0.0,0.0,0.0,0.0,0.0,0.0,0.0,0.0,0.0,0.0,0.0,0.0,0.0,0.0,0.0,0.0,0.0,0.0,0.0,0.0,0.0,0.0,0.0,0.0,0.0,0.0,0.0,0.0,0.0,0.0,0.0,0.0,0.0,0.0,0.0,0.0,0.0,0.0,0.0,0.0,0.0,0.0,0.0,0.0,0.0,0.0,0.0,0.0,0.0,0.0,0.0,0.0,0.0,0.0,0.0,0.0,0.0,0.0,0.0,0.0,0.0,0.0,0.0,0.0,0.0,0.0,0.0,0.0,0.0,0.0,0.0,0.0,0.0,0.0,0.0,0.0,0.0,0.0,0.0,0.0,0.0,0.0,0.0,0.0,0.0,0.0,0.0,0.0,0.0,0.0,0.0,0.0,0.0,0.0,0.0,0.0,0.0,0.0,0.0,0.0,0.0,0.0,0.0,0.0,0.0,0.0,0.0,0.0,0.0,0.0,0.0,0.0,0.0,0.0,0.0,0.0,0.0,0.0,0.0,0.0,0.0,0.0,0.0,0.0,0.0,0.0,0.0,0.0,0.0,0.0,0.0,0.0,0.0,0.0,0.0,0.0,0.0,0.0,0.0,0.0,0.0,0.0,0.0,0.0,0.0,0.0,0.0,0.0,0.0,0.0,0.0,0.0,0.0,0.0,0.0,0.0,0.0,0.0,0.0,0.0,0.0,0.0,0.0,0.0,0.0,0.0,0.0,0.0,0.0,0.0,0.0,0.0,0.0,0.0,0.0,0.0,0.0,0.0,0.0,0.0,0.0,0.0,0.0,0.0,0.0,0.0,0.0,0.0,0.0,0.0,0.0,0.0,0.0,0.0,0.0,0.0,0.0,0.0,0.0,0.0,0.0,0.0,0.0,0.0,0.0,0.0,0.0,0.0,0.0,0.0,0.0,0.0,0.0,0.0,0.0,0.0,0.0,0.0,0.0,0.0,0.0,0.0,0.0,0.0,0.0,0.0,0.0,0.0,0.0,0.0,0.0,0.0,0.0,0.0,0.0,0.0,0.0,0.0,0.0,0.0,0.0,0.0,0.0,0.0,0.0,0.0,0.0,0.0,0.0,0.0,0.0,0.0,0.0,0.0,0.0,0.0,0.0,0.0,0.0,0.0,0.0,0.0,0.0,0.0,0.0,0.0,0.0,0.0,0.0,0.0,0.0,0.0,0.0,0.0,0.0,0.0,0.0,0.0,0.0,0.0,0.0,0.0,0.0,0.0,0.0,0.0,0.0,0.0,0.0,0.0,0.0,0.0,0.0,0.0,0.0,0.0,0.0,0.0,0.0,0.0,0.0,0.0,0.0,0.0,0.0,0.0,0.0,0.0,0.0,0.0,0.0,0.0,0.0,0.0,0.0,0.0,0.0,0.0,0.0,0.0,0.0,0.0,0.0,0.0,0.0,0.0,0.0,0.0,0.0,0.0,0.0,0.0,0.0,0.0,0.0,0.0,0.0,0.0,0.0,0.0,0.0,0.0,0.0,0.0,0.0,0.0,0.0,0.0,0.0,0.0,0.0,0.0,0.0,0.0,0.0,0.0,0.0,0.0,0.0,0.0,0.0,0.0,0.0,0.0,0.0,0.0,0.0,0.0,0.0,0.0,0.0,0.0,0.0,0.0,0.0,0.0,0.0,0.9527,0.0,0.0,0.0,0.0,0.0,0.0,0.0,0.0,0.0,0.0,0.0,0.0,0.0,0.0,0.0,0.0,0.0,0.0,0.0,0.0,0.0,0.0,0.0,0.0,0.0,0.0,0.0,0.0,0.0,0.0,0.0,0.0,0.0,0.0,0.0,0.0,0.0,0.0,0.0,0.0,0.0,0.0,0.0,0.0,0.0,0.0,0.0,0.0,0.0,0.0,0.0,0.0,0.0,0.0,0.0,0.0,0.0,0.0,0.0,0.0,0.0,0.0,0.0,0.0,0.0,0.0,0.0,0.0,0.0,0.0,0.0,0.0,0.0,0.0,0.0,0.0,0.0,0.0,0.0,0.0,0.0,0.0,0.0,0.0,0.0,0.0,0.0,0.0,0.0,0.0,0.0,0.0,0.0,0.0,0.0,0.0,0.0,0.0,0.0,0.0,0.0,0.0,0.0,0.0,0.0,0.0,0.0,0.0,0.0,0.0,0.934,0.9412,0.9599,0.9633,0.9511,0.0,0.0,0.0,0.0,0.0,0.0,0.0,0.0,0.0,0.0,0.0,0.0,0.0,0.0,0.0,0.0,0.0,0.0,0.0,0.0,0.0,0.0,0.0,0.0,0.0,0.0,0.0,0.0,0.0,0.0,0.0,0.0,0.0,0.0,0.0,0.0,0.0,0.0,0.0,0.0,0.0,0.0,0.0,0.0,0.0,0.0,0.0,0.0,0.0,0.0,0.0,0.0,0.0,0.0,0.0,0.0,0.0,0.0,0.0,0.0,0.0,0.0,0.0,0.0,0.0,0.0,0.0,0.0,0.0,0.0,0.0,0.0,0.0,0.0,0.0,0.0,0.0,0.0,0.0,0.0,0.0,0.0,0.0,0.0,0.0,0.0,0.0,0.0,0.0,0.0,0.0,0.0,0.0,0.0,0.0,0.0,0.0,0.0,0.0,0.0,0.0,0.0,0.0,0.0,0.0,0.0,0.0,0.0,0.0,0.0,0.0,0.0,0.9625,0.9621,0.9468,0.0,0.0,0.0,0.0,0.0,0.0,0.0,0.0,0.0,0.0,0.0,0.0,0.0,0.0,0.0,0.0,0.0,0.0,0.0,0.0,0.0,0.0,0.0,0.0,0.0,0.0,0.0,0.0,0.0,0.0,0.0,0.0,0.0,0.0,0.0,0.0,0.0,0.0,0.0,0.0,0.0,0.0,0.0,0.0,0.0,0.0,0.0,0.0,0.0,0.0,0.0,0.0,0.0,0.0,0.0,0.0,0.0,0.0,0.0,0.0,0.0,0.0,0.0,0.0,0.0,0.0,0.0,0.0,0.0,0.0,0.0,0.0,0.0,0.0,0.0,0.0,0.0,0.0,0.0,0.0,0.0,0.0,0.0,0.0,0.0,0.0,0.0,0.0,0.0,0.0,0.0,0.0,0.0,0.0,0.0,0.0,0.0,0.0,0.0,0.0,0.0,0.0,0.0,0.0,0.0,0.0,0.0,0.0,0.0,0.0,0.9478,0.9484,0.9629,0.0,0.9311,0.0,0.0,0.0,0.0,0.0,0.0,0.0,0.0,0.0,0.0,0.0,0.0,0.0,0.0,0.0,0.0,0.0,0.0,0.0,0.0,0.0,0.0,0.0,0.0,0.0,0.0,0.0,0.0,0.0,0.0,0.0,0.0,0.0,0.0,0.0,0.0,0.0,0.0,0.0,0.0,0.0,0.0,0.0,0.0,0.0,0.0,0.0,0.0,0.0,0.0,0.0,0.0,0.0,0.0,0.0,0.0,0.0,0.0,0.0,0.0,0.0,0.0,0.0,0.0,0.0,0.0,0.0,0.0,0.0,0.0,0.0,0.0,0.0,0.0,0.0,0.0,0.0,0.0,0.0,0.0,0.0,0.0,0.0,0.0,0.0,0.0,0.0,0.0,0.0,0.0,0.0,0.0,0.0,0.0,0.0,0.0,0.0,0.0,0.0,0.0,0.0,0.0,0.0,0.0,0.0,0.0,0.0,0.0,0.0,0.0,0.95,0.95,0.9465,0.9406,0.0,0.0,0.0,0.0,0.0,0.0,0.0,0.0,0.0,0.0,0.0,0.0,0.0,0.0,0.0,0.0,0.0,0.0,0.0,0.0,0.0,0.0,0.0,0.0,0.0,0.0,0.0,0.0,0.0,0.0,0.0,0.0,0.0,0.0,0.0,0.0,0.0,0.0,0.0,0.0,0.0,0.0,0.0,0.0,0.0,0.0,0.0,0.0,0.0,0.0,0.0,0.0,0.0,0.0,0.0,0.0,0.0,0.0,0.0,0.0,0.0,0.0,0.0,0.0,0.0,0.0,0.0,0.0,0.0,0.0,0.0,0.0,0.0,0.0,0.0,0.0,0.0,0.0,0.0,0.0,0.0,0.0,0.0,0.0,0.0,0.0,0.0,0.0,0.0,0.0,0.0,0.0,0.0,0.0,0.0,0.0,0.0,0.0,0.0,0.0,0.0,0.0,0.0,0.0,0.0,0.0,0.0,0.0,0.0,0.0,0.9508,0.955,0.9548,0.9421,0.9342,0.931,0.0,0.0,0.0,0.0,0.0,0.0,0.0,0.0,0.0,0.0,0.0,0.0,0.0,0.0,0.0,0.0,0.0,0.0,0.0,0.0,0.0,0.0,0.0,0.0,0.0,0.0,0.0,0.0,0.0,0.0,0.0,0.0,0.0,0.0,0.0,0.0,0.0,0.0,0.0,0.0,0.0,0.0,0.0,0.0,0.0,0.0,0.0,0.0,0.0,0.0,0.0,0.0,0.0,0.0,0.0,0.0,0.0,0.0,0.0,0.0,0.0,0.0,0.0,0.0,0.0,0.0,0.0,0.0,0.0,0.0,0.0,0.0,0.0,0.0,0.0,0.0,0.0,0.0,0.0,0.0,0.0,0.0,0.0,0.0,0.0,0.0,0.0,0.0,0.0,0.0,0.0,0.0,0.0,0.0,0.0,0.0,0.0,0.0,0.0,0.0,0.0,0.0,0.0,0.0,0.0,0.0,0.0,0.0,0.0,0.9691,0.9692,0.9672,0.9554,0.9428,0.0,0.0,0.0,0.0,0.0,0.0,0.0,0.0,0.0,0.0,0.0,0.0,0.0,0.0,0.0,0.0,0.0,0.0,0.0,0.0,0.0,0.0,0.0,0.0,0.0,0.0,0.0,0.0,0.0,0.0,0.0,0.0,0.0,0.0,0.0,0.0,0.0,0.0,0.0,0.0,0.0,0.0,0.0,0.0,0.0,0.0,0.0,0.0,0.0,0.0,0.0,0.0,0.0,0.0,0.0,0.0,0.0,0.0,0.0,0.0,0.0,0.0,0.0,0.0,0.0,0.0,0.0,0.0,0.0,0.0,0.0,0.0,0.0,0.0,0.0,0.0,0.0,0.0,0.0,0.0,0.0,0.0,0.0,0.0,0.0,0.0,0.0,0.0,0.0,0.0,0.0,0.0,0.0,0.0,0.0,0.0,0.0,0.0,0.0,0.0,0.0,0.0,0.0,0.0,0.0,0.0,0.0,0.0,0.0,0.9702,0.9739,0.9766,0.9768,0.9635,0.9526,0.0,0.0,0.0,0.0,0.0,0.0,0.0,0.0,0.0,0.0,0.0,0.0,0.0,0.0,0.0,0.0,0.0,0.0,0.0,0.0,0.0,0.0,0.0,0.0,0.0,0.0,0.0,0.0,0.0,0.0,0.0,0.0,0.0,0.0,0.0,0.0,0.0,0.0,0.0,0.0,0.0,0.0,0.0,0.0,0.0,0.0,0.0,0.0,0.0,0.0,0.0,0.0,0.0,0.0,0.0,0.0,0.0,0.0,0.0,0.0,0.0,0.0,0.0,0.0,0.0,0.0,0.0,0.0,0.0,0.0,0.0,0.0,0.0,0.0,0.0,0.0,0.0,0.0,0.0,0.0,0.0,0.0,0.0,0.0,0.0,0.0,0.0,0.0,0.0,0.0,0.0,0.0,0.0,0.0,0.0,0.0,0.0,0.0,0.0,0.0,0.0,0.0,0.0,0.0,0.0,0.0,0.0,0.0,0.0,0.9704,0.0,0.9791,0.0,0.9697,0.9653,0.0,0.0,0.0,0.0,0.0,0.0,0.0,0.0,0.0,0.0,0.0,0.0,0.0,0.0,0.0,0.0,0.0,0.0,0.0,0.0,0.0,0.0,0.0,0.0,0.0,0.0,0.0,0.0,0.0,0.0,0.0,0.0,0.0,0.0,0.0,0.0,0.0,0.0,0.0,0.0,0.0,0.0,0.0,0.0,0.0,0.0,0.0,0.0,0.0,0.0,0.0,0.0,0.0,0.0,0.0,0.0,0.0,0.0,0.0,0.0,0.0,0.0,0.0,0.0,0.0,0.0,0.0,0.0,0.0,0.0,0.0,0.0,0.0,0.0,0.0,0.0,0.0,0.0,0.0,0.0,0.0,0.0,0.0,0.0,0.0,0.0,0.0,0.0,0.0,0.0,0.0,0.0,0.0,0.0,0.0,0.0,0.0,0.0,0.0,0.0,0.0,0.0,0.0,0.0,0.0,0.0,0.0,0.0,0.9696,0.9704,0.9768,0.9818,0.9813,0.9818,0.9757,0.0,0.0,0.0,0.0,0.0,0.0,0.0,0.0,0.0,0.0,0.0,0.0,0.0,0.0,0.0,0.0,0.0,0.0,0.0,0.0,0.0,0.0,0.0,0.0,0.0,0.0,0.0,0.0,0.0,0.0,0.0,0.0,0.0,0.0,0.0,0.0,0.0,0.0,0.0,0.0,0.0,0.0,0.0,0.0,0.0,0.0,0.0,0.0,0.0,0.0,0.0,0.0,0.0,0.0,0.0,0.0,0.0,0.0,0.0,0.0,0.0,0.0,0.0,0.0,0.0,0.0,0.0,0.0,0.0,0.0,0.0,0.0,0.0,0.0,0.0,0.0,0.0,0.0,0.0,0.0,0.0,0.0,0.0,0.0,0.0,0.0,0.0,0.0,0.0,0.0,0.0,0.0,0.0,0.0,0.0,0.0,0.0,0.0,0.0,0.0,0.0,0.0,0.0,0.0,0.0,0.0,0.0,0.0,0.0,0.9575,0.9755,1.0167,1.0714,1.0171,1.0135,0.0,0.0,0.0,0.0,0.0,0.0,0.0,0.0,0.0,0.0,0.0,0.0,0.0,0.0,0.0,0.0,0.0,0.0,0.0,0.0,0.0,0.0,0.0,0.0,0.0,0.0,0.0,0.0,0.0,0.0,0.0,0.0,0.0,0.0,0.0,0.0,0.0,0.0,0.0,0.0,0.0,0.0,0.0,0.0,0.0,0.0,0.0,0.0,0.0,0.0,0.0,0.0,0.0,0.0,0.0,0.0,0.0,0.0,0.0,0.0,0.0,0.0,0.0,0.0,0.0,0.0,0.0,0.0,0.0,0.0,0.0,0.0,0.0,0.0,0.0,0.0,0.0,0.0,0.0,0.0,0.0,0.0,0.0,0.0,0.0,0.0,0.0,0.0,0.0,0.0,0.0,0.0,0.0,0.0,0.0,0.0,0.0,0.0,0.0,0.0,0.0,0.0,0.0,0.0,0.0,0.0,0.0,0.0,0.0,0.9859,1.0107,1.053,1.115,1.06,1.0433,1.068,0.0,0.0,0.0,0.0,0.0,0.0,0.0,0.0,0.0,0.0,0.0,0.0,0.0,0.0,0.0,0.0,0.0,0.0,0.0,0.0,0.0,0.0,0.0,0.0,0.0,0.0,0.0,0.0,0.0,0.0,0.0,0.0,0.0,0.0,0.0,0.0,0.0,0.0,0.0,0.0,0.0,0.0,0.0,0.0,0.0,0.0,0.0,0.0,0.0,0.0,0.0,0.0,0.0,0.0,0.0,0.0,0.0,0.0,0.0,0.0,0.0,0.0,0.0,0.0,0.0,0.0,0.0,0.0,0.0,0.0,0.0,0.0,0.0,0.0,0.0,0.0,0.0,0.0,0.0,0.0,0.0,0.0,0.0,0.0,0.0,0.0,0.0,0.0,0.0,0.0,0.0,0.0,0.0,0.0,0.0,0.0,0.0,0.0,0.0,0.0,0.0,0.0,0.0,0.0,0.0,0.0,0.0,0.0,1.0567,1.0808,1.1033,1.1253,1.108,1.0702,0.0,0.0,0.0,0.0,0.0,0.0,0.0,0.0,0.0,0.0,0.0,0.0,0.0,0.0,0.0,0.0,0.0,0.0,0.0,0.0,0.0,0.0,0.0,0.0,0.0,0.0,0.0,0.0,0.0,0.0,0.0,0.0,0.0,0.0,0.0,0.0,0.0,0.0,0.0,0.0,0.0,0.0,0.0,0.0,0.0,0.0,0.0,0.0,0.0,0.0,0.0,0.0,0.0,0.0,0.0,0.0,0.0,0.0,0.0,0.0,0.0,0.0,0.0,0.0,0.0,0.0,0.0,0.0,0.0,0.0,0.0,0.0,0.0,0.0,0.0,0.0,0.0,0.0,0.0,0.0,0.0,0.0,0.0,0.0,0.0,0.0,0.0,0.0,0.0,0.0,0.0,0.0,0.0,0.0,0.0,0.0,0.0,0.0,0.0,0.0,0.0,0.0,0.0,0.0,0.0,0.0,0.0,0.0,0.0,1.1378,1.2122,1.2619,1.2829,1.165,1.1208,0.0,0.0,0.0,0.0,0.0,0.0,0.0,0.0,0.0,0.0,0.0,0.0,0.0,0.0,0.0,0.0,0.0,0.0,0.0,0.0,0.0,0.0,0.0,0.0,0.0,0.0,0.0,0.0,0.0,0.0,0.0,0.0,0.0,0.0,0.0,0.0,0.0,0.0,0.0,0.0,0.0,0.0,0.0,0.0,0.0,0.0,0.0,0.0,0.0,0.0,0.0,0.0,0.0,0.0,0.0,0.0,0.0,0.0,0.0,0.0,0.0,0.0,0.0,0.0,0.0,0.0,0.0,0.0,0.0,0.0,0.0,0.0,0.0,0.0,0.0,0.0,0.0,0.0,0.0,0.0,0.0,0.0,0.0,0.0,0.0,0.0,0.0,0.0,0.0,0.0,0.0,0.0,0.0,0.0,0.0,0.0,0.0,0.0,0.0,0.0,0.0,0.0,0.0,0.0,0.0,0.0,0.0,0.0,1.139,1.2288,1.3115,1.37,1.3996,1.2676,1.1919,0.0,0.0,0.0,0.0,0.0,0.0,0.0,0.0,0.0,0.0,0.0,0.0,0.0,0.0,0.0,0.0,0.0,0.0,0.0,0.0,0.0,0.0,0.0,0.0,0.0,0.0,0.0,0.0,0.0,0.0,0.0,0.0,0.0,0.0,0.0,0.0,0.0,0.0,0.0,0.0,0.0,0.0,0.0,0.0,0.0,0.0,0.0,0.0,0.0,0.0,0.0,0.0,0.0,0.0,0.0,0.0,0.0,0.0,0.0,0.0,0.0,0.0,0.0,0.0,0.0,0.0,0.0,0.0,0.0,0.0,0.0,0.0,0.0,0.0,0.0,0.0,0.0,0.0,0.0,0.0,0.0,0.0,0.0,0.0,0.0,0.0,0.0,0.0,0.0,0.0,0.0,0.0,0.0,0.0,0.0,0.0,0.0,0.0,0.0,0.0,0.0,0.0,0.0,0.0,0.0,0.0,0.0,0.0,1.2175,1.3222,1.399,1.4546,1.4807,1.387,1.2692,0.0,0.0,0.0,0.0,0.0,0.0,0.0,0.0,0.0,0.0,0.0,0.0,0.0,0.0,0.0,0.0,0.0,0.0,0.0,0.0,0.0,0.0,0.0,0.0,0.0,0.0,0.0,0.0,0.0,0.0,0.0,0.0,0.0,0.0,0.0,0.0,0.0,0.0,0.0,0.0,0.0,0.0,0.0,0.0,0.0,0.0,0.0,0.0,0.0,0.0,0.0,0.0,0.0,0.0,0.0,0.0,0.0,0.0,0.0,0.0,0.0,0.0,0.0,0.0,0.0,0.0,0.0,0.0,0.0,0.0,0.0,0.0,0.0,0.0,0.0,0.0,0.0,0.0,0.0,0.0,0.0,0.0,0.0,0.0,0.0,0.0,0.0,0.0,0.0,0.0,0.0,0.0,0.0,0.0,0.0,0.0,0.0,0.0,0.0,0.0,0.0,0.0,0.0,0.0,0.0,0.0,0.0,0.0,1.2803,1.4172,1.5177,1.5786,1.5934,1.4335,1.3058,0.0,0.0,0.0,0.0,0.0,0.0,0.0,0.0,0.0,0.0,0.0,0.0,0.0,0.0,0.0,0.0,0.0,0.0,0.0,0.0,0.0,0.0,0.0,0.0,0.0,0.0,0.0,0.0,0.0,0.0,0.0,0.0,0.0,0.0,0.0,0.0,0.0,0.0,0.0,0.0,0.0,0.0,0.0,0.0,0.0,0.0,0.0,0.0,1.123,0.0,0.0,0.0,0.0,0.0,0.0,0.0,0.0,0.0,0.0,0.0,0.0,0.0,0.0,0.0,0.0,0.0,0.0,0.0,0.0,0.0,0.0,0.0,0.0,0.0,0.0,0.0,0.0,0.0,0.0,0.0,0.0,0.0,0.0,0.0,0.0,0.0,0.0,0.0,0.0,0.0,0.0,0.0,0.0,0.0,0.0,0.0,0.0,0.0,0.0,0.0,0.0,0.0,0.0,0.0,0.0,0.0,0.0,0.0,1.3616,1.5115,1.5781,1.6151,1.6259,1.5352,1.407,0.0,0.0,0.0,0.0,0.0,0.0,0.0,0.0,0.0,0.0,0.0,0.0,0.0,0.0,0.0,0.0,0.0,0.0,0.0,0.0,0.0,0.0,0.0,0.0,0.0,0.0,0.0,0.0,0.0,0.0,0.0,0.0,0.0,0.0,0.0,0.0,0.0,0.0,0.0,0.0,0.0,0.0,0.0,0.0,0.0,0.0,0.0,0.0,0.0,0.0,0.0,0.0,0.0,0.0,0.0,0.0,0.0,0.0,0.0,0.0,0.0,0.0,0.0,0.0,0.0,0.0,0.0,0.0,0.0,0.0,0.0,0.0,0.0,0.0,0.0,0.0,0.0,0.0,0.0,0.0,0.0,0.0,0.0,0.0,0.0,0.0,0.0,0.0,0.0,0.0,0.0,0.0,0.0,0.0,0.0,0.0,0.0,0.0,0.0,0.0,0.0,0.0,0.0,0.0,0.0,0.0,0.0,1.3095,1.4368,1.6062,1.6406,1.6538,1.652,1.6508,1.5243,1.2618,0.0,0.0,0.0,0.0,0.0,0.0,0.0,0.0,0.0,0.0,0.0,0.0,0.0,0.0,0.0,0.0,0.0,0.0,0.0,0.0,0.0,0.0,0.0,0.0,0.0,0.0,0.0,0.0,0.0,0.0,0.0,0.0,0.0,0.0,0.0,0.0,0.0,0.0,0.9297,1.0781,0.0,0.0,0.0,0.0,0.0,0.0,0.0,0.0,1.1587,0.0,0.0,0.0,0.0,0.0,0.0,0.0,0.0,0.0,0.0,0.0,0.0,0.0,0.0,0.0,0.0,0.0,0.0,0.0,0.0,0.0,0.0,0.0,0.0,0.0,0.0,0.0,0.0,0.0,0.0,0.0,0.0,0.0,0.0,0.0,0.0,0.0,0.0,0.0,0.0,0.0,0.0,0.0,0.0,0.0,0.0,0.0,0.0,0.0,0.0,0.0,0.0,0.0,0.0,0.0,0.0,1.3078,1.3474,1.4797,1.7087,1.8069,1.8196,1.7502,1.7415,1.5847,1.2737,0.0,0.0,0.0,0.0,0.0,0.0,0.0,0.0,0.0,0.0,0.0,0.0,0.0,0.0,0.0,0.0,0.0,0.0,0.0,0.0,0.0,0.0,0.0,0.0,0.0,0.0,0.0,0.0,0.0,0.0,0.0,0.0,0.0,0.0,0.0,0.0,0.0,0.0,0.0,1.2051,1.2695,0.0,0.0,0.0,0.0,0.0,0.0,0.0,0.0,1.1719,0.0,0.0,0.0,0.0,0.0,0.0,0.0,0.0,0.0,0.0,0.0,0.0,0.0,0.0,0.0,0.0,0.0,0.0,0.0,0.0,0.0,0.0,0.0,0.0,0.0,0.0,0.0,0.0,0.0,0.0,0.0,0.0,0.0,0.0,0.0,0.0,0.0,0.0,0.0,0.0,0.0,0.0,0.0,0.0,0.0,0.0,0.0,0.0,0.0,0.0,0.0,0.0,0.0,0.0,0.0,1.266,1.4179,1.5756,1.7371,1.8452,1.8787,1.8372,1.7443,1.5747,0.0,0.0,0.0,0.0,0.0,0.0,0.0,0.0,0.0,0.0,0.0,0.0,0.0,0.0,0.0,0.0,0.0,0.0,0.0,0.0,0.0,0.0,0.0,0.0,0.0,0.0,0.0,0.0,0.0,0.0,0.0,0.0,0.0,0.0,0.0,0.0,0.0,0.0,0.0,0.0,1.3008,1.3516,1.3516,0.0,0.0,0.0,0.0,0.0,0.0,1.2327,1.1762,0.0,0.0,0.0,0.0,0.0,0.0,0.0,0.0,0.0,0.0,0.0,0.0,0.0,0.0,0.0,0.0,0.0,0.0,0.0,0.0,0.0,0.0,0.0,0.0,0.0,0.0,0.0,0.0,0.0,0.0,0.0,0.0,0.0,0.0,0.0,0.0,0.0,0.0,0.0,0.0,0.0,0.0,0.0,0.0,0.0,0.0,0.0,0.0,0.0,0.0,0.0,0.0,0.0,0.0,0.0,1.2175,1.4717,1.6486,1.7388,1.8584,1.9051,1.8714,1.729,1.5576,0.0,0.0,0.0,0.0,0.0,0.0,0.0,0.0,0.0,0.0,0.0,0.0,0.0,0.0,0.0,0.0,0.0,0.0,0.0,0.0,0.0,0.0,0.0,0.0,0.0,0.0,0.0,0.0,0.0,0.0,0.0,0.0,0.0,0.0,0.0,0.0,0.0,0.0,0.0,0.0,0.0,1.457,1.4394,1.4355,0.0,0.0,0.0,0.0,1.4316,1.3415,0.0,0.0,0.0,0.0,0.0,0.0,0.0,0.0,0.0,0.0,0.0,0.0,0.0,0.0,0.0,0.0,0.0,0.0,0.0,0.0,0.0,0.0,0.0,0.0,0.0,0.0,0.0,0.0,0.0,0.0,0.0,0.0,0.0,0.0,0.0,0.0,0.0,0.0,0.0,0.0,0.0,0.0,0.0,0.0,0.0,0.0,0.0,0.0,0.0,0.0,0.0,0.0,0.0,0.0,0.0,0.0,1.215,1.4623,1.6398,1.7418,1.9028,1.9212,1.7809,1.7436,1.5756,0.0,0.0,0.0,0.0,0.0,0.0,0.0,0.0,0.0,0.0,0.0,0.0,0.0,0.0,0.0,0.0,0.0,0.0,0.0,0.0,0.0,0.0,0.0,0.0,0.0,0.0,0.0,0.0,0.0,0.0,0.0,0.0,0.0,0.0,0.0,0.0,0.0,0.0,0.0,0.0,0.0,1.6113,1.5371,1.5254,1.5488,0.0,0.0,1.5292,1.6254,1.6177,0.0,0.0,0.0,0.0,0.0,0.0,0.0,0.0,0.0,0.0,0.0,0.0,0.0,0.0,0.0,0.0,0.0,0.0,0.0,0.0,0.0,0.0,0.0,0.0,0.0,0.0,0.0,0.0,0.0,0.0,0.0,0.0,0.0,0.0,0.0,0.0,0.0,0.0,0.0,0.0,0.0,0.0,0.0,0.0,0.0,0.0,0.0,0.0,0.0,0.0,0.0,0.0,0.0,0.0,0.0,1.171,1.2813,1.5333,1.7104,1.8075,1.9328,1.9491,1.8436,1.731,1.558,0.0,0.0,0.0,0.0,0.0,0.0,0.0,0.0,0.0,0.0,0.0,0.0,0.0,0.0,0.0,0.0,0.0,0.0,0.0,0.0,0.0,0.0,0.0,0.0,0.0,0.0,0.0,0.0,0.0,0.0,0.0,0.0,0.0,0.0,0.0,0.0,0.0,0.0,0.0,0.0,0.0,0.0,1.6777,1.6875,0.0,0.0,0.0,1.6425,1.7254,0.0,0.0,0.0,0.0,0.0,0.0,0.0,0.0,0.0,0.0,0.0,0.0,0.0,0.0,0.0,0.0,0.0,0.0,0.0,0.0,0.0,0.0,0.0,0.0,0.0,0.0,0.0,0.0,0.0,0.0,0.0,0.0,0.0,0.0,0.0,0.0,0.0,0.0,0.0,0.0,0.0,0.0,0.0,0.0,0.0,0.0,0.0,0.0,0.0,0.0,0.0,0.0,0.0,0.0,0.0,0.0,0.0,1.3322,1.5823,1.7589,1.8528,1.946,1.9626,1.8913,1.7327,0.0,0.0,0.0,0.0,0.0,0.0,0.0,0.0,0.0,0.0,0.0,0.0,0.0,0.0,0.0,0.0,0.0,0.0,0.0,0.0,0.0,0.0,0.0,0.0,0.0,0.0,0.0,0.5762,0.0,0.0,0.0,0.0,0.0,0.0,0.0,0.0,0.0,0.0,0.0,0.0,0.0,0.0,1.6289,1.7793,1.8379,1.8652,0.0,0.0,1.7871,1.849,1.7454,1.6061,0.0,0.0,0.0,0.0,0.0,0.0,0.0,0.0,0.0,0.0,0.0,0.0,0.0,0.0,0.0,0.0,0.0,0.0,0.0,0.0,0.0,0.0,0.0,0.0,0.0,0.0,0.0,0.0,0.0,0.0,0.0,0.0,0.0,0.0,0.0,0.0,0.0,0.0,0.0,0.0,0.0,0.0,0.0,0.0,0.0,0.0,0.0,0.0,0.0,0.0,0.0,0.0,0.0,0.0,0.0,1.3353,1.568,1.7421,1.8407,1.9342,1.9422,1.865,1.7792,1.613,0.0,0.0,0.0,0.0,0.0,0.0,0.0,0.0,0.0,0.0,0.0,0.0,0.0,0.0,0.0,0.0,0.0,0.0,0.0,0.0,0.0,0.0,0.0,0.0,0.0,0.0,0.0,0.0,0.0,0.0,0.0,0.0,0.0,0.0,0.0,0.0,0.0,0.0,0.0,0.0,0.0,1.6953,1.7891,1.9394,2.043,0.0,0.0,2.0371,2.041,2.0209,1.8978,1.5826,0.0,0.0,0.0,0.0,0.0,0.0,0.0,0.0,0.0,0.0,0.0,0.0,0.0,0.0,0.0,0.0,0.0,0.0,0.0,0.0,0.0,0.0,0.0,0.0,0.0,0.0,0.0,0.0,0.0,0.0,0.0,0.0,0.0,0.0,0.0,0.0,0.0,0.0,0.0,0.0,0.0,0.0,0.0,0.0,0.0,0.0,0.0,0.0,0.0,0.0,0.0,0.0,0.0,1.2615,1.4038,1.5918,1.7613,1.9074,1.9497,1.9374,1.8747,1.7783,1.616,0.0,0.0,0.0,0.0,0.0,0.0,0.0,0.0,0.0,0.0,0.0,0.0,0.0,0.0,0.0,0.0,0.0,0.0,0.0,0.0,0.0,0.0,0.0,0.0,0.0,0.0,0.0,0.0,0.789,0.8117,0.842,0.0,0.0,0.0,0.0,0.0,0.0,0.0,0.0,0.0,0.0,1.7399,1.9336,2.0176,0.0,0.0,2.0605,2.0781,2.1328,1.9951,1.8424,1.7157,1.5547,0.0,0.0,0.0,0.0,0.0,0.0,0.0,0.0,0.0,0.0,0.0,0.0,0.0,0.0,0.0,0.0,0.0,0.0,0.0,0.0,0.0,0.0,0.0,0.0,0.0,0.0,0.0,0.0,0.0,0.0,0.0,0.0,0.0,0.0,0.0,0.0,0.0,0.0,0.0,0.0,0.0,0.0,0.0,0.0,0.0,0.0,0.0,0.0,0.0,0.0,0.0,0.0,1.3169,1.4848,1.6456,1.7991,1.9473,1.9562,1.9417,1.902,1.8074,1.6581,0.0,0.0,0.0,0.0,0.0,0.0,0.0,0.0,0.0,0.0,0.0,0.0,0.0,0.0,0.0,0.0,0.0,0.0,0.0,0.0,0.0,0.0,0.0,0.0,0.0,0.0,0.0,0.0,0.8789,0.8976,0.8911,0.0,0.0,0.0,0.0,0.0,0.0,0.0,0.0,0.0,0.0,1.7999,2.0605,2.1191,2.1348,2.1367,2.1387,2.1504,2.1836,2.0308,1.8789,1.8031,0.0,0.0,0.0,0.0,0.0,0.0,0.0,0.0,0.0,0.0,0.0,0.0,0.0,0.0,0.0,0.0,0.0,0.0,0.0,0.0,0.0,0.0,0.0,0.0,0.0,0.0,0.0,0.0,0.0,0.0,0.895,0.0,0.0,0.0,0.0,0.0,0.0,0.0,0.0,0.0,0.0,0.0,0.0,0.0,0.0,0.0,0.0,0.0,0.0,0.0,0.0,0.0,0.0,1.4046,1.5658,1.7215,1.8471,1.929,1.9496,1.9589,1.9553,1.8777,1.7625,1.6028,0.0,0.0,0.0,0.0,0.0,0.0,0.0,0.0,0.0,0.0,0.0,0.0,0.0,0.0,0.0,0.0,0.0,0.0,0.0,0.0,0.0,0.0,0.0,0.0,0.0,0.0,1.0312,0.9512,0.9,0.0,0.0,0.0,0.0,0.0,0.0,0.0,0.0,0.0,0.0,1.7316,1.8855,2.1504,2.2519,2.2988,2.3047,2.3105,2.2832,2.2051,2.1752,2.0855,0.0,0.0,0.0,0.0,0.0,0.0,0.0,0.0,0.0,0.0,0.0,0.0,0.0,0.0,0.0,0.0,0.0,0.0,0.0,0.0,0.0,0.0,0.0,0.0,0.0,0.0,0.0,1.2962,1.2505,0.0,0.0,0.0,0.0,0.0,0.0,0.0,0.0,0.0,0.0,0.0,1.5603,1.5656,0.0,0.0,0.0,0.0,0.0,0.0,0.0,0.0,0.0,0.0,0.0,0.0,1.4088,1.5677,1.7285,1.85,1.9264,1.9357,1.9471,1.9586,1.8689,1.7266,1.5304,0.0,0.0,0.0,0.0,0.0,0.0,0.0,0.0,0.0,0.0,0.0,0.0,0.0,0.0,0.0,0.0,0.0,0.0,0.0,0.0,0.0,0.0,0.0,0.0,0.0,1.1484,0.0,0.0,0.0,0.0,0.0,0.0,0.0,0.0,0.0,0.0,0.0,1.5344,1.7997,1.9037,2.0325,2.2402,2.291,2.293,0.0,0.0,0.0,0.0,0.0,0.0,0.0,0.0,0.0,0.0,0.0,0.0,0.0,0.0,2.0492,1.6573,1.4973,1.427,1.4252,0.0,0.0,0.0,0.0,0.0,0.0,0.0,0.0,0.0,0.0,0.0,0.0,0.0,0.0,1.5438,0.0,1.4409,0.0,0.0,0.0,0.0,0.0,0.0,0.0,0.0,1.6689,1.7377,1.785,1.7934,1.7835,0.0,1.7271,1.5974,0.0,0.0,0.0,0.0,0.0,0.0,0.0,0.0,1.4927,1.6525,1.7909,1.8845,1.9286,1.9361,1.9423,1.9477,1.8684,1.7433,1.5727,1.5118,1.4018,0.0,0.0,0.0,0.0,0.0,0.0,0.0,0.0,0.0,0.0,0.0,0.0,0.0,0.0,0.0,0.0,0.0,0.0,0.0,0.0,0.0,0.0,0.0,1.1719,0.0,0.0,0.0,0.0,0.0,0.0,0.0,0.0,0.0,1.3641,1.5294,1.7294,1.9352,2.0328,2.1522,2.33,0.0,0.0,0.0,0.0,0.0,0.0,0.0,2.2055,2.2828,2.2053,2.1159,2.0749,2.1805,2.2541,2.1899,0.0,0.0,1.8685,1.7129,1.6297,1.6022,1.6367,1.6541,1.6073,1.6853,1.7483,0.0,0.0,0.0,0.0,0.0,0.0,0.0,0.0,1.7931,1.7457,0.0,1.6306,0.0,0.0,0.0,0.0,0.0,1.6079,0.0,0.0,1.9258,2.0008,2.0027,2.0218,2.0004,1.9455,2.0573,2.0001,1.7765,1.5593,0.0,0.0,0.0,0.0,0.0,0.0,1.6518,1.8027,1.9044,1.9499,1.9308,1.9492,1.9503,1.9298,1.8818,1.8175,1.7361,1.6823,1.5772,1.4052,1.3215,0.0,0.0,0.0,0.0,0.0,0.0,0.0,0.0,0.0,0.0,0.0,0.0,0.0,0.0,0.0,0.0,0.0,0.0,0.0,0.0,1.166,0.0,0.0,0.0,0.0,0.0,0.0,0.0,0.0,0.0,0.0,1.5673,1.7566,1.9434,2.0412,0.0,0.0,0.0,0.0,2.3745,2.5268,2.4803,2.4219,2.418,2.4178,2.3882,2.3127,0.0,0.0,2.2718,2.3559,2.3896,2.2235,2.2633,2.3043,2.2914,2.131,1.9999,1.9286,1.9109,1.9155,1.9254,2.0245,2.1451,2.4044,0.0,0.0,0.0,0.0,2.1862,2.2473,2.3531,2.2629,2.154,2.031,1.9826,0.0,0.0,0.0,0.0,0.0,0.0,1.868,1.9383,1.9805,2.0302,2.0835,2.0357,2.0292,2.0654,2.0657,2.0689,2.0684,1.9206,1.6976,1.4215,0.0,0.0,0.0,0.0,1.7062,1.8074,1.8945,1.9368,1.9301,1.9376,1.9376,1.9301,1.9388,1.9035,1.8181,1.8251,1.7507,1.583,1.4945,0.0,0.0,0.0,0.0,0.0,0.0,0.0,0.0,0.0,0.0,0.0,0.0,0.0,0.0,0.0,0.0,0.0,0.0,0.0,1.248,1.3047,1.3477,0.0,0.0,0.0,0.0,0.0,0.0,0.0,0.0,0.0,1.9598,2.0312,2.138,0.0,0.0,2.3983,2.5101,2.504,2.4829,2.4622,0.0,0.0,0.0,2.4201,2.4316,2.4617,2.4931,2.4908,2.4326,2.4373,2.4387,2.3974,2.4017,2.3936,2.3386,2.23,2.1347,2.1074,2.1042,2.1019,2.1074,2.1493,2.1817,2.7702,2.5303,2.4517,2.4363,2.4577,2.4312,2.4761,2.565,2.4894,2.3964,2.2935,2.2637,2.1573,2.0004,1.971,0.0,0.0,0.0,2.1075,2.1779,2.1786,2.1887,2.2037,2.1576,2.1295,2.1193,2.0939,2.1249,2.2027,2.1389,1.9834,1.7444,0.0,0.0,1.5979,1.6893,1.7759,1.8563,1.9133,1.9391,1.9282,1.9282,1.9282,1.9305,1.9591,1.9509,1.9038,1.9264,1.8793,1.7544,1.6657,1.5429,0.0,0.0,0.0,0.0,0.0,0.0,0.0,0.0,0.0,0.0,0.0,1.1582,1.041,0.0,0.0,0.0,1.2422,1.3477,1.4316,1.4822,0.0,0.0,0.0,0.0,0.0,0.0,0.0,1.7564,1.935,2.0865,2.1891,2.2579,2.3327,2.416,2.4229,2.4544,2.5436,0.0,2.4925,2.4687,2.5103,2.5238,2.4728,2.4629,2.4805,2.5288,2.5231,2.5094,2.501,2.4824,2.4723,2.4756,2.47,2.4489,2.4088,2.3446,2.2746,2.2143,2.2254,2.2459,2.2459,2.2669,2.2879,3.0719,2.9496,2.7627,2.684,2.6756,2.6416,2.6279,2.6235,2.5635,2.5278,2.5106,2.4813,2.4244,2.3427,2.2784,0.0,2.3492,2.3477,2.3806,2.4498,2.4515,2.4143,2.3485,2.3485,2.2781,2.1468,2.1582,2.1869,2.2234,2.2391,2.2243,2.1796,1.9542,1.8368,1.8313,1.8353,1.8739,1.9389,1.9593,1.9559,1.9305,1.9282,1.9282,1.9282,1.9496,1.9656,1.9784,1.9919,1.9721,1.9119,1.8278,1.7067,1.5474,0.0,0.0,0.0,0.0,0.0,0.0,0.0,0.0,0.0,0.0,0.0,0.0,0.0,0.0,0.0,1.4512,0.0,1.6719,1.6806,0.0,0.0,0.0,1.6518,1.5774,1.7785,1.8942,1.8276,0.0,0.0,2.2987,0.0,2.5045,2.4383,2.4233,2.4518,2.5357,2.4793,2.4507,2.5368,2.5459,2.5447,2.558,2.5592,2.5608,2.5647,2.55,2.5531,2.5385,2.5291,2.5171,2.5205,2.507,2.507,2.5058,2.5091,2.457,2.318,2.3248,2.3592,2.3609,2.4001,2.4365,3.0782,2.9933,2.9464,2.8923,2.8386,2.8636,2.8706,2.8654,2.8506,2.7624,2.6306,2.6216,2.5472,2.422,2.4043,2.4068,2.4237,2.4237,2.4321,2.4491,2.4515,2.4406,2.4237,2.4237,2.4051,2.3703,2.3202,2.3137,2.343,2.2559,2.2175,2.2287,2.1374,2.0597,1.9979,2.0592,2.0688,2.0217,2.0261,1.9956,1.9319,1.9282,1.9282,1.9301,1.9499,1.9675,1.9787,1.994,1.9989,1.9958,1.9163,1.8206,1.7122,1.4944,0.0,0.0,0.0,0.0,0.0,0.0,0.0,0.0,0.0,1.3809,1.1465,0.0,1.3809,0.0,1.5391,1.6718,1.7528,1.82,0.0,0.0,1.902,1.9587,2.0047,2.0574,2.1329,2.2453,2.3302,2.4007,2.4618,2.5038,2.5243,2.5042,2.5087,2.5182,2.5381,2.5265,2.5383,2.6142,2.6294,2.6522,2.7082,2.7296,2.7236,2.7274,2.7255,2.7264,2.7196,2.7079,2.7026,2.7113,2.7046,2.7001,2.7078,2.7164,2.7027,2.6548,2.5488,2.4483,2.4502,2.4636,2.4731,3.1954,3.1383,3.1239,3.0697,2.9902,2.966,2.9536,2.9496,2.9343,2.8706,2.7732,2.7715,2.7266,2.6513,2.6505,2.6319,2.5981,2.5964,2.5786,2.5489,2.5489,2.5295,2.4991,2.4991,2.4812,2.4474,2.4077,2.405,2.433,2.3469,2.3205,2.35,2.3076,2.263,2.2162,2.1937,2.1551,2.1084,2.069,2.0287,1.9836,1.9481,1.9477,1.984,1.994,2.0068,2.0232,2.0375,2.037,2.0154,1.9788,1.918,1.8301,1.661,1.5258,0.0,0.0,0.0,0.0,0.0,0.0,0.0,0.0,0.0,0.0,0.0,1.4844,1.5234,1.6836,1.8026,1.8438,1.9589,2.0279,2.0229,2.1274,2.2036,2.2122,2.2446,2.2891,2.3454,2.3858,2.4281,2.4714,2.5406,2.5885,2.5885,2.6258,2.6378,2.605,2.6241,2.6696,2.7112,2.7178,2.7335,2.7857,2.789,2.789,2.789,2.789,2.789,2.789,2.7813,2.7767,2.7871,2.7793,2.7762,2.786,2.789,2.789,2.7739,2.6985,2.6263,2.619,2.6116,2.6036,3.3366,3.3041,3.273,3.2191,3.1389,3.0431,2.9877,2.9696,2.9402,2.923,2.9128,2.9044,2.8993,2.8993,2.8993,2.8611,2.7976,2.7942,2.7596,2.7004,2.6886,2.6505,2.5888,2.5778,2.5406,2.4795,2.4694,2.4812,2.5072,2.4624,2.4547,2.4866,2.4473,2.4298,2.4286,2.2854,2.2051,2.1941,2.1106,2.0658,2.0654,1.9968,1.9968,2.0621,2.0562,2.0593,2.0789,2.0934,2.0761,2.0212,2.0448,2.0215,1.9357,1.8413,1.7511,0.0,1.5909,0.0,0.0,0.0,0.0,0.0,0.0,0.0,0.0,1.6211,1.6269,1.7129,1.8691,1.9647,1.9689,2.1093,2.1953,2.1846,2.3263,2.3915,2.3107,2.374,2.398,2.3202,2.3904,2.443,2.4589,2.5834,2.6795,2.687,2.7513,2.7776,2.7203,2.747,2.7829,2.8029,2.8153,2.836,2.8386,2.8315,2.8313,2.8275,2.8352,2.8217,2.8332,2.8294,2.8255,2.8277,2.8349,2.8291,2.8217,2.8258,2.8277,2.8332,2.8242,2.8082,2.7789,2.7596,2.7654,3.3397,3.3335,3.3264,3.3131,3.2966,3.2744,3.1987,3.0876,3.0806,3.0446,2.9854,2.9281,2.8993,2.8993,2.8993,2.8925,2.8764,2.879,2.8705,2.8536,2.79,2.7519,2.735,2.6776,2.6429,2.626,2.5659,2.5421,2.5466,2.5084,2.504,2.5336,2.4907,2.4849,2.5107,0.0,0.0,0.0,2.1969,2.1555,2.1551,2.1413,2.1394,2.1533,2.0864,0.0,2.0785,2.0975,2.1071,2.1092,2.1868,0.0,0.0,0.0,0.0,0.0,0.0,0.0,0.0,0.0,0.0,0.0,1.791,1.7852,1.6855,1.7832,1.8926,1.9805,2.0801,2.1678,2.2308,2.3162,2.3436,2.2808,2.4111,2.4755,2.3992,2.4586,2.5002,2.4948,2.5667,2.6227,2.6303,2.7195,2.78,2.7849,2.857,2.9012,2.8874,2.833,2.82,2.8817,2.9423,2.9888,2.9991,2.9893,2.9784,2.9923,2.9926,2.9885,2.983,2.9868,2.9885,2.9846,2.9926,2.9885,2.9888,2.9926,2.9811,2.9904,2.9885,2.9522,2.8198,2.7874,2.7838,3.3931,0.0,3.3548,3.3389,0.0,3.3389,3.2973,3.2256,3.1894,3.1326,3.0606,3.0253,3.0083,3.0083,3.0083,2.988,2.955,2.9542,2.9339,2.8993,2.8595,2.8399,2.8357,2.7596,2.7258,2.7215,2.6488,2.615,2.6116,2.5747,2.5649,2.5796,2.5538,2.5489,2.5668,2.511,2.4396,2.3602,2.279,2.2319,2.2135,2.1907,2.1715,2.1539,0.0,0.0,0.0,0.0,0.0,0.0,0.0,0.0,0.0,0.0,0.0,1.9096,1.905,1.891,1.8637,1.9764,2.0486,2.0539,2.093,2.0641,1.9375,2.0449,2.1348,2.1777,2.2246,2.2655,2.307,2.379,2.4087,2.3706,2.4662,2.5371,2.5478,2.5786,2.6213,2.6684,2.7125,2.7397,2.7427,2.8207,2.8693,2.8771,2.9465,2.9981,2.9984,2.9575,2.9425,2.9836,3.0189,3.0492,3.0494,3.0472,3.0425,3.0411,3.0404,3.0404,3.0404,3.0404,3.0404,3.0404,3.0404,3.0404,3.0404,3.0404,3.0404,3.0404,3.0404,3.0192,2.9291,2.9137,2.9118,3.4703,3.4641,3.4049,3.3785,3.3785,3.3785,3.3717,3.3541,0.0,0.0,0.0,3.1579,3.1522,3.1403,3.1403,3.0987,3.0328,3.0301,2.9973,2.9399,2.9237,2.9187,2.9153,2.8391,2.8019,2.7959,2.7249,2.6894,2.6877,2.6432,2.6241,2.6276,2.612,2.5977,2.5907,2.5699,2.5227,2.442,2.3571,2.2996,2.2708,2.2279,2.1961,2.1729,2.1867,2.1609,2.0984,2.1795,2.2023,2.157,2.2467,2.2675,2.2015,2.1966,2.1587,2.0862,2.1586,2.2057,2.2016,2.2762,2.3239,2.3283,2.3448,2.3151,2.2207,2.2715,2.3223,2.3516,2.3555,2.3691,2.3993,2.459,2.4986,2.5014,2.5562,2.6255,2.6902,2.7039,2.7292,2.7991,2.821,2.8352,2.8401,2.9139,2.9655,2.9733,3.0207,3.0658,3.0711,3.0567,3.0464,3.0527,3.0562,3.0576,3.0542,3.0521,3.0485,3.0428,3.0417,3.0419,3.039,3.0404,3.0404,3.0404,3.0404,3.0404,3.0404,3.0404,3.0404,3.0404,3.0404,3.0404,3.0404,3.0385,3.0327,3.5442,3.543,3.534,3.5295,3.5278,3.5278,3.4917,3.4286,3.3575,3.3176,3.3102,3.3091,3.273,3.2141,3.2158,3.1752,3.1065,3.1048,3.0987,0.0,3.0243,2.9956,2.9905,2.9178,2.884,2.8773,2.8027,2.7655,2.7579,2.6962,2.6793,2.7014,2.6437,2.5936,2.5646,2.6147,2.6066,2.5313,2.4194,2.3572,2.353,2.3185,2.3121,2.3326,2.272,2.2501,2.2653,2.3034,2.3255,2.3197,2.4285,2.4543,2.3778,2.3704,2.3364,2.2638,2.3355,2.3551,2.2895,2.3593,2.4044,2.4075,2.4801,2.4597,2.3086,2.3027,2.373,2.5117,2.5332,2.5976,2.7324,2.751,2.7498,2.757,2.7656,2.7805,2.7927,2.7909,2.8023,2.8288,2.8859,2.9338,2.9448,3.0098,3.0605,3.0684,3.0703,3.0859,3.0918,3.0767,3.0689,3.068,3.0624,3.0632,3.0631,3.0628,3.0559,3.0492,3.0493,3.0475,3.0403,3.039,3.0404,3.0404,3.0404,3.0404,3.0404,3.0404,3.0404,3.0404,3.039,3.0418,3.0402,3.0405,3.0399,3.5847,3.618,3.578,3.5628,3.5628,3.5628,3.5408,3.507,3.4731,3.4123,3.3423,3.3389,3.3203,3.2899,3.2882,3.2723,3.2374,3.1995,3.1819,3.1742,3.1031,3.07,3.0615,2.9956,2.9593,2.9533,2.8831,2.8459,2.8425,2.8104,2.7819,2.757,2.7025,2.6775,2.6801,2.6703,2.6482,2.6151,2.5368,2.4598,2.383,2.3801,2.3395,2.2547,2.2477,2.2351,2.2089,2.2811,2.3286,2.3386,2.4438,2.4692,2.3992,2.4032,2.3726,2.2939,2.3663,2.3999,2.3672,2.4836,2.5551,2.5593,2.6403,2.6624,2.5873,2.5892,2.625,2.7031,2.7109,2.7422,2.8223,2.828,2.8257,2.8257,2.823,2.8401,2.883,2.8908,2.9108,2.9584,2.9996,3.0271,3.0312,3.0664,3.0898,3.0918,3.0918,3.1055,3.1504,3.1152,3.082,3.0814,3.0785,3.0755,3.0716,3.068,3.0617,3.0561,3.0565,3.054,3.0472,3.0436,3.0413,3.0404,3.0407,3.0404,3.0407,3.0404,3.0404,3.0393,3.0425,3.044,3.0455,3.0479,3.0479,3.6468,3.697,3.6389,3.6022,3.5864,3.5864,3.5763,3.5628,3.5611,3.4957,3.3987,3.3903,3.3801,3.3643,3.366,3.3548,3.3339,3.2808,3.2547,3.2479,3.1792,3.1454,3.1369,3.07,3.0362,3.0277,2.96,2.9254,2.9247,2.9077,2.8696,2.8088,2.7736,2.7654,2.7849,2.7282,2.6887,2.6693,2.6417,2.5601,2.4233,2.4282,2.3676,2.2463,2.287,2.2919,2.2463,2.3348,2.3951,2.4141,2.4892,2.5111,2.4632,2.476,2.4571,2.4015,2.4551,2.4996,2.5095,2.6218,2.6966,2.6986,2.7784,2.8291,2.8348,2.8661,2.8748,2.8612,2.8555,2.8652,2.8926,2.8926,2.8887,2.8887,2.8887,2.9219,2.9766,2.9902,3.0117,3.0801,3.0918,3.0898,3.0918,3.0918,3.1016,3.1211,3.1191,3.1543,3.2168,3.1855,3.1504,3.1387,3.1172,3.0879,3.0768,3.0746,3.0711,3.0643,3.063,3.0597,3.0597,3.0637,3.0642,3.0635,3.0738,3.0728,3.0543,3.0422,3.0428,3.0441,3.0649,3.0933,3.1225,3.1058,3.0778,3.7707,3.7792,3.7674,3.7297,3.6716,3.6682,3.6282,3.5701,3.5628,3.5549,3.5397,3.538,3.5002,3.4438,3.4398,3.4049,3.348,3.3328,3.3288,3.322,3.2547,3.2209,3.2141,3.1427,3.1089,3.1004,3.0345,2.9997,2.9956,2.9348,2.8985,2.8852,2.8493,2.8122,2.7862,2.7796,2.7435,2.6722,2.7029,2.6445,2.4991,2.4628,2.4535,2.4687,2.4989,2.5341,2.5343,2.6197,2.6526,2.6586,2.6758,2.6938,2.6861,2.7048,2.7118,2.7014,2.7313,2.7557,2.7526,2.768,2.7782,2.7861,2.8603,2.9104,2.9148,2.9921,3.0152,2.957,2.9449,2.9785,3.0547,3.0586,3.0488,3.043,3.0488,3.0703,3.0703,3.0781,3.082,3.0859,3.0918,3.0918,3.0918,3.0957,3.125,3.1875,3.2031,3.2363,3.3086,3.3066,3.2988,3.2812,3.1973,3.1113,3.1035,3.0918,3.1055,3.0873,3.0767,3.0862,3.1042,3.1471,3.1882,3.127,3.1463,3.1642,3.1023,3.0483,3.0621,3.0939,3.134,3.192,3.2573,3.2298,3.1623,3.8159,3.8497,3.8091,3.7724,3.7466,3.7461,3.7268,3.698,3.6963,3.6963,3.6963,3.6963,3.6287,3.5154,3.5154,3.4985,3.4681,3.4269,3.4049,3.3981,3.3298,3.2949,3.2875,3.2198,3.1853,3.1775,3.1106,3.0741,3.0632,3.0016,2.9651,2.9576,2.9062,2.8679,2.852,2.8545,2.8168,2.7385,2.7521,2.7067,2.6087,2.5442,2.4985,2.4775,2.5038,2.5354,2.5692,2.6136,2.6484,2.6707,2.6935,2.7021,2.7021,2.732,2.7495,2.7525,2.7765,2.789,2.789,2.8316,2.8607,2.8607,2.9426,2.9898,2.9925,3.0335,3.0428,3.0243,3.0281,3.0547,3.0859,3.0918,3.0918,3.0918,3.0918,3.0918,3.0918,3.0937,3.0918,3.0918,3.0918,3.0918,3.0996,3.1348,3.1777,3.2226,3.2578,3.3223,3.3984,3.375,3.3652,3.3906,3.3125,3.248,3.2344,3.2383,3.2324,3.2285,3.23,3.2274,3.2203,3.2111,3.2245,3.2102,3.2413,3.2552,3.2278,3.2086,3.2105,3.2149,3.2237,3.2859,3.3237,3.3047,3.2618,3.8802,3.9186,3.87,3.8379,3.821,3.8198,3.8091,3.791,3.791,3.791,3.791,3.791,3.7302,3.6293,3.6017,3.5831,3.5549,3.5036,3.481,3.4709,3.4032,3.3711,3.3615,3.296,3.2605,3.252,3.208,3.1725,3.1454,3.0768,3.0386,3.0294,2.9677,2.9305,2.9281,2.9128,2.873,2.8205,2.812,2.7765,2.7038,2.648,2.5862,2.5216,2.5443,2.5806,2.6149,2.6467,2.6843,2.7228,2.7392,2.7483,2.7503,2.7811,2.804,2.811,2.8342,2.8476,2.8482,2.9079,2.947,2.9509,3.0061,3.0404,3.0449,3.0675,3.0876,3.0995,3.132,3.1484,3.0937,3.0918,3.0996,3.1191,3.125,3.1309,3.1601,3.1582,3.1641,3.1562,3.1504,3.125,3.1328,3.1797,3.2285,3.293,3.3457,3.4082,3.4766,3.457,3.4414,3.4941,3.4473,3.3945,3.3535,3.3262,3.3379,3.3379,3.3262,3.3221,3.3388,3.3007,3.2785,3.2901,3.3097,3.3086,3.288,3.3045,3.3396,3.3525,3.3632,3.3816,3.4256,3.3984,3.3926,4.0015,4.0045,4.0011,3.9554,3.8954,3.8954,3.8565,3.8063,3.7978,3.7944,3.8012,3.7995,3.7877,3.7702,3.7088,3.6332,3.5684,3.5583,3.5515,3.5425,3.4776,3.4466,3.4387,3.3711,3.3355,3.3355,3.3186,3.2831,3.2242,3.1522,3.1166,3.1099,3.0412,3.0048,2.9963,2.9457,2.901,2.8959,2.8933,2.8552,2.7866,2.7722,2.7325,2.6716,2.6938,2.7245,2.7688,2.808,2.8426,2.8859,2.8808,2.8832,2.8873,2.9127,2.9312,2.951,2.9733,2.9868,2.9836,3.0059,3.028,3.0346,3.0442,3.0459,3.0698,3.1299,3.1749,3.1828,3.2508,3.2456,3.1328,3.1211,3.1426,3.2031,3.2148,3.2441,3.3105,3.3008,3.3242,3.3066,3.2519,3.2168,3.2148,3.2168,3.3027,3.4004,3.457,3.4922,3.5566,3.5781,3.5762,3.5781,3.5664,3.5293,3.3848,3.3809,3.3691,3.375,3.3965,3.3594,3.3652,3.3711,3.3711,3.3945,3.4668,3.4609,3.3711,3.3527,3.3918,3.4218,3.4523,3.4824,3.5137,3.4941,3.4883,4.0113,4.0113,4.0113,3.9931,3.9711,3.9694,3.9542,3.9322,3.9292,3.9305,3.9305,3.9305,3.9039,3.8582,3.8323,3.7528,3.6428,3.6349,3.6096,3.5616,3.5323,3.5205,3.5131,3.4455,3.41,3.4049,3.3615,3.3271,3.2966,3.2266,3.1904,3.1775,3.1183,3.0801,3.0734,3.0548,3.0185,2.9753,2.9702,2.933,2.8653,2.8578,2.8425,2.8147,2.7334,2.7233,2.7883,2.8006,2.8354,2.8964,2.8987,2.8987,2.9015,2.9246,2.9484,2.9678,2.9778,2.9865,2.9991,3.0102,3.0487,3.1164,3.1234,3.1442,3.1916,3.2311,3.2532,3.2665,3.2864,3.2791,3.263,3.2478,3.2617,3.2891,3.2969,3.3105,3.3301,3.3379,3.3379,3.334,3.3105,3.2969,3.3086,3.3457,3.4043,3.459,3.5176,3.5625,3.5879,3.6016,3.6016,3.6016,3.5996,3.5801,3.5293,3.5098,3.5098,3.5098,3.5117,3.5098,3.5117,3.5019,3.5019,3.4922,3.5762,3.5723,3.4668,3.4726,3.5,3.5098,3.541,3.5449,3.5918,3.5527,3.5586,4.0113,4.0113,4.0113,4.0113,4.0113,4.0113,4.0113,4.0113,4.0113,4.0113,4.0113,4.0113,3.9812,3.9406,3.9356,3.8713,3.7562,3.7274,3.6857,3.6343,3.609,3.5983,3.5864,3.5216,3.4844,3.4742,3.4117,3.3761,3.3649,3.3011,3.2666,3.2605,3.1928,3.1556,3.1522,3.1336,3.0929,3.0531,3.0463,3.0091,2.9457,2.9356,2.923,2.8891,2.7977,2.7814,2.8597,2.8641,2.8994,2.9619,2.9525,2.9286,2.9083,2.9424,2.9718,2.9834,2.9931,3.0174,3.0541,3.0718,3.1145,3.1864,3.2049,3.2352,3.2872,3.3144,3.3336,3.343,3.3739,3.3906,3.4033,3.411,3.4054,3.3887,3.3828,3.3945,3.4199,3.4258,3.4121,3.3926,3.3848,3.3828,3.3887,3.4336,3.4766,3.5059,3.5684,3.5976,3.6016,3.6016,3.6016,3.6016,3.6016,3.5996,3.5762,3.5644,3.5644,3.5684,3.5664,3.5898,3.6016,3.6016,3.6016,3.6016,3.6016,3.6016,3.6016,3.6016,3.6016,3.6016,3.5898,3.582,3.5996,3.5996,3.5976,4.0113,4.0113,4.0113,4.0113,4.0113,4.0113,4.0113,4.0113,4.0113,4.0113,4.0113,4.0113,4.0062,4.0045,3.9977,3.9609,3.8899,3.8294,3.7889,3.764,3.7077,3.6812,3.675,3.5983,3.556,3.5464,3.4844,3.4506,3.4455,3.3778,3.3406,3.3271,3.2682,3.231,3.231,3.1674,3.1268,3.12,3.1149,3.0794,3.02,3.0098,2.982,2.9247,2.9034,2.9394,3.0144,3.012,3.0374,3.104,3.0595,2.9861,2.9409,2.9854,3.0233,3.0298,3.0461,3.0969,3.1643,3.2047,3.2175,3.2549,3.2729,3.2958,3.324,3.3804,3.4224,3.4373,3.4912,3.5461,3.548,3.5477,3.5264,3.4824,3.4687,3.5,3.5605,3.5918,3.5644,3.4902,3.4707,3.4707,3.4707,3.4805,3.5137,3.5684,3.5937,3.6016,3.6016,3.6016,3.6016,3.6016,3.6016,3.6016,3.6016,3.5996,3.5996,3.5976,3.5937,3.6016,3.6016,3.6016,3.6016,3.6016,3.6016,3.6016,3.6016,3.6016,3.6016,3.6016,3.6016,3.6016,3.6016,3.6016,3.6016,4.0113,4.0113,4.0113,4.0113,4.0113,4.0113,4.0113,4.0113,4.0113,4.0113,4.0113,4.0113,4.0113,4.0113,4.0113,3.9977,3.9745,3.9491,3.8886,3.8024,3.7686,3.755,3.7398,3.6772,3.6146,3.5645,3.5374,3.5256,3.5103,3.4506,3.4161,3.4026,3.3423,3.3085,3.3017,3.2351,3.1945,3.1887,3.1454,3.1065,3.0852,3.0852,3.0726,3.0557,3.0523,3.0914,3.1649,3.0775,3.0629,3.1402,3.1158,3.0913,3.0748,3.0895,3.1029,3.1029,3.1084,3.1305,3.1708,3.1973,3.2438,3.2972,3.3371,3.383,3.4343,3.4773,3.5036,3.5098,3.5393,3.5556,3.5619,3.5632,3.5569,3.5522,3.553,3.5578,3.5898,3.6016,3.5879,3.5684,3.5586,3.5586,3.5586,3.5566,3.5644,3.5898,3.6016,3.6016,3.6016,3.6074,3.6016,3.6016,3.6016,3.6113,3.6211,3.6309,3.6348,3.6309,3.623,3.6035,3.6016,3.6016,3.6016,3.6016,3.6016,3.6016,3.6016,3.6016,3.6016,3.6035,3.6074,3.6055,3.6016,3.6172,3.6406,4.0113,4.0113,4.0113,4.0113,4.0113,4.0113,4.0113,4.0113,4.0113,4.0113,4.0113,4.0113,4.0113,4.0113,4.0113,4.0113,4.0113,4.0113,3.9609,3.8751,3.8396,3.8311,3.821,3.755,3.6801,3.618,3.6045,3.5881,3.5583,3.5137,3.4901,3.4782,3.4184,3.3801,3.3734,3.3112,3.2706,3.2628,3.2273,3.1884,3.1657,3.1606,3.1488,3.1251,3.119,3.1638,3.2338,3.1528,3.1434,3.2129,3.229,3.2051,3.1519,3.1647,3.1843,3.1843,3.1874,3.2047,3.2445,3.2753,3.2928,3.3607,3.3966,3.4318,3.488,3.5198,3.5331,3.5358,3.5449,3.5528,3.5544,3.5565,3.5636,3.5757,3.5823,3.5918,3.5996,3.6016,3.5996,3.5957,3.5976,3.6016,3.6016,3.6016,3.6016,3.6016,3.6016,3.6016,3.6094,3.6328,3.6309,3.6328,3.6426,3.6504,3.6523,3.6601,3.6699,3.6641,3.6543,3.623,3.6016,3.6016,3.6016,3.6016,3.6016,3.6016,3.6016,3.6016,3.6016,3.6055,3.6309,3.6523,3.6719,3.7109,3.7363,4.0113,4.0113,4.0113,4.0113,4.0113,4.0113,4.0113,4.0113,4.0113,4.0113,4.0113,4.0113,4.0113,4.0113,4.0113,4.0113,4.0113,4.0096,4.0049,3.9762,3.9343,3.9005,3.8785,3.8227,3.7567,3.6936,3.6851,3.6513,3.6005,3.5763,3.565,3.5594,3.4962,3.4567,3.4421,3.3818,3.3446,3.3457,3.3339,3.2916,3.2385,3.2361,3.2097,3.1478,3.1498,3.188,3.2573,3.2738,3.3029,3.3662,3.3587,3.2987,3.2015,3.2265,3.2662,3.2662,3.2674,3.3011,3.3629,3.3747,3.3942,3.4052,3.4325,3.4674,3.4704,3.4921,3.5105,3.5161,3.5316,3.5463,3.5488,3.5505,3.5537,3.5599,3.576,3.5887,3.5954,3.5976,3.5937,3.5957,3.5976,3.5996,3.5996,3.6055,3.6172,3.6211,3.6289,3.6465,3.6543,3.6875,3.6836,3.6934,3.709,3.7148,3.7266,3.7285,3.7363,3.7344,3.7246,3.6992,3.6641,3.6601,3.6621,3.6543,3.6367,3.6269,3.6348,3.6601,3.666,3.6797,3.7031,3.7246,3.7539,3.7871,3.8066,4.0113,4.0113,4.0113,4.0113,4.0113,4.0113,4.0113,4.0113,4.0113,4.0113,4.0113,4.0113,4.0113,4.0113,4.0113,4.0113,4.0113,4.0113,4.0113,4.0079,3.9931,3.9474,3.9073,3.8831,3.8328,3.7702,3.7601,3.7488,3.7251,3.6705,3.6485,3.6462,3.5757,3.534,3.5205,3.4596,3.4246,3.4117,3.366,3.3362,3.3169,3.3119,3.3034,3.2882,3.278,3.3054,3.3702,3.4364,3.4341,3.3819,3.3807,3.3642,3.3171,3.3311,3.3415,3.3421,3.3458,3.3532,3.3753,3.3881,3.3915,3.3935,3.4264,3.4334,3.4327,3.4624,3.4884,3.5053,3.5186,3.535,3.5481,3.5577,3.5605,3.56,3.5854,3.59,3.5846,3.5786,3.5767,3.5786,3.5869,3.5932,3.6096,3.6487,3.6874,3.6972,3.7263,3.7593,3.7532,3.7727,3.7835,3.7848,3.7949,3.7988,3.8027,3.8027,3.8047,3.8086,3.8105,3.8125,3.793,3.7891,3.7949,3.7988,3.7617,3.7441,3.7734,3.8027,3.791,3.7539,3.793,3.8223,3.8262,3.8476,3.8594,4.0113,4.0113,4.0113,4.0113,4.0113,4.0113,4.0113,4.0113,4.0113,4.0113,4.0113,4.0113,4.0113,4.0113,4.0113,4.0113,4.0113,4.0113,4.0113,4.0113,4.0079,3.9846,3.9542,3.9457,3.9073,3.843,3.8379,3.8176,3.7872,3.7461,3.7291,3.7207,3.6806,3.6422,3.6079,3.5723,3.525,3.4962,3.4495,3.419,3.3897,3.3852,3.3632,3.348,3.341,3.3683,3.439,3.5299,3.5348,3.4541,3.4296,3.4167,3.3844,3.3807,3.3807,3.3807,3.3807,3.3807,3.3807,3.3807,3.3972,3.4249,3.4472,3.4721,3.5057,3.5346,3.563,3.5778,3.5956,3.6173,3.6331,3.6465,3.6564,3.6674,3.6638,3.6556,3.6308,3.6292,3.6439,3.6651,3.6786,3.6784,3.6784,3.7337,3.757,3.7733,3.7944,3.8157,3.827,3.859,3.8725,3.8611,3.8732,3.8815,3.8844,3.8844,3.9083,3.9101,3.908,3.9122,3.8867,3.8828,3.8711,3.8652,3.8633,3.8672,3.8809,3.8809,3.8437,3.8359,3.8828,3.9121,3.9141,3.9297,3.9375,4.0113,4.0113,4.0113,4.0113,4.0113,4.0113,4.0113,4.0113,4.0113,4.0113,4.0113,4.0113,4.0113,4.0113,4.0113,4.0113,4.0113,4.0113,4.0113,4.0113,4.0113,4.0028,3.9994,3.996,3.9643,3.9157,3.9102,3.8814,3.843,3.8159,3.8024,3.7939,3.7872,3.7499,3.6953,3.675,3.6383,3.5797,3.5459,3.5087,3.4709,3.459,3.4387,3.4009,3.4049,3.4436,3.5207,3.5957,3.6124,3.5327,3.5188,3.4828,3.4229,3.4144,3.4156,3.4195,3.4234,3.413,3.4009,3.4078,3.4249,3.4815,3.5015,3.5405,3.597,3.6271,3.6397,3.6497,3.7141,3.7152,3.7357,3.7689,3.7766,3.7716,3.7844,3.7668,3.7373,3.7166,3.7434,3.8121,3.8212,3.8255,3.8298,3.8365,3.8433,3.848,3.8749,3.9096,3.9196,3.9374,3.9293,3.9002,3.9255,3.9655,3.966,3.9679,4.0001,4.0219,4.0181,4.0061,3.9494,3.9316,3.9121,3.9082,3.9512,3.9551,3.9394,3.9219,3.9043,3.9258,3.9785,3.9961,4.0059,4.0312,4.0449,4.0113,4.0113,4.0113,4.0113,4.0113,4.0113,4.0113,4.0113,4.0113,4.0113,4.0113,4.0113,4.0113,4.0113,4.0113,4.0113,4.0113,4.0113,4.0113,4.0113,4.0113,4.0113,4.0113,4.0113,4.0011,3.9808,3.9846,3.9745,3.9491,3.8988,3.8751,3.8713,3.8328,3.7855,3.7669,3.719,3.6761,3.6462,3.5966,3.5594,3.5442,3.5306,3.5205,3.5035,3.538,3.5993,3.6613,3.7261,3.735,3.6911,3.6395,3.5954,3.5668,3.5605,3.5573,3.5432,3.5211,3.5069,3.5035,3.4702,3.474,3.5268,3.5463,3.5643,3.619,3.6459,3.6562,3.6649,3.6807,3.7254,3.7633,3.7853,3.8097,3.8189,3.8173,3.8325,3.8552,3.8189,3.7996,3.8103,3.8202,3.8083,3.8177,3.8903,3.9085,3.9234,3.9563,4.0043,4.0122,4.0113,3.9892,3.955,4.0011,4.0342,4.0135,4.0237,4.0629,4.1017,4.1109,4.1186,4.06,4.0315,4.0306,4.043,4.0664,4.0508,4.0059,4.0332,4.0293,4.0527,4.0723,4.0918,4.1133,4.1348,4.1543,4.0113,4.0113,4.0113,4.0113,4.0113,4.0113,4.0113,4.0113,4.0113,4.0113,4.0113,4.0113,4.0113,4.0113,4.0113,4.0113,4.0113,4.0113,4.0113,4.0113,4.0113,4.0113,4.0113,4.0113,4.0113,4.0113,4.0096,4.0113,3.9965,3.9728,3.9508,3.9508,3.9102,3.8785,3.8464,3.7985,3.7697,3.7224,3.6569,3.6163,3.6146,3.578,3.5628,3.5711,3.6118,3.6643,3.7137,3.7613,3.7913,3.7914,3.7624,3.7019,3.6402,3.6296,3.6205,3.59,3.5701,3.5341,3.5104,3.495,3.4978,3.5649,3.5889,3.6433,3.694,3.725,3.747,3.7616,3.7802,3.804,3.8441,3.8803,3.8946,3.9012,3.9088,3.9392,3.9608,3.9127,3.88,3.9031,3.9284,3.9284,3.9436,3.9612,3.975,3.9886,3.9918,4.032,4.0329,4.0339,4.0375,4.0345,4.082,4.0993,4.0665,4.0761,4.1141,4.1556,4.1886,4.2054,4.1973,4.1823,4.1745,4.1571,4.1264,4.101,4.0723,4.1094,4.1462,4.1582,4.1738,4.1953,4.2226,4.25,4.2637,4.0113,4.0113,4.0113,4.0113,4.0113,4.0113,4.0113,4.0113,4.0113,4.0113,4.0113,4.0113,4.0113,4.0113,4.0113,4.0113,4.0113,4.0113,4.0113,4.0113,4.0113,4.0113,4.0113,4.0113,4.0113,4.0113,4.0113,4.0113,4.0113,4.0096,3.996,4.0062,4.0062,3.9626,3.9237,3.8983,3.8582,3.8024,3.7342,3.6953,3.6891,3.6389,3.6135,3.5994,3.617,3.6661,3.7173,3.7649,3.8104,3.8643,3.8699,3.7955,3.7092,3.663,3.6437,3.5987,3.6008,3.573,3.5328,3.5065,3.5211,3.5933,3.6328,3.7001,3.7675,3.8065,3.828,3.8571,3.8711,3.8994,3.9498,3.9591,3.9821,3.9948,4.021,4.0467,4.0491,4.0004,4.0089,4.0146,4.0069,3.9996,4.0112,4.0269,4.0416,4.0531,4.055,4.0608,4.0666,4.0762,4.0935,4.1281,4.1777,4.197,4.1704,4.1627,4.197,4.2171,4.2579,4.2779,4.2949,4.2667,4.2322,4.1876,4.155,4.1476,4.1576,4.1934,4.2248,4.2477,4.2637,4.2773,4.3144,4.3633,4.3633,4.0113,4.0113,4.0113,4.0113,4.0113,4.0113,4.0113,4.0113,4.0113,4.0113,4.0113,4.0113,4.0113,4.0113,4.0113,4.0113,4.0113,4.0113,4.0113,4.0113,4.0113,4.0113,4.0113,4.0113,4.0113,4.0113,4.0113,4.0113,4.0113,4.0113,4.0113,4.0113,4.0113,3.9943,3.9723,3.9372,3.9051,3.8751,3.8108,3.7736,3.7635,3.7432,3.706,3.6644,3.6607,3.6802,3.7215,3.7676,3.815,3.8616,3.8699,3.8516,3.8212,3.812,3.7841,3.7316,3.6907,3.6454,3.5911,3.5596,3.5782,3.6187,3.6444,3.6926,3.7631,3.8022,3.8374,3.8667,3.8909,3.9125,3.9185,3.9568,3.9702,3.9783,4.0152,4.0559,4.1022,4.1147,4.095,4.079,4.0659,4.0704,4.0954,4.107,4.1108,4.1185,4.1166,4.1358,4.1566,4.17,4.1873,4.2297,4.2816,4.2874,4.2816,4.2797,4.2901,4.294,4.3194,4.3309,4.3375,4.314,4.2806,4.2818,4.2695,4.263,4.2768,4.2796,4.3056,4.3296,4.3418,4.3535,4.4004,4.4414,4.4141,4.0113,4.0113,4.0113,4.0113,4.0113,4.0113,4.0113,4.0113,4.0113,4.0113,4.0113,4.0113,4.0113,4.0113,4.0113,4.0113,4.0113,4.0113,4.0113,4.0113,4.0113,4.0113,4.0113,4.0113,4.0113,4.0113,4.0113,4.0113,4.0113,4.0113,4.0113,4.0113,4.0113,4.0113,4.0062,3.9762,3.9559,3.9389,3.8882,3.8464,3.8396,3.8176,3.7669,3.7453,3.7268,3.7395,3.7694,3.7927,3.8292,3.8606,3.8699,3.8699,3.8736,3.8682,3.8397,3.7748,3.734,3.6805,3.6171,3.5717,3.5738,3.5989,3.6426,3.6972,3.7533,3.7981,3.8482,3.8658,3.8769,3.888,3.8913,3.9537,3.9901,4.0096,4.0567,4.1158,4.1567,4.1808,4.1692,4.148,4.1847,4.2048,4.2012,4.2031,4.1916,4.1839,4.1805,4.207,4.2408,4.2562,4.2701,4.3047,4.347,4.3605,4.3662,4.3739,4.3739,4.3797,4.3917,4.4047,4.4167,4.4113,4.4288,4.4454,4.4249,4.3651,4.3269,4.3088,4.3596,4.4096,4.4199,4.4394,4.4863,4.5058,4.4844,4.0113,4.0113,4.0113,4.0113,4.0113,4.0113,4.0113,4.0113,4.0113,4.0113,4.0113,4.0113,4.0113,4.0113,4.0113,4.0113,4.0113,4.0113,4.0113,4.0113,4.0113,4.0113,4.0113,4.0113,4.0113,4.0113,4.0113,4.0113,4.0113,4.0113,4.0113,4.0113,4.0113,4.0113,4.0062,3.9999,4.0096,3.9926,3.9592,3.9254,3.9051,3.8531,3.8108,3.8058,3.7973,3.8002,3.826,3.8332,3.864,3.8949,3.9102,3.9095,3.9171,3.9177,3.87,3.7842,3.7405,3.6631,3.5941,3.5622,3.5622,3.5745,3.6529,3.7023,3.7807,3.8575,3.9227,3.9019,3.9237,3.9205,3.9284,3.9878,4.0362,4.063,4.1251,4.197,4.2165,4.2428,4.2762,4.2856,4.3254,4.3098,4.2758,4.2681,4.2493,4.2493,4.2455,4.2835,4.3158,4.3297,4.347,4.3701,4.3993,4.4224,4.4378,4.4571,4.459,4.4609,4.4782,4.4955,4.5167,4.5306,4.5385,4.5229,4.4813,4.4206,4.3782,4.3705,4.4386,4.4863,4.4979,4.5176,4.5488,4.5723,4.5703,4.0113,4.0113,4.0113,4.0113,4.0113,4.0113,4.0113,4.0113,4.0113,4.0113,4.0113,4.0113,4.0113,4.0113,4.0113,4.0113,4.0113,4.0113,4.0113,4.0113,4.0113,4.0113,4.0113,4.0113,4.0113,4.0113,4.0113,4.0113,4.0113,4.0113,4.0113,4.0113,4.0113,4.0113,4.0113,4.0113,4.0113,4.0079,3.9994,3.9914,3.9795,3.9208,3.892,3.87,3.841,3.8252,3.8625,3.8707,3.8992,3.976,3.9941,4.0244,4.0693,4.0828,4.0246,3.9185,3.8006,3.6754,3.6002,3.5881,3.596,3.61,3.6509,3.7126,3.836,3.9631,4.0314,3.9816,4.0286,4.0333,3.9992,4.0535,4.0917,4.1209,4.1605,4.2217,4.2552,4.2859,4.3232,4.3753,4.3991,4.351,4.306,4.3066,4.3047,4.3085,4.3201,4.3605,4.3932,4.4105,4.4259,4.4494,4.4609,4.4801,4.4859,4.509,4.5148,4.5225,4.5379,4.5594,4.5594,4.5594,4.5594,4.5372,4.5037,4.494,4.4788,4.4927,4.5406,4.5501,4.5458,4.5672,4.5996,4.6191,4.6269,4.0113,4.0113,4.0113,4.0113,4.0113,4.0113,4.0113,4.0113,4.0113,4.0113,4.0113,4.0113,4.0113,4.0113,4.0113,4.0113,4.0113,4.0113,4.0113,4.0113,4.0113,4.0113,4.0113,4.0113,4.0113,4.0113,4.0113,4.0113,4.0113,4.0113,4.0113,4.0113,4.0113,4.0113,4.0113,4.0113,4.0113,4.0096,4.0096,4.0096,4.0028,3.9795,3.9592,3.9592,3.9254,3.9174,3.9158,3.9236,3.9338,3.9842,3.9971,4.0284,4.0614,4.077,4.0597,3.9562,3.8935,3.8056,3.7143,3.6925,3.6962,3.7381,3.7847,3.8781,3.9797,4.0562,4.1085,4.0645,4.0865,4.0883,4.0828,4.1323,4.1617,4.192,4.2215,4.2588,4.3029,4.3268,4.364,4.4192,4.4607,4.4047,4.3727,4.3961,4.4118,4.4282,4.4359,4.4609,4.4859,4.5013,4.5167,4.5321,4.5383,4.5421,4.5383,4.5441,4.5398,4.5441,4.5441,4.5594,4.5594,4.5594,4.5594,4.5594,4.5402,4.5421,4.5603,4.5585,4.558,4.5703,4.5853,4.5946,4.602,4.6113,4.6172,4.0113,4.0113,4.0113,4.0113,4.0113,4.0113,4.0113,4.0113,4.0113,4.0113,4.0113,4.0113,4.0113,4.0113,4.0113,4.0113,4.0113,4.0113,4.0113,4.0113,4.0113,4.0113,4.0113,4.0113,4.0113,4.0113,4.0113,4.0113,4.0113,4.0113,4.0113,4.0113,4.0113,4.0113,4.0113,4.0113,4.0113,4.0113,4.0113,4.0113,4.0096,4.0096,4.0062,4.0079,4.0066,4.0024,3.9827,3.9782,3.972,4.0251,4.0509,4.091,4.1324,4.1706,4.1504,4.0718,4.0265,3.9669,3.8763,3.8283,3.8316,3.8753,3.9633,4.0297,4.1115,4.1489,4.1507,4.1452,4.1746,4.169,4.1617,4.2131,4.2488,4.2753,4.3044,4.3313,4.3521,4.3605,4.3726,4.406,4.4416,4.4593,4.4483,4.4925,4.5217,4.5454,4.5594,4.5586,4.5594,4.5575,4.5575,4.5594,4.5594,4.5594,4.5594,4.5594,4.5594,4.5594,4.5594,4.5594,4.5594,4.5594,4.5594,4.5594,4.5594,4.5594,4.5599,4.5616,4.5642,4.5711,4.5786,4.5829,4.5911,4.5992,4.6067,4.0113,4.0113,4.0113,4.0113,4.0113,4.0113,4.0113,4.0113,4.0113,4.0113,4.0113,4.0113,4.0113,4.0113,4.0113,4.0113,4.0113,4.0113,4.0113,4.0113,4.0113,4.0113,4.0113,4.0113,4.0113,4.0113,4.0113,4.0113,4.0113,4.0113,4.0113,4.0113,4.0113,4.0113,4.0113,4.0113,4.0113,4.0113,4.0113,4.0113,4.0113,4.0113,4.0113,4.0113,4.0113,4.0087,4.0074,4.0092,4.0402,4.1173,4.1453,4.1894,4.2405,4.2701,4.2386,4.1868,4.1307,4.0731,4.0031,3.8995,3.8436,3.9075,4.0217,4.1515,4.2145,4.291,4.2892,4.2359,4.2598,4.269,4.2653,4.2837,4.3139,4.3249,4.3322,4.3396,4.3555,4.3716,4.3848,4.4013,4.419,4.4373,4.4618,4.4877,4.5044,4.5258,4.5452,4.5452,4.5577,4.5594,4.5594,4.5594,4.5594,4.5594,4.5594,4.5594,4.5594,4.5594,4.5594,4.5594,4.5594,4.5594,4.5594,4.5594,4.5594,4.5594,4.5594,4.5603,4.5625,4.5635,4.5681,4.5756,4.5814,4.5908,4.5948,4.0113,4.0113,4.0113,4.0113,4.0113,4.0113,4.0113,4.0113,4.0113,4.0113,4.0113,4.0113,4.0113,4.0113,4.0113,4.0113,4.0113,4.0113,4.0113,4.0113,4.0113,4.0113,4.0113,4.013,4.0113,4.0113,4.0113,4.0113,4.0113,4.0113,4.0113,4.0113,4.0113,4.0113,4.0113,4.0113,4.0113,4.0113,4.0113,4.0113,4.0113,4.0113,4.0113,4.0113,4.0113,4.0113,4.0142,4.0449,4.0844,4.1342,4.1958,4.256,4.2977,4.3078,4.2818,4.2292,4.1697,4.111,4.0636,3.9773,3.9704,4.061,4.1628,4.2432,4.2886,4.3332,4.3378,4.3231,4.3259,4.3231,4.3249,4.3286,4.3433,4.3488,4.3488,4.3488,4.3546,4.3701,4.374,4.3812,4.3971,4.4146,4.4407,4.4676,4.4812,4.4947,4.5161,4.5357,4.5504,4.5594,4.5594,4.5594,4.5594,4.5594,4.5594,4.5594,4.5594,4.5594,4.5594,4.5594,4.5594,4.5594,4.5594,4.5594,4.5594,4.5594,4.5594,4.5594,4.5607,4.5629,4.5656,4.5692,4.5759,4.5808,4.5836,4.0113,4.0113,4.0113,4.0113,4.0113,4.0113,4.0113,4.0113,4.0113,4.0113,4.0113,4.0113,4.0113,4.0113,4.0113,4.0113,4.0113,4.013,4.0269,4.0286,4.0252,4.0265,4.0286,4.0218,4.0113,4.0113,4.0113,4.0113,4.0113,4.0113,4.0113,4.0113,4.0113,4.0113,4.0113,4.0113,4.0113,4.0113,4.0113,4.0113,4.0113,4.0113,4.0113,4.0113,4.0113,4.0266,4.0405,4.0714,4.1121,4.1671,4.2231,4.2713,4.2892,4.2855,4.2599,4.2083,4.1508,4.0909,4.0521,4.0618,4.1042,4.1819,4.2492,4.306,4.3383,4.3488,4.3433,4.3451,4.3469,4.3488,4.3488,4.3488,4.3488,4.3488,4.3488,4.3488,4.3488,4.358,4.3555,4.3572,4.3724,4.3857,4.3958,4.4237,4.4719,4.4947,4.5308,4.5462,4.5527,4.5594,4.5594,4.5594,4.5594,4.5594,4.5594,4.5594,4.5594,4.5594,4.5594,4.5594,4.5594,4.5594,4.5594,4.5594,4.5594,4.5594,4.5594,4.5594,4.5594,4.5594,4.5627,4.5648,4.5669,4.5718,4.5745,4.0113,4.0113,4.0113,4.0113,4.0113,4.0113,4.0113,4.0113,4.0113,4.0113,4.0113,4.0113,4.0163,4.0197,4.0286,4.0354,4.0468,4.04,4.0608,4.0967,4.076,4.0739,4.0743,4.0658,4.0337,4.0146,4.0113,4.0113,4.0113,4.0113,4.0113,4.0113,4.0113,4.0113,4.0113,4.0113,4.0113,4.0113,4.0113,4.0113,4.0113,4.0113,4.0113,4.0113,4.0113,4.0262,4.0679,4.0938,4.1468,4.2272,4.2588,4.2995,4.3294,4.3268,4.3004,4.2472,4.1937,4.1402,4.0949,4.1442,4.1902,4.2352,4.2789,4.3286,4.3436,4.3488,4.3488,4.3488,4.3488,4.3488,4.3488,4.3488,4.3488,4.3488,4.3488,4.3488,4.3488,4.3488,4.3488,4.3488,4.3488,4.3512,4.3529,4.3767,4.4456,4.4933,4.5405,4.5568,4.548,4.54,4.5352,4.5371,4.5362,4.5448,4.5448,4.5568,4.5594,4.5594,4.5594,4.5594,4.5594,4.5594,4.5594,4.5594,4.5594,4.5594,4.5594,4.5594,4.5594,4.5594,4.5594,4.562,4.5616,4.5642,4.5673,4.0113,4.0113,4.0113,4.0113,4.0113,4.0113,4.0113,4.0113,4.0113,4.0113,4.0113,4.0113,4.0438,4.0692,4.0878,4.1048,4.1454,4.1555,4.1843,4.183,4.1568,4.1724,4.166,4.1255,4.0844,4.0692,4.0472,4.0214,4.0113,4.0252,4.0163,4.0113,4.0248,4.0113,4.0113,4.0113,4.0113,4.0113,4.0113,4.0113,4.0113,4.0113,4.0113,4.0113,4.0113,4.0356,4.088,4.1167,4.1863,4.2645,4.2911,4.3277,4.3401,4.3322,4.2761,4.2193,4.1595,4.1155,4.107,4.1385,4.1832,4.2264,4.2684,4.3169,4.3418,4.3479,4.3488,4.3488,4.3488,4.3488,4.3488,4.3488,4.3488,4.3488,4.3488,4.3488,4.3488,4.3488,4.3488,4.3488,4.3488,4.3629,4.3685,4.367,4.4186,4.4516,4.4899,4.5061,4.5033,4.4929,4.4859,4.496,4.503,4.5161,4.5288,4.5495,4.559,4.5594,4.5594,4.5594,4.5594,4.5594,4.5594,4.5594,4.5594,4.5594,4.5594,4.5594,4.5594,4.5594,4.5594,4.5594,4.5603,4.5607,4.5605,4.0113,4.0113,4.0113,4.0113,4.0113,4.0113,4.0113,4.0113,4.0113,4.0113,4.0163,4.0354,4.0726,4.117,4.1508,4.1728,4.2286,4.2286,4.2591,4.2574,4.2367,4.2422,4.2337,4.1982,4.1627,4.1424,4.12,4.0925,4.1014,4.0895,4.0946,4.0946,4.0608,4.0574,4.0472,4.0337,4.0113,4.0113,4.0113,4.0113,4.0113,4.0113,4.0113,4.0113,4.0171,4.0343,4.0897,4.1479,4.209,4.2684,4.3151,4.347,4.3366,4.3142,4.2675,4.2152,4.1606,4.1291,4.1391,4.1803,4.2172,4.2272,4.2519,4.2939,4.3347,4.3479,4.3488,4.3488,4.3488,4.3488,4.3488,4.3488,4.3488,4.3488,4.3488,4.3488,4.3488,4.3488,4.3488,4.3488,4.3513,4.3669,4.377,4.3826,4.3971,4.4161,4.4353,4.4515,4.4732,4.4751,4.4757,4.4872,4.5024,4.5243,4.54,4.5499,4.5577,4.559,4.5594,4.5594,4.5594,4.5594,4.5594,4.5594,4.5594,4.5594,4.5594,4.5594,4.5671,4.5652,4.5594,4.5594,4.5594,4.5594,4.5594,4.0113,4.0113,4.0113,4.0113,4.0113,4.0113,4.0113,4.0113,4.0113,4.013,4.0202,4.0899,4.1305,4.1491,4.2033,4.2422,4.2604,4.2604,4.2963,4.3166,4.2993,4.3115,4.3047,4.2726,4.2405,4.2333,4.2113,4.1809,4.2198,4.1927,4.1961,4.1995,4.1457,4.1288,4.1052,4.0679,4.0303,4.0163,4.0113,4.0113,4.0113,4.0113,4.0113,4.0113,4.0146,4.049,4.1001,4.1573,4.2152,4.2714,4.3232,4.341,4.3479,4.3479,4.316,4.2703,4.208,4.1895,4.1778,4.2223,4.2509,4.2519,4.2625,4.3022,4.3322,4.3488,4.3488,4.3488,4.3488,4.3488,4.3488,4.3488,4.3488,4.3488,4.3488,4.3488,4.3488,4.3488,4.3488,4.3488,4.3488,4.3563,4.358,4.3646,4.3878,4.4061,4.4318,4.4688,4.4883,4.5022,4.5039,4.5072,4.5243,4.5429,4.5541,4.5528,4.5577,4.5594,4.5594,4.5594,4.5594,4.5633,4.5594,4.5594,4.5594,4.5594,4.5594,4.5691,4.5821,4.5821,4.6071,4.5787,4.5864,4.5633,4.5594,4.0113,4.0113,4.0113,4.0113,4.0113,4.0113,4.0113,4.0113,4.0113,4.0337,4.0882,4.1102,4.1749,4.2746,4.3,4.3403,4.3721,4.3972,4.4059,4.4025,4.3822,4.4042,4.3893,4.347,4.3183,4.2929,4.2692,4.2489,4.2367,4.2367,4.2388,4.2185,4.2134,4.1999,4.1728,4.1255,4.0726,4.0299,4.0231,4.0113,4.0113,4.0113,4.0113,4.0113,4.0113,4.0538,4.1207,4.1617,4.2234,4.3051,4.3339,4.3488,4.3488,4.347,4.3277,4.2788,4.247,4.2284,4.2018,4.2362,4.274,4.2769,4.2741,4.3004,4.3303,4.3488,4.3488,4.3488,4.3488,4.3488,4.3488,4.3488,4.3488,4.3488,4.3488,4.3488,4.3488,4.3488,4.3488,4.3488,4.3488,4.3488,4.3488,4.3679,4.3907,4.4048,4.4372,4.4878,4.5104,4.527,4.5248,4.5273,4.5303,4.5448,4.5457,4.5424,4.5522,4.5594,4.5706,4.5821,4.5898,4.5879,4.5691,4.5748,4.6013,4.5864,4.5594,4.5879,4.6475,4.6759,4.6951,4.6475,4.6095,4.6052,4.5975,4.0113,4.0113,4.0113,4.0113,4.0113,4.0113,4.0113,4.0113,4.0113,4.0506,4.1174,4.1525,4.2273,4.3254,4.3676,4.4096,4.4465,4.4432,4.4482,4.4482,4.4584,4.4516,4.433,4.413,4.3944,4.3656,4.3487,4.3399,4.3146,4.3179,4.3247,4.3264,4.2976,4.276,4.2523,4.2033,4.1504,4.0946,4.0553,4.0214,4.013,4.013,4.0113,4.0113,4.0113,4.0594,4.1168,4.1464,4.2236,4.2894,4.3069,4.3488,4.3488,4.347,4.3463,4.3078,4.3014,4.2865,4.2705,4.2837,4.2995,4.3004,4.2995,4.3178,4.333,4.3488,4.3488,4.3488,4.3488,4.3488,4.3488,4.3488,4.3488,4.3488,4.3488,4.3488,4.3488,4.3488,4.3488,4.3488,4.3488,4.3488,4.3579,4.38,4.4139,4.4591,4.517,4.5803,4.5811,4.5625,4.55,4.5386,4.5366,4.5395,4.5458,4.5707,4.5897,4.6109,4.6259,4.6336,4.6321,4.6417,4.6494,4.6533,4.659,4.6513,4.6513,4.6913,4.7413,4.7639,4.7755,4.7471,4.7167,4.7048,4.6932,4.0113,4.0113,4.0113,4.0113,4.0113,4.0113,4.0113,4.0113,4.0113,4.0506,4.1238,4.1965,4.2642,4.3423,4.4062,4.4415,4.4584,4.4584,4.4584,4.4584,4.4584,4.4584,4.4584,4.455,4.4364,4.4499,4.4448,4.411,4.4398,4.4296,4.4178,4.4533,4.3876,4.3521,4.3403,4.2743,4.2286,4.2066,4.1217,4.0587,4.0316,4.0197,4.0113,4.0125,4.0171,4.0323,4.057,4.1122,4.1874,4.2284,4.2772,4.3444,4.3488,4.3488,4.348,4.3463,4.3383,4.3321,4.3232,4.3312,4.3356,4.3418,4.3479,4.3444,4.3462,4.3488,4.3488,4.3488,4.3488,4.3488,4.3488,4.3488,4.3488,4.3488,4.3488,4.3488,4.3488,4.3708,4.4066,4.413,4.4332,4.4314,4.435,4.4626,4.4826,4.5282,4.5722,4.6414,4.6607,4.6263,4.6219,4.5985,4.6124,4.6263,4.6272,4.6464,4.652,4.6682,4.6889,4.7081,4.724,4.7341,4.7398,4.7629,4.786,4.774,4.7793,4.8043,4.8202,4.8336,4.8413,4.8413,4.8279,4.8221,4.7817,4.0113,4.0113,4.0113,4.0113,4.0113,4.0113,4.0113,4.0113,4.0113,4.0489,4.1238,4.1965,4.2692,4.344,4.4245,4.4584,4.4584,4.4584,4.4584,4.4584,4.4584,4.4584,4.4584,4.4584,4.4584,4.4584,4.4584,4.4584,4.4584,4.4584,4.4584,4.4567,4.4245,4.4195,4.4161,4.3453,4.3132,4.3064,4.2236,4.142,4.1081,4.0438,4.0113,4.0263,4.0382,4.0676,4.1047,4.1768,4.2292,4.2664,4.3142,4.3444,4.3488,4.3488,4.3488,4.3488,4.3488,4.3488,4.3488,4.3488,4.3488,4.3488,4.3488,4.3488,4.3488,4.3488,4.3488,4.3488,4.3488,4.3488,4.3488,4.3488,4.3543,4.3543,4.3579,4.3579,4.3579,4.4103,4.4635,4.4901,4.5176,4.5232,4.5232,4.5396,4.5579,4.5828,4.6087,4.6562,4.7075,4.7103,4.7576,4.7452,4.7444,4.7505,4.7336,4.724,4.7298,4.7509,4.7778,4.7971,4.8163,4.8279,4.8456,4.8976,4.9245,4.8933,4.874,4.8836,4.8971,4.9106,4.9317,4.9413,4.9649,4.9663,4.899,4.0113,4.0113,4.0113,4.0113,4.0113,4.0113,4.0113,4.0113,4.0113,4.032,4.0844,4.1796,4.2709,4.344,4.4228,4.4584,4.4584,4.4584,4.4584,4.4584,4.4584,4.4584,4.4584,4.4584,4.4584,4.4584,4.4584,4.4584,4.4584,4.4584,4.4584,4.4584,4.4584,4.4567,4.4533,4.4113,4.3893,4.3893,4.3149,4.2591,4.2036,4.1474,4.0861,4.0904,4.1043,4.1224,4.1348,4.2007,4.2519,4.2836,4.3223,4.3436,4.3488,4.3488,4.3488,4.3488,4.3488,4.3488,4.3488,4.3524,4.3543,4.3561,4.3543,4.3561,4.3488,4.3488,4.3488,4.3488,4.3488,4.3488,4.3488,4.3488,4.3864,4.403,4.4195,4.4305,4.4599,4.5076,4.5351,4.5461,4.5617,4.5617,4.5755,4.6177,4.6388,4.6599,4.6812,4.7471,4.7858,4.8035,4.8505,4.8757,4.864,4.8255,4.7832,4.787,4.8067,4.8317,4.8663,4.9009,4.9279,4.9336,4.9529,4.9822,4.9957,4.9764,4.9649,4.963,4.9803,4.9976,5.0245,5.0495,5.0688,5.0688,5.0053,4.0113,4.0113,4.0113,4.0113,4.0113,4.0113,4.0113,4.0113,4.0113,4.0197,4.0523,4.1758,4.2658,4.3335,4.4195,4.4432,4.4584,4.4584,4.4584,4.4584,4.4584,4.4584,4.4584,4.4584,4.4584,4.4584,4.4584,4.4584,4.4584,4.4584,4.4584,4.4584,4.4584,4.4584,4.4584,4.4567,4.4465,4.4313,4.3907,4.3609,4.3203,4.2726,4.1948,4.1695,4.1822,4.1813,4.1793,4.2204,4.2891,4.3328,4.3743,4.3859,4.3828,4.3828,4.3598,4.3598,4.3488,4.3488,4.3524,4.3708,4.3726,4.3726,4.3708,4.3781,4.3818,4.3836,4.3855,4.38,4.38,4.3635,4.3653,4.3791,4.4213,4.4681,4.4892,4.5186,4.5626,4.6012,4.6085,4.6159,4.6269,4.6269,4.6526,4.6957,4.7159,4.7379,4.7849,4.8617,4.9134,4.9152,4.9384,4.9512,4.9466,4.9029,4.862,4.8678,4.899,4.926,4.963,5.0053,5.0303,5.013,5.013,5.038,5.0438,5.0226,5.0303,5.0341,5.0553,5.0592,5.063,5.0688,5.0688,5.0688,5.0688,4.0113,4.0113,4.0113,4.0113,4.0113,4.0113,4.0113,4.0113,4.0113,4.0405,4.1035,4.1762,4.2422,4.2608,4.4025,4.4581,4.4584,4.4584,4.4584,4.4584,4.4584,4.4584,4.4584,4.4584,4.4584,4.4584,4.4584,4.4584,4.4584,4.4584,4.4584,4.4584,4.4584,4.4584,4.4584,4.4584,4.4567,4.4465,4.4482,4.4215,4.3893,4.3281,4.2418,4.2346,4.2666,4.2807,4.3138,4.3989,4.4428,4.4795,4.4984,4.4866,4.4672,4.4433,4.425,4.402,4.3873,4.3836,4.3965,4.4268,4.4397,4.4507,4.4672,4.5121,4.514,4.5176,4.5103,4.4956,4.4782,4.4287,4.4232,4.4433,4.48,4.5406,4.5792,4.6205,4.6645,4.6865,4.7012,4.7287,4.759,4.759,4.7617,4.7856,4.7856,4.806,4.8209,4.8922,4.9345,4.9753,5.0117,5.0156,5.0154,5.0361,5.0207,4.9913,5.0072,5.0303,5.0399,5.0476,5.0553,5.063,5.0688,5.0688,5.0688,5.0553,5.0688,5.0688,5.0688,5.0649,5.0668,5.0688,5.0688,5.0688,5.0688]}]]